<?xml version="1.0" encoding="UTF-8" standalone="no" ?>
<gpx xmlns="http://www.topografix.com/GPX/1/1" xmlns:xsi="http://www.w3.org/2001/XMLSchema-instance" xsi:schemaLocation="http://www.topografix.com/GPX/1/1 http://www.topografix.com/GPX/1/1/gpx.xsd" version="1.1" creator="VisuGPX - https://www.visugpx.com">
  <metadata>
    <name>Stevenson 2</name>
  </metadata>
  <trk>
    <name><![CDATA[Stevenson 2_2]]></name>
    <trkseg>
      <trkpt lat="44.55088" lon="3.82587">
        <ele>1164.327</ele>
        <time>2016-06-08T03:52:33Z</time>
      </trkpt>
      <trkpt lat="44.5509" lon="3.82619">
        <ele>1163.658</ele>
        <time>2016-06-08T03:52:13Z</time>
      </trkpt>
      <trkpt lat="44.55047" lon="3.82741">
        <ele>1164.908</ele>
        <time>2021-02-02T21:11:32Z</time>
      </trkpt>
      <trkpt lat="44.54993" lon="3.82813">
        <ele>1160.111</ele>
        <time>2021-02-02T21:11:12Z</time>
      </trkpt>
      <trkpt lat="44.54996" lon="3.82859">
        <ele>1162.847</ele>
        <time>2021-02-02T21:10:52Z</time>
      </trkpt>
      <trkpt lat="44.54976" lon="3.82944">
        <ele>1165.426</ele>
        <time>2016-06-08T03:51:53Z</time>
      </trkpt>
      <trkpt lat="44.54992" lon="3.83173">
        <ele>1164.521</ele>
        <time>2016-06-08T03:51:33Z</time>
      </trkpt>
      <trkpt lat="44.55006" lon="3.83221">
        <ele>1163.589</ele>
        <time>2016-06-08T03:51:13Z</time>
      </trkpt>
      <trkpt lat="44.55044" lon="3.83256">
        <ele>1163.758</ele>
        <time>2016-06-08T03:50:53Z</time>
      </trkpt>
      <trkpt lat="44.55115" lon="3.83273">
        <ele>1164.469</ele>
        <time>2016-06-08T03:50:33Z</time>
      </trkpt>
      <trkpt lat="44.55159" lon="3.83305">
        <ele>1160.733</ele>
        <time>2016-06-08T03:50:13Z</time>
      </trkpt>
      <trkpt lat="44.55181" lon="3.83353">
        <ele>1160.552</ele>
        <time>2016-06-08T03:49:53Z</time>
      </trkpt>
      <trkpt lat="44.55183" lon="3.83436">
        <ele>1163.667</ele>
        <time>2016-06-08T03:49:33Z</time>
      </trkpt>
      <trkpt lat="44.55203" lon="3.83474">
        <ele>1167.468</ele>
        <time>2016-06-08T03:49:13Z</time>
      </trkpt>
      <trkpt lat="44.55278" lon="3.83514">
        <ele>1168.008</ele>
        <time>2016-06-08T03:48:53Z</time>
      </trkpt>
      <trkpt lat="44.5545" lon="3.83939">
        <ele>1172.417</ele>
        <time>2016-06-08T03:48:33Z</time>
      </trkpt>
      <trkpt lat="44.55559" lon="3.83839">
        <ele>1171.089</ele>
        <time>2016-06-08T03:48:13Z</time>
      </trkpt>
      <trkpt lat="44.55624" lon="3.83875">
        <ele>1172.728</ele>
        <time>2016-06-08T03:47:53Z</time>
      </trkpt>
      <trkpt lat="44.55641" lon="3.83917">
        <ele>1173.295</ele>
        <time>2016-06-08T03:47:33Z</time>
      </trkpt>
      <trkpt lat="44.55671" lon="3.84034">
        <ele>1177.263</ele>
        <time>2016-06-08T03:47:13Z</time>
      </trkpt>
      <trkpt lat="44.55671" lon="3.84034">
        <ele>1177.242</ele>
        <time>2016-06-08T03:46:53Z</time>
      </trkpt>
      <trkpt lat="44.55666" lon="3.84187">
        <ele>1172.113</ele>
        <time>2016-06-08T03:46:33Z</time>
      </trkpt>
      <trkpt lat="44.55697" lon="3.84375">
        <ele>1168.227</ele>
        <time>2016-06-08T03:46:13Z</time>
      </trkpt>
      <trkpt lat="44.55709" lon="3.84532">
        <ele>1167.146</ele>
        <time>2016-06-08T03:45:53Z</time>
      </trkpt>
      <trkpt lat="44.55726" lon="3.84578">
        <ele>1168.691</ele>
        <time>2016-06-08T03:45:33Z</time>
      </trkpt>
      <trkpt lat="44.55771" lon="3.84643">
        <ele>1167.322</ele>
        <time>2016-06-08T03:45:13Z</time>
      </trkpt>
      <trkpt lat="44.55822" lon="3.84686">
        <ele>1163.308</ele>
        <time>2016-06-08T03:44:53Z</time>
      </trkpt>
      <trkpt lat="44.55868" lon="3.84704">
        <ele>1159.414</ele>
        <time>2016-06-08T03:44:33Z</time>
      </trkpt>
      <trkpt lat="44.5593" lon="3.84706">
        <ele>1154.968</ele>
        <time>2016-06-08T03:44:13Z</time>
      </trkpt>
      <trkpt lat="44.55987" lon="3.8472">
        <ele>1151.565</ele>
        <time>2016-06-08T03:43:53Z</time>
      </trkpt>
      <trkpt lat="44.56048" lon="3.84773">
        <ele>1145.17</ele>
        <time>2016-06-08T03:43:33Z</time>
      </trkpt>
      <trkpt lat="44.56071" lon="3.84833">
        <ele>1139.048</ele>
        <time>2016-06-08T03:43:13Z</time>
      </trkpt>
      <trkpt lat="44.56138" lon="3.84883">
        <ele>1133.147</ele>
        <time>2016-06-08T03:42:53Z</time>
      </trkpt>
      <trkpt lat="44.56195" lon="3.84938">
        <ele>1136.058</ele>
        <time>2016-06-08T03:42:33Z</time>
      </trkpt>
      <trkpt lat="44.5625" lon="3.84959">
        <ele>1134.022</ele>
        <time>2016-06-08T03:42:13Z</time>
      </trkpt>
      <trkpt lat="44.5629" lon="3.84988">
        <ele>1129.821</ele>
        <time>2016-06-08T03:41:53Z</time>
      </trkpt>
      <trkpt lat="44.56324" lon="3.85044">
        <ele>1133.186</ele>
        <time>2016-06-08T03:41:33Z</time>
      </trkpt>
      <trkpt lat="44.56386" lon="3.85041">
        <ele>1124.247</ele>
        <time>2016-06-08T03:41:13Z</time>
      </trkpt>
      <trkpt lat="44.5646" lon="3.85071">
        <ele>1124.808</ele>
        <time>2016-06-08T03:40:53Z</time>
      </trkpt>
      <trkpt lat="44.56506" lon="3.85122">
        <ele>1132.107</ele>
        <time>2016-06-08T03:40:33Z</time>
      </trkpt>
      <trkpt lat="44.5654" lon="3.85203">
        <ele>1135.043</ele>
        <time>2016-06-08T03:40:13Z</time>
      </trkpt>
      <trkpt lat="44.56547" lon="3.85298">
        <ele>1136.613</ele>
        <time>2016-06-08T03:39:53Z</time>
      </trkpt>
      <trkpt lat="44.56563" lon="3.85332">
        <ele>1139.555</ele>
        <time>2016-06-08T03:39:33Z</time>
      </trkpt>
      <trkpt lat="44.5657" lon="3.85265">
        <ele>1139.343</ele>
        <time>2016-06-08T03:39:13Z</time>
      </trkpt>
      <trkpt lat="44.5657" lon="3.85199">
        <ele>1141.932</ele>
        <time>2016-06-08T03:38:53Z</time>
      </trkpt>
      <trkpt lat="44.5655" lon="3.85083">
        <ele>1150.433</ele>
        <time>2016-06-08T03:38:33Z</time>
      </trkpt>
      <trkpt lat="44.56515" lon="3.84979">
        <ele>1149.247</ele>
        <time>2016-06-08T03:38:13Z</time>
      </trkpt>
      <trkpt lat="44.56525" lon="3.84916">
        <ele>1152.376</ele>
        <time>2016-06-08T03:37:53Z</time>
      </trkpt>
      <trkpt lat="44.56558" lon="3.84852">
        <ele>1153.211</ele>
        <time>2016-06-08T03:37:33Z</time>
      </trkpt>
      <trkpt lat="44.56593" lon="3.8482">
        <ele>1158.252</ele>
        <time>2016-06-08T03:37:13Z</time>
      </trkpt>
      <trkpt lat="44.5669" lon="3.84684">
        <ele>1171.508</ele>
        <time>2016-06-08T03:36:53Z</time>
      </trkpt>
      <trkpt lat="44.56744" lon="3.84654">
        <ele>1179.111</ele>
        <time>2016-06-08T03:36:33Z</time>
      </trkpt>
      <trkpt lat="44.56794" lon="3.84646">
        <ele>1183.783</ele>
        <time>2016-06-08T03:36:13Z</time>
      </trkpt>
      <trkpt lat="44.56866" lon="3.84664">
        <ele>1191.362</ele>
        <time>2016-06-08T03:35:53Z</time>
      </trkpt>
      <trkpt lat="44.56997" lon="3.84742">
        <ele>1205.855</ele>
        <time>2016-06-08T03:35:33Z</time>
      </trkpt>
      <trkpt lat="44.57121" lon="3.8477">
        <ele>1220.273</ele>
        <time>2016-06-08T03:35:13Z</time>
      </trkpt>
      <trkpt lat="44.57261" lon="3.84931">
        <ele>1239.142</ele>
        <time>2016-06-08T03:34:53Z</time>
      </trkpt>
      <trkpt lat="44.57316" lon="3.84966">
        <ele>1246.293</ele>
        <time>2016-06-08T03:34:33Z</time>
      </trkpt>
      <trkpt lat="44.57406" lon="3.84969">
        <ele>1257.977</ele>
        <time>2016-06-08T03:34:13Z</time>
      </trkpt>
      <trkpt lat="44.57611" lon="3.84894">
        <ele>1276.646</ele>
        <time>2016-06-08T03:33:53Z</time>
      </trkpt>
      <trkpt lat="44.57649" lon="3.84898">
        <ele>1281.551</ele>
        <time>2016-06-08T03:33:33Z</time>
      </trkpt>
      <trkpt lat="44.57837" lon="3.84846">
        <ele>1299.312</ele>
        <time>2016-06-08T03:33:13Z</time>
      </trkpt>
      <trkpt lat="44.57894" lon="3.84815">
        <ele>1304.108</ele>
        <time>2016-06-08T03:32:53Z</time>
      </trkpt>
      <trkpt lat="44.57935" lon="3.84779">
        <ele>1304.011</ele>
        <time>2016-06-08T03:32:33Z</time>
      </trkpt>
      <trkpt lat="44.57989" lon="3.84847">
        <ele>1302.283</ele>
        <time>2016-06-08T03:32:13Z</time>
      </trkpt>
      <trkpt lat="44.58001" lon="3.84877">
        <ele>1301.462</ele>
        <time>2016-06-08T03:31:53Z</time>
      </trkpt>
      <trkpt lat="44.58009" lon="3.85001">
        <ele>1306.787</ele>
        <time>2016-06-08T03:31:33Z</time>
      </trkpt>
      <trkpt lat="44.58052" lon="3.85209">
        <ele>1304.815</ele>
        <time>2016-06-08T03:31:13Z</time>
      </trkpt>
      <trkpt lat="44.58121" lon="3.85357">
        <ele>1298.344</ele>
        <time>2016-06-08T03:30:53Z</time>
      </trkpt>
      <trkpt lat="44.58186" lon="3.85524">
        <ele>1290.845</ele>
        <time>2016-06-08T03:30:33Z</time>
      </trkpt>
      <trkpt lat="44.58247" lon="3.85643">
        <ele>1288.389</ele>
        <time>2016-06-08T03:30:13Z</time>
      </trkpt>
      <trkpt lat="44.58357" lon="3.85727">
        <ele>1285.278</ele>
        <time>2016-06-08T03:29:53Z</time>
      </trkpt>
      <trkpt lat="44.58419" lon="3.85865">
        <ele>1289.123</ele>
        <time>2016-06-08T03:29:33Z</time>
      </trkpt>
      <trkpt lat="44.58437" lon="3.85965">
        <ele>1294.324</ele>
        <time>2016-06-08T03:29:13Z</time>
      </trkpt>
      <trkpt lat="44.58478" lon="3.86043">
        <ele>1298.908</ele>
        <time>2016-06-08T03:28:53Z</time>
      </trkpt>
      <trkpt lat="44.58538" lon="3.86193">
        <ele>1308.617</ele>
        <time>2016-06-08T03:28:33Z</time>
      </trkpt>
      <trkpt lat="44.58534" lon="3.8632">
        <ele>1308.343</ele>
        <time>2016-06-08T03:28:13Z</time>
      </trkpt>
      <trkpt lat="44.5854" lon="3.86422">
        <ele>1305.082</ele>
        <time>2016-06-08T03:27:53Z</time>
      </trkpt>
      <trkpt lat="44.58482" lon="3.86641">
        <ele>1306.732</ele>
        <time>2016-06-08T03:27:33Z</time>
      </trkpt>
      <trkpt lat="44.58524" lon="3.86793">
        <ele>1307.67</ele>
        <time>2016-06-08T03:27:13Z</time>
      </trkpt>
      <trkpt lat="44.58569" lon="3.8691">
        <ele>1307.689</ele>
        <time>2016-06-08T03:26:53Z</time>
      </trkpt>
      <trkpt lat="44.58594" lon="3.87021">
        <ele>1308.96</ele>
        <time>2016-06-08T03:26:33Z</time>
      </trkpt>
      <trkpt lat="44.58619" lon="3.87106">
        <ele>1307.244</ele>
        <time>2016-06-08T03:26:13Z</time>
      </trkpt>
      <trkpt lat="44.58634" lon="3.87271">
        <ele>1309.843</ele>
        <time>2016-06-08T03:25:53Z</time>
      </trkpt>
      <trkpt lat="44.58629" lon="3.87416">
        <ele>1311.298</ele>
        <time>2016-06-08T03:25:33Z</time>
      </trkpt>
      <trkpt lat="44.58611" lon="3.87485">
        <ele>1311.529</ele>
        <time>2016-06-08T03:25:13Z</time>
      </trkpt>
      <trkpt lat="44.58551" lon="3.87824">
        <ele>1309.308</ele>
        <time>2016-06-08T03:24:53Z</time>
      </trkpt>
      <trkpt lat="44.58458" lon="3.87923">
        <ele>1308.014</ele>
        <time>2016-06-08T03:24:33Z</time>
      </trkpt>
      <trkpt lat="44.58401" lon="3.87961">
        <ele>1305.486</ele>
        <time>2016-06-08T03:24:13Z</time>
      </trkpt>
      <trkpt lat="44.58345" lon="3.87982">
        <ele>1300.835</ele>
        <time>2016-06-08T03:23:53Z</time>
      </trkpt>
      <trkpt lat="44.58346" lon="3.88038">
        <ele>1295.251</ele>
        <time>2016-06-08T03:23:33Z</time>
      </trkpt>
      <trkpt lat="44.58363" lon="3.88079">
        <ele>1291.669</ele>
        <time>2016-06-08T03:23:13Z</time>
      </trkpt>
      <trkpt lat="44.58504" lon="3.8821">
        <ele>1286.098</ele>
        <time>2016-06-08T03:22:53Z</time>
      </trkpt>
      <trkpt lat="44.58523" lon="3.8825">
        <ele>1286.099</ele>
        <time>2016-06-08T03:22:33Z</time>
      </trkpt>
      <trkpt lat="44.58537" lon="3.88354">
        <ele>1277.773</ele>
        <time>2016-06-08T03:22:13Z</time>
      </trkpt>
      <trkpt lat="44.58538" lon="3.88414">
        <ele>1274.412</ele>
        <time>2016-06-08T03:21:53Z</time>
      </trkpt>
      <trkpt lat="44.58547" lon="3.88449">
        <ele>1272.547</ele>
        <time>2016-06-08T03:21:33Z</time>
      </trkpt>
      <trkpt lat="44.5859" lon="3.88483">
        <ele>1269.758</ele>
        <time>2016-06-08T03:21:13Z</time>
      </trkpt>
      <trkpt lat="44.58635" lon="3.88502">
        <ele>1270.008</ele>
        <time>2016-06-08T03:20:53Z</time>
      </trkpt>
      <trkpt lat="44.58668" lon="3.88485">
        <ele>1273.817</ele>
        <time>2016-06-08T03:20:33Z</time>
      </trkpt>
      <trkpt lat="44.58685" lon="3.88482">
        <ele>1273.089</ele>
        <time>2016-06-08T03:20:13Z</time>
      </trkpt>
      <trkpt lat="44.58776" lon="3.88604">
        <ele>1247.228</ele>
        <time>2016-06-08T03:19:53Z</time>
      </trkpt>
      <trkpt lat="44.58804" lon="3.88617">
        <ele>1246.982</ele>
        <time>2016-06-08T03:19:33Z</time>
      </trkpt>
      <trkpt lat="44.58894" lon="3.88587">
        <ele>1235.62</ele>
        <time>2016-06-08T03:19:13Z</time>
      </trkpt>
      <trkpt lat="44.58922" lon="3.88557">
        <ele>1244.639</ele>
        <time>2016-06-08T03:18:53Z</time>
      </trkpt>
      <trkpt lat="44.58942" lon="3.88562">
        <ele>1246.93</ele>
        <time>2016-06-08T03:18:33Z</time>
      </trkpt>
      <trkpt lat="44.5897" lon="3.88634">
        <ele>1236.424</ele>
        <time>2016-06-08T03:18:13Z</time>
      </trkpt>
      <trkpt lat="44.58986" lon="3.88752">
        <ele>1218.793</ele>
        <time>2016-06-08T03:17:53Z</time>
      </trkpt>
      <trkpt lat="44.58992" lon="3.88846">
        <ele>1207.628</ele>
        <time>2016-06-08T03:17:33Z</time>
      </trkpt>
      <trkpt lat="44.59028" lon="3.88916">
        <ele>1205.169</ele>
        <time>2016-06-08T03:17:13Z</time>
      </trkpt>
      <trkpt lat="44.59139" lon="3.88994">
        <ele>1197.308</ele>
        <time>2016-06-08T03:16:53Z</time>
      </trkpt>
      <trkpt lat="44.59195" lon="3.89058">
        <ele>1192.415</ele>
        <time>2016-06-08T03:16:33Z</time>
      </trkpt>
      <trkpt lat="44.59246" lon="3.89147">
        <ele>1179.723</ele>
        <time>2016-06-08T03:16:13Z</time>
      </trkpt>
      <trkpt lat="44.59259" lon="3.89184">
        <ele>1176.033</ele>
        <time>2016-06-08T03:15:53Z</time>
      </trkpt>
      <trkpt lat="44.59253" lon="3.89267">
        <ele>1164.662</ele>
        <time>2016-06-08T03:15:33Z</time>
      </trkpt>
      <trkpt lat="44.59268" lon="3.89449">
        <ele>1153.55</ele>
        <time>2016-06-08T03:15:13Z</time>
      </trkpt>
      <trkpt lat="44.59292" lon="3.89535">
        <ele>1142.859</ele>
        <time>2016-06-08T03:14:53Z</time>
      </trkpt>
      <trkpt lat="44.59376" lon="3.89699">
        <ele>1132.24</ele>
        <time>2016-06-08T03:14:33Z</time>
      </trkpt>
      <trkpt lat="44.59309" lon="3.89774">
        <ele>1126.024</ele>
        <time>2016-06-08T03:14:13Z</time>
      </trkpt>
      <trkpt lat="44.59221" lon="3.89847">
        <ele>1117.213</ele>
        <time>2016-06-08T03:13:53Z</time>
      </trkpt>
      <trkpt lat="44.59124" lon="3.89861">
        <ele>1107.078</ele>
        <time>2016-06-08T03:13:33Z</time>
      </trkpt>
      <trkpt lat="44.58999" lon="3.89913">
        <ele>1090.289</ele>
        <time>2016-06-08T03:13:13Z</time>
      </trkpt>
      <trkpt lat="44.58952" lon="3.89965">
        <ele>1086.608</ele>
        <time>2016-06-08T03:12:53Z</time>
      </trkpt>
      <trkpt lat="44.58952" lon="3.89996">
        <ele>1086.007</ele>
        <time>2016-06-08T03:12:33Z</time>
      </trkpt>
      <trkpt lat="44.5902" lon="3.90059">
        <ele>1082.161</ele>
        <time>2016-06-08T03:12:13Z</time>
      </trkpt>
      <trkpt lat="44.59166" lon="3.90163">
        <ele>1074.931</ele>
        <time>2016-06-08T03:11:53Z</time>
      </trkpt>
      <trkpt lat="44.59242" lon="3.90204">
        <ele>1068.137</ele>
        <time>2016-06-08T03:11:33Z</time>
      </trkpt>
      <trkpt lat="44.59314" lon="3.90267">
        <ele>1054.355</ele>
        <time>2016-06-08T03:11:13Z</time>
      </trkpt>
      <trkpt lat="44.59357" lon="3.90281">
        <ele>1050.534</ele>
        <time>2016-06-08T03:10:53Z</time>
      </trkpt>
      <trkpt lat="44.59402" lon="3.90239">
        <ele>1050.825</ele>
        <time>2016-06-08T03:10:33Z</time>
      </trkpt>
      <trkpt lat="44.5941" lon="3.90249">
        <ele>1046.839</ele>
        <time>2016-06-08T03:10:13Z</time>
      </trkpt>
      <trkpt lat="44.59397" lon="3.90287">
        <ele>1041.078</ele>
        <time>2016-06-08T03:09:53Z</time>
      </trkpt>
      <trkpt lat="44.59395" lon="3.90373">
        <ele>1031.013</ele>
        <time>2016-06-08T03:09:33Z</time>
      </trkpt>
      <trkpt lat="44.59441" lon="3.90415">
        <ele>1027.274</ele>
        <time>2016-06-08T03:09:13Z</time>
      </trkpt>
      <trkpt lat="44.59356" lon="3.90443">
        <ele>1024.108</ele>
        <time>2016-06-08T03:08:53Z</time>
      </trkpt>
      <trkpt lat="44.59332" lon="3.90466">
        <ele>1021.617</ele>
        <time>2016-06-08T03:08:33Z</time>
      </trkpt>
      <trkpt lat="44.59236" lon="3.90445">
        <ele>1020.525</ele>
        <time>2016-06-08T03:08:13Z</time>
      </trkpt>
      <trkpt lat="44.59198" lon="3.90456">
        <ele>1020.183</ele>
        <time>2016-06-08T03:07:53Z</time>
      </trkpt>
      <trkpt lat="44.59198" lon="3.90456">
        <ele>1020.197</ele>
        <time>2016-06-08T03:07:53Z</time>
      </trkpt>
      <trkpt lat="44.59175" lon="3.90554">
        <ele>1021.425</ele>
        <time>2016-06-08T03:07:33Z</time>
      </trkpt>
      <trkpt lat="44.59179" lon="3.90581">
        <ele>1020.864</ele>
        <time>2016-06-08T03:07:13Z</time>
      </trkpt>
      <trkpt lat="44.59224" lon="3.9059">
        <ele>1016.355</ele>
        <time>2016-06-08T03:06:53Z</time>
      </trkpt>
      <trkpt lat="44.59237" lon="3.90608">
        <ele>1017.479</ele>
        <time>2016-06-08T03:06:33Z</time>
      </trkpt>
      <trkpt lat="44.59268" lon="3.90639">
        <ele>1019.678</ele>
        <time>2016-06-08T03:06:13Z</time>
      </trkpt>
      <trkpt lat="44.59287" lon="3.90671">
        <ele>1024.413</ele>
        <time>2016-06-08T03:05:53Z</time>
      </trkpt>
      <trkpt lat="44.59293" lon="3.90724">
        <ele>1033.274</ele>
        <time>2016-06-08T03:05:33Z</time>
      </trkpt>
      <trkpt lat="44.59325" lon="3.90828">
        <ele>1046.508</ele>
        <time>2016-06-08T03:05:13Z</time>
      </trkpt>
      <trkpt lat="44.59373" lon="3.90894">
        <ele>1055.726</ele>
        <time>2016-06-08T03:04:53Z</time>
      </trkpt>
      <trkpt lat="44.59394" lon="3.90924">
        <ele>1058.106</ele>
        <time>2016-06-08T03:04:33Z</time>
      </trkpt>
      <trkpt lat="44.59436" lon="3.9097">
        <ele>1063.489</ele>
        <time>2016-06-08T03:04:13Z</time>
      </trkpt>
      <trkpt lat="44.59524" lon="3.91096">
        <ele>1071.121</ele>
        <time>2016-06-08T03:03:53Z</time>
      </trkpt>
      <trkpt lat="44.59578" lon="3.9116">
        <ele>1071.649</ele>
        <time>2016-06-08T03:03:33Z</time>
      </trkpt>
      <trkpt lat="44.59598" lon="3.91177">
        <ele>1074.528</ele>
        <time>2016-06-08T03:03:13Z</time>
      </trkpt>
      <trkpt lat="44.59675" lon="3.91279">
        <ele>1085.959</ele>
        <time>2016-06-08T03:02:53Z</time>
      </trkpt>
      <trkpt lat="44.59709" lon="3.91312">
        <ele>1086.393</ele>
        <time>2016-06-08T03:02:33Z</time>
      </trkpt>
      <trkpt lat="44.59739" lon="3.91314">
        <ele>1085.772</ele>
        <time>2016-06-08T03:02:13Z</time>
      </trkpt>
      <trkpt lat="44.59771" lon="3.91323">
        <ele>1086.347</ele>
        <time>2016-06-08T03:01:53Z</time>
      </trkpt>
      <trkpt lat="44.59805" lon="3.91351">
        <ele>1089.188</ele>
        <time>2016-06-08T03:01:33Z</time>
      </trkpt>
      <trkpt lat="44.59827" lon="3.91433">
        <ele>1085.108</ele>
        <time>2016-06-08T03:01:13Z</time>
      </trkpt>
      <trkpt lat="44.59859" lon="3.91487">
        <ele>1084.611</ele>
        <time>2016-06-08T03:00:53Z</time>
      </trkpt>
      <trkpt lat="44.59876" lon="3.9153">
        <ele>1080.247</ele>
        <time>2016-06-08T03:00:33Z</time>
      </trkpt>
      <trkpt lat="44.59912" lon="3.91578">
        <ele>1077.126</ele>
        <time>2016-06-08T03:00:13Z</time>
      </trkpt>
      <trkpt lat="44.59925" lon="3.91611">
        <ele>1076.095</ele>
        <time>2016-06-08T02:59:53Z</time>
      </trkpt>
      <trkpt lat="44.59924" lon="3.91639">
        <ele>1075.933</ele>
        <time>2016-06-08T02:59:33Z</time>
      </trkpt>
      <trkpt lat="44.5993" lon="3.91674">
        <ele>1077.662</ele>
        <time>2016-06-08T02:59:13Z</time>
      </trkpt>
      <trkpt lat="44.59928" lon="3.91696">
        <ele>1078.113</ele>
        <time>2016-06-08T02:58:53Z</time>
      </trkpt>
      <trkpt lat="44.59914" lon="3.91711">
        <ele>1076.457</ele>
        <time>2016-06-08T02:58:33Z</time>
      </trkpt>
      <trkpt lat="44.59827" lon="3.91703">
        <ele>1069.216</ele>
        <time>2016-06-08T02:58:13Z</time>
      </trkpt>
      <trkpt lat="44.59737" lon="3.91715">
        <ele>1061.251</ele>
        <time>2016-06-08T02:57:53Z</time>
      </trkpt>
      <trkpt lat="44.59707" lon="3.9175">
        <ele>1059.272</ele>
        <time>2016-06-08T02:57:33Z</time>
      </trkpt>
      <trkpt lat="44.59682" lon="3.91795">
        <ele>1058.808</ele>
        <time>2016-06-08T02:57:13Z</time>
      </trkpt>
      <trkpt lat="44.59664" lon="3.91868">
        <ele>1059.813</ele>
        <time>2016-06-08T02:56:53Z</time>
      </trkpt>
      <trkpt lat="44.5965" lon="3.91894">
        <ele>1057.921</ele>
        <time>2016-06-08T02:56:33Z</time>
      </trkpt>
      <trkpt lat="44.59623" lon="3.91915">
        <ele>1053.761</ele>
        <time>2016-06-08T02:56:13Z</time>
      </trkpt>
      <trkpt lat="44.59605" lon="3.91963">
        <ele>1051.797</ele>
        <time>2016-06-08T02:55:53Z</time>
      </trkpt>
      <trkpt lat="44.59584" lon="3.92076">
        <ele>1047.375</ele>
        <time>2016-06-08T02:55:33Z</time>
      </trkpt>
      <trkpt lat="44.59598" lon="3.9215">
        <ele>1045.924</ele>
        <time>2016-06-08T02:55:13Z</time>
      </trkpt>
      <trkpt lat="44.59627" lon="3.92165">
        <ele>1049.015</ele>
        <time>2016-06-08T02:54:53Z</time>
      </trkpt>
      <trkpt lat="44.59745" lon="3.92158">
        <ele>1054.969</ele>
        <time>2016-06-08T02:54:33Z</time>
      </trkpt>
      <trkpt lat="44.59748" lon="3.92172">
        <ele>1057.278</ele>
        <time>2016-06-08T02:54:13Z</time>
      </trkpt>
      <trkpt lat="44.5973" lon="3.92177">
        <ele>1058.663</ele>
        <time>2016-06-08T02:53:53Z</time>
      </trkpt>
      <trkpt lat="44.59684" lon="3.92192">
        <ele>1059.444</ele>
        <time>2016-06-08T02:53:33Z</time>
      </trkpt>
      <trkpt lat="44.59662" lon="3.92223">
        <ele>1062.008</ele>
        <time>2016-06-08T02:53:13Z</time>
      </trkpt>
      <trkpt lat="44.59664" lon="3.92266">
        <ele>1065.017</ele>
        <time>2016-06-08T02:52:53Z</time>
      </trkpt>
      <trkpt lat="44.59689" lon="3.92329">
        <ele>1070.443</ele>
        <time>2016-06-08T02:52:33Z</time>
      </trkpt>
      <trkpt lat="44.59726" lon="3.92408">
        <ele>1079.082</ele>
        <time>2016-06-08T02:52:13Z</time>
      </trkpt>
      <trkpt lat="44.59753" lon="3.92547">
        <ele>1083.727</ele>
        <time>2016-06-08T02:51:53Z</time>
      </trkpt>
      <trkpt lat="44.59777" lon="3.92592">
        <ele>1085.235</ele>
        <time>2016-06-08T02:51:33Z</time>
      </trkpt>
      <trkpt lat="44.59822" lon="3.92612">
        <ele>1094.014</ele>
        <time>2016-06-08T02:51:13Z</time>
      </trkpt>
      <trkpt lat="44.59841" lon="3.92633">
        <ele>1096.295</ele>
        <time>2016-06-08T02:50:53Z</time>
      </trkpt>
      <trkpt lat="44.59845" lon="3.92662">
        <ele>1094.869</ele>
        <time>2016-06-08T02:50:33Z</time>
      </trkpt>
      <trkpt lat="44.59824" lon="3.92735">
        <ele>1088.668</ele>
        <time>2016-06-08T02:50:13Z</time>
      </trkpt>
      <trkpt lat="44.59819" lon="3.92782">
        <ele>1087.393</ele>
        <time>2016-06-08T02:49:53Z</time>
      </trkpt>
      <trkpt lat="44.59818" lon="3.92862">
        <ele>1086.844</ele>
        <time>2016-06-08T02:49:33Z</time>
      </trkpt>
      <trkpt lat="44.59838" lon="3.92908">
        <ele>1086.908</ele>
        <time>2016-06-08T02:49:13Z</time>
      </trkpt>
      <trkpt lat="44.59875" lon="3.9294">
        <ele>1085.817</ele>
        <time>2016-06-08T02:48:53Z</time>
      </trkpt>
      <trkpt lat="44.59939" lon="3.9298">
        <ele>1091.243</ele>
        <time>2016-06-08T02:48:33Z</time>
      </trkpt>
      <trkpt lat="44.59944" lon="3.93056">
        <ele>1089.982</ele>
        <time>2016-06-08T02:48:13Z</time>
      </trkpt>
      <trkpt lat="44.59964" lon="3.93218">
        <ele>1089.96</ele>
        <time>2016-06-08T02:47:53Z</time>
      </trkpt>
      <trkpt lat="44.59954" lon="3.93285">
        <ele>1087.148</ele>
        <time>2016-06-08T02:47:33Z</time>
      </trkpt>
      <trkpt lat="44.59952" lon="3.93328">
        <ele>1088.097</ele>
        <time>2016-06-08T02:47:13Z</time>
      </trkpt>
      <trkpt lat="44.59978" lon="3.93396">
        <ele>1091.678</ele>
        <time>2016-06-08T02:46:53Z</time>
      </trkpt>
      <trkpt lat="44.5999" lon="3.93431">
        <ele>1092.632</ele>
        <time>2016-06-08T02:46:33Z</time>
      </trkpt>
      <trkpt lat="44.60015" lon="3.93488">
        <ele>1090.011</ele>
        <time>2016-06-08T02:46:13Z</time>
      </trkpt>
      <trkpt lat="44.60078" lon="3.93584">
        <ele>1083.096</ele>
        <time>2016-06-08T02:45:53Z</time>
      </trkpt>
      <trkpt lat="44.60092" lon="3.93614">
        <ele>1084.217</ele>
        <time>2016-06-08T02:45:33Z</time>
      </trkpt>
      <trkpt lat="44.60171" lon="3.93624">
        <ele>1087.508</ele>
        <time>2016-06-08T02:45:13Z</time>
      </trkpt>
      <trkpt lat="44.60234" lon="3.93614">
        <ele>1092.417</ele>
        <time>2016-06-08T02:44:53Z</time>
      </trkpt>
      <trkpt lat="44.60305" lon="3.93626">
        <ele>1102.698</ele>
        <time>2016-06-08T02:44:33Z</time>
      </trkpt>
      <trkpt lat="44.6038" lon="3.93659">
        <ele>1105.018</ele>
        <time>2016-06-08T02:44:13Z</time>
      </trkpt>
      <trkpt lat="44.60412" lon="3.93686">
        <ele>1107.77</ele>
        <time>2016-06-08T02:43:53Z</time>
      </trkpt>
      <trkpt lat="44.60427" lon="3.9371">
        <ele>1113.038</ele>
        <time>2016-06-08T02:43:33Z</time>
      </trkpt>
      <trkpt lat="44.60454" lon="3.93739">
        <ele>1115.927</ele>
        <time>2016-06-08T02:43:13Z</time>
      </trkpt>
      <trkpt lat="44.60476" lon="3.93777">
        <ele>1115.018</ele>
        <time>2016-06-08T02:42:53Z</time>
      </trkpt>
      <trkpt lat="44.60503" lon="3.93864">
        <ele>1121.492</ele>
        <time>2016-06-08T02:42:33Z</time>
      </trkpt>
      <trkpt lat="44.6052" lon="3.93966">
        <ele>1128.991</ele>
        <time>2016-06-08T02:42:13Z</time>
      </trkpt>
      <trkpt lat="44.60521" lon="3.94071">
        <ele>1131.726</ele>
        <time>2016-06-08T02:41:53Z</time>
      </trkpt>
      <trkpt lat="44.60522" lon="3.94121">
        <ele>1134.027</ele>
        <time>2016-06-08T02:41:33Z</time>
      </trkpt>
      <trkpt lat="44.60549" lon="3.94224">
        <ele>1137.108</ele>
        <time>2016-06-08T02:41:13Z</time>
      </trkpt>
      <trkpt lat="44.60569" lon="3.94344">
        <ele>1140.007</ele>
        <time>2016-06-08T02:40:53Z</time>
      </trkpt>
      <trkpt lat="44.6057" lon="3.94402">
        <ele>1140.343</ele>
        <time>2016-06-08T02:40:33Z</time>
      </trkpt>
      <trkpt lat="44.60557" lon="3.94486">
        <ele>1139.813</ele>
        <time>2016-06-08T02:40:13Z</time>
      </trkpt>
      <trkpt lat="44.60539" lon="3.94527">
        <ele>1141.984</ele>
        <time>2016-06-08T02:39:53Z</time>
      </trkpt>
      <trkpt lat="44.60514" lon="3.94564">
        <ele>1142.782</ele>
        <time>2016-06-08T02:39:33Z</time>
      </trkpt>
      <trkpt lat="44.60459" lon="3.94618">
        <ele>1143.551</ele>
        <time>2016-06-08T02:39:13Z</time>
      </trkpt>
      <trkpt lat="44.60456" lon="3.94648">
        <ele>1142.512</ele>
        <time>2016-06-08T02:38:53Z</time>
      </trkpt>
      <trkpt lat="44.6047" lon="3.94666">
        <ele>1141.216</ele>
        <time>2016-06-08T02:38:33Z</time>
      </trkpt>
      <trkpt lat="44.60496" lon="3.9466">
        <ele>1141.455</ele>
        <time>2016-06-08T02:38:13Z</time>
      </trkpt>
      <trkpt lat="44.6058" lon="3.94662">
        <ele>1153.04</ele>
        <time>2016-06-08T02:37:53Z</time>
      </trkpt>
      <trkpt lat="44.6062" lon="3.94651">
        <ele>1157.391</ele>
        <time>2016-06-08T02:37:33Z</time>
      </trkpt>
      <trkpt lat="44.60659" lon="3.9462">
        <ele>1158.608</ele>
        <time>2016-06-08T02:37:13Z</time>
      </trkpt>
      <trkpt lat="44.60688" lon="3.94628">
        <ele>1164.12</ele>
        <time>2016-06-08T02:36:53Z</time>
      </trkpt>
      <trkpt lat="44.60718" lon="3.94595">
        <ele>1165.2</ele>
        <time>2016-06-08T02:36:33Z</time>
      </trkpt>
      <trkpt lat="44.60745" lon="3.94526">
        <ele>1167.157</ele>
        <time>2016-06-08T02:36:13Z</time>
      </trkpt>
      <trkpt lat="44.60769" lon="3.94432">
        <ele>1167.747</ele>
        <time>2016-06-08T02:35:53Z</time>
      </trkpt>
      <trkpt lat="44.60768" lon="3.94397">
        <ele>1166.475</ele>
        <time>2016-06-08T02:35:33Z</time>
      </trkpt>
      <trkpt lat="44.60778" lon="3.94348">
        <ele>1169.654</ele>
        <time>2016-06-08T02:35:13Z</time>
      </trkpt>
      <trkpt lat="44.60809" lon="3.94276">
        <ele>1176.175</ele>
        <time>2016-06-08T02:34:53Z</time>
      </trkpt>
      <trkpt lat="44.60806" lon="3.94233">
        <ele>1176.259</ele>
        <time>2016-06-08T02:34:33Z</time>
      </trkpt>
      <trkpt lat="44.6083" lon="3.94122">
        <ele>1182.158</ele>
        <time>2016-06-08T02:34:13Z</time>
      </trkpt>
      <trkpt lat="44.60839" lon="3.94035">
        <ele>1187.763</ele>
        <time>2016-06-08T02:33:53Z</time>
      </trkpt>
      <trkpt lat="44.60878" lon="3.94079">
        <ele>1195.484</ele>
        <time>2016-06-08T02:33:33Z</time>
      </trkpt>
      <trkpt lat="44.60902" lon="3.94088">
        <ele>1200.708</ele>
        <time>2016-06-08T02:33:13Z</time>
      </trkpt>
      <trkpt lat="44.60925" lon="3.94067">
        <ele>1205.826</ele>
        <time>2016-06-08T02:32:53Z</time>
      </trkpt>
      <trkpt lat="44.60935" lon="3.94069">
        <ele>1208.024</ele>
        <time>2016-06-08T02:32:33Z</time>
      </trkpt>
      <trkpt lat="44.60941" lon="3.94048">
        <ele>1209.288</ele>
        <time>2016-06-08T02:32:13Z</time>
      </trkpt>
      <trkpt lat="44.6094" lon="3.94021">
        <ele>1209.784</ele>
        <time>2016-06-08T02:31:53Z</time>
      </trkpt>
      <trkpt lat="44.60919" lon="3.94004">
        <ele>1206.312</ele>
        <time>2016-06-08T02:31:33Z</time>
      </trkpt>
      <trkpt lat="44.60886" lon="3.93967">
        <ele>1204.521</ele>
        <time>2016-06-08T02:31:13Z</time>
      </trkpt>
      <trkpt lat="44.60848" lon="3.93921">
        <ele>1204.232</ele>
        <time>2016-06-08T02:30:53Z</time>
      </trkpt>
      <trkpt lat="44.60806" lon="3.93861">
        <ele>1197.276</ele>
        <time>2016-06-08T02:30:33Z</time>
      </trkpt>
      <trkpt lat="44.60803" lon="3.93825">
        <ele>1198.665</ele>
        <time>2016-06-08T02:30:13Z</time>
      </trkpt>
      <trkpt lat="44.60799" lon="3.93745">
        <ele>1203.49</ele>
        <time>2016-06-08T02:29:53Z</time>
      </trkpt>
      <trkpt lat="44.60787" lon="3.93665">
        <ele>1207.781</ele>
        <time>2016-06-08T02:29:33Z</time>
      </trkpt>
      <trkpt lat="44.60741" lon="3.93552">
        <ele>1213.808</ele>
        <time>2016-06-08T02:29:13Z</time>
      </trkpt>
      <trkpt lat="44.60731" lon="3.93512">
        <ele>1218.014</ele>
        <time>2016-06-08T02:28:53Z</time>
      </trkpt>
      <trkpt lat="44.60731" lon="3.93459">
        <ele>1221.404</ele>
        <time>2016-06-08T02:28:33Z</time>
      </trkpt>
      <trkpt lat="44.60748" lon="3.93403">
        <ele>1221.053</ele>
        <time>2016-06-08T02:28:13Z</time>
      </trkpt>
      <trkpt lat="44.60801" lon="3.93304">
        <ele>1224.844</ele>
        <time>2016-06-08T02:27:53Z</time>
      </trkpt>
      <trkpt lat="44.60819" lon="3.93262">
        <ele>1225.782</ele>
        <time>2016-06-08T02:27:33Z</time>
      </trkpt>
      <trkpt lat="44.60823" lon="3.93207">
        <ele>1225.811</ele>
        <time>2016-06-08T02:27:13Z</time>
      </trkpt>
      <trkpt lat="44.60831" lon="3.93151">
        <ele>1224.222</ele>
        <time>2016-06-08T02:26:53Z</time>
      </trkpt>
      <trkpt lat="44.60823" lon="3.93113">
        <ele>1223.456</ele>
        <time>2016-06-08T02:26:33Z</time>
      </trkpt>
      <trkpt lat="44.60794" lon="3.93048">
        <ele>1225.895</ele>
        <time>2016-06-08T02:26:13Z</time>
      </trkpt>
      <trkpt lat="44.60766" lon="3.93002">
        <ele>1227.44</ele>
        <time>2016-06-08T02:25:53Z</time>
      </trkpt>
      <trkpt lat="44.6076" lon="3.92887">
        <ele>1228.331</ele>
        <time>2016-06-08T02:25:33Z</time>
      </trkpt>
      <trkpt lat="44.60765" lon="3.92783">
        <ele>1229.208</ele>
        <time>2016-06-08T02:25:13Z</time>
      </trkpt>
      <trkpt lat="44.6078" lon="3.92704">
        <ele>1227.714</ele>
        <time>2016-06-08T02:24:53Z</time>
      </trkpt>
      <trkpt lat="44.60802" lon="3.92643">
        <ele>1223.359</ele>
        <time>2016-06-08T02:24:33Z</time>
      </trkpt>
      <trkpt lat="44.60811" lon="3.92602">
        <ele>1221.156</ele>
        <time>2016-06-08T02:24:13Z</time>
      </trkpt>
      <trkpt lat="44.6081" lon="3.92569">
        <ele>1219.26</ele>
        <time>2016-06-08T02:23:53Z</time>
      </trkpt>
      <trkpt lat="44.60866" lon="3.92397">
        <ele>1216.868</ele>
        <time>2016-06-08T02:23:33Z</time>
      </trkpt>
      <trkpt lat="44.60875" lon="3.92323">
        <ele>1214.577</ele>
        <time>2016-06-08T02:23:13Z</time>
      </trkpt>
      <trkpt lat="44.60855" lon="3.92107">
        <ele>1222.778</ele>
        <time>2016-06-08T02:22:53Z</time>
      </trkpt>
      <trkpt lat="44.60878" lon="3.92035">
        <ele>1211.782</ele>
        <time>2016-06-08T02:22:33Z</time>
      </trkpt>
      <trkpt lat="44.60929" lon="3.91935">
        <ele>1195.411</ele>
        <time>2016-06-08T02:22:13Z</time>
      </trkpt>
      <trkpt lat="44.60934" lon="3.91907">
        <ele>1192.696</ele>
        <time>2016-06-08T02:21:53Z</time>
      </trkpt>
      <trkpt lat="44.60961" lon="3.91752">
        <ele>1178.747</ele>
        <time>2016-06-08T02:21:33Z</time>
      </trkpt>
      <trkpt lat="44.60983" lon="3.91687">
        <ele>1171.908</ele>
        <time>2016-06-08T02:21:13Z</time>
      </trkpt>
      <trkpt lat="44.61021" lon="3.91596">
        <ele>1164.107</ele>
        <time>2016-06-08T02:20:53Z</time>
      </trkpt>
      <trkpt lat="44.61093" lon="3.91496">
        <ele>1151.143</ele>
        <time>2016-06-08T02:20:33Z</time>
      </trkpt>
      <trkpt lat="44.61146" lon="3.91445">
        <ele>1144.213</ele>
        <time>2016-06-08T02:20:13Z</time>
      </trkpt>
      <trkpt lat="44.61159" lon="3.91409">
        <ele>1141.087</ele>
        <time>2016-06-08T02:19:53Z</time>
      </trkpt>
      <trkpt lat="44.61157" lon="3.91324">
        <ele>1132.885</ele>
        <time>2016-06-08T02:19:33Z</time>
      </trkpt>
      <trkpt lat="44.6116" lon="3.91284">
        <ele>1131.584</ele>
        <time>2016-06-08T02:19:13Z</time>
      </trkpt>
      <trkpt lat="44.61168" lon="3.91275">
        <ele>1131.815</ele>
        <time>2016-06-08T02:18:53Z</time>
      </trkpt>
      <trkpt lat="44.6119" lon="3.91178">
        <ele>1127.399</ele>
        <time>2016-06-08T02:18:33Z</time>
      </trkpt>
      <trkpt lat="44.61212" lon="3.91128">
        <ele>1125.118</ele>
        <time>2016-06-08T02:18:13Z</time>
      </trkpt>
      <trkpt lat="44.61282" lon="3.91039">
        <ele>1113.693</ele>
        <time>2016-06-08T02:17:53Z</time>
      </trkpt>
      <trkpt lat="44.61304" lon="3.90993">
        <ele>1108.174</ele>
        <time>2016-06-08T02:17:33Z</time>
      </trkpt>
      <trkpt lat="44.61312" lon="3.90936">
        <ele>1101.208</ele>
        <time>2016-06-08T02:17:13Z</time>
      </trkpt>
      <trkpt lat="44.61307" lon="3.90862">
        <ele>1093.717</ele>
        <time>2016-06-08T02:16:53Z</time>
      </trkpt>
      <trkpt lat="44.61316" lon="3.90817">
        <ele>1087.243</ele>
        <time>2016-06-08T02:16:33Z</time>
      </trkpt>
      <trkpt lat="44.61324" lon="3.90809">
        <ele>1085.382</ele>
        <time>2016-06-08T02:16:13Z</time>
      </trkpt>
      <trkpt lat="44.6134" lon="3.9078">
        <ele>1083.23</ele>
        <time>2016-06-08T02:15:53Z</time>
      </trkpt>
      <trkpt lat="44.61387" lon="3.9075">
        <ele>1082.288</ele>
        <time>2016-06-08T02:15:33Z</time>
      </trkpt>
      <trkpt lat="44.61418" lon="3.90723">
        <ele>1081.877</ele>
        <time>2016-06-08T02:15:13Z</time>
      </trkpt>
      <trkpt lat="44.61427" lon="3.90711">
        <ele>1080.178</ele>
        <time>2016-06-08T02:14:53Z</time>
      </trkpt>
      <trkpt lat="44.61435" lon="3.9065">
        <ele>1073.362</ele>
        <time>2016-06-08T02:14:33Z</time>
      </trkpt>
      <trkpt lat="44.61434" lon="3.90613">
        <ele>1069.881</ele>
        <time>2016-06-08T02:14:13Z</time>
      </trkpt>
      <trkpt lat="44.61442" lon="3.90612">
        <ele>1067.986</ele>
        <time>2016-06-08T02:13:53Z</time>
      </trkpt>
      <trkpt lat="44.61465" lon="3.90677">
        <ele>1068.797</ele>
        <time>2016-06-08T02:13:33Z</time>
      </trkpt>
      <trkpt lat="44.61481" lon="3.90742">
        <ele>1064.708</ele>
        <time>2016-06-08T02:13:13Z</time>
      </trkpt>
      <trkpt lat="44.61482" lon="3.90775">
        <ele>1061.017</ele>
        <time>2016-06-08T02:12:53Z</time>
      </trkpt>
      <trkpt lat="44.6147" lon="3.90812">
        <ele>1057.598</ele>
        <time>2016-06-08T02:12:33Z</time>
      </trkpt>
      <trkpt lat="44.61474" lon="3.9082">
        <ele>1055.718</ele>
        <time>2016-06-08T02:12:13Z</time>
      </trkpt>
      <trkpt lat="44.61509" lon="3.9081">
        <ele>1050.043</ele>
        <time>2016-06-08T02:11:53Z</time>
      </trkpt>
      <trkpt lat="44.61523" lon="3.90796">
        <ele>1048.181</ele>
        <time>2016-06-08T02:11:33Z</time>
      </trkpt>
      <trkpt lat="44.61546" lon="3.9074">
        <ele>1043.98</ele>
        <time>2016-06-08T02:11:13Z</time>
      </trkpt>
      <trkpt lat="44.61541" lon="3.90587">
        <ele>1031.391</ele>
        <time>2019-03-25T22:28:51Z</time>
      </trkpt>
      <trkpt lat="44.61571" lon="3.90653">
        <ele>1028.655</ele>
        <time>2019-03-25T22:28:31Z</time>
      </trkpt>
      <trkpt lat="44.61578" lon="3.9073">
        <ele>1033.964</ele>
        <time>2016-06-08T02:10:33Z</time>
      </trkpt>
      <trkpt lat="44.61548" lon="3.90881">
        <ele>1031.949</ele>
        <time>2016-06-08T02:10:13Z</time>
      </trkpt>
      <trkpt lat="44.61536" lon="3.90901">
        <ele>1033.47</ele>
        <time>2016-06-08T02:09:53Z</time>
      </trkpt>
      <trkpt lat="44.61534" lon="3.90919">
        <ele>1033.608</ele>
        <time>2016-06-08T02:09:33Z</time>
      </trkpt>
      <trkpt lat="44.61549" lon="3.90947">
        <ele>1030.017</ele>
        <time>2016-06-08T02:09:13Z</time>
      </trkpt>
      <trkpt lat="44.61563" lon="3.91024">
        <ele>1028.561</ele>
        <time>2016-06-08T02:08:53Z</time>
      </trkpt>
      <trkpt lat="44.61554" lon="3.91061">
        <ele>1031.748</ele>
        <time>2016-06-08T02:08:33Z</time>
      </trkpt>
      <trkpt lat="44.61556" lon="3.91076">
        <ele>1031.586</ele>
        <time>2016-06-08T02:08:13Z</time>
      </trkpt>
      <trkpt lat="44.61573" lon="3.91088">
        <ele>1025.624</ele>
        <time>2016-06-08T02:07:53Z</time>
      </trkpt>
      <trkpt lat="44.61594" lon="3.91164">
        <ele>1029.943</ele>
        <time>2016-06-08T02:07:33Z</time>
      </trkpt>
      <trkpt lat="44.61637" lon="3.91281">
        <ele>1031.684</ele>
        <time>2016-06-08T02:07:13Z</time>
      </trkpt>
      <trkpt lat="44.61665" lon="3.91326">
        <ele>1027.658</ele>
        <time>2016-06-08T02:06:53Z</time>
      </trkpt>
      <trkpt lat="44.61674" lon="3.91355">
        <ele>1027.377</ele>
        <time>2016-06-08T02:06:33Z</time>
      </trkpt>
      <trkpt lat="44.61683" lon="3.91363">
        <ele>1027.512</ele>
        <time>2016-06-08T02:06:13Z</time>
      </trkpt>
      <trkpt lat="44.61697" lon="3.91361">
        <ele>1028.893</ele>
        <time>2016-06-08T02:05:53Z</time>
      </trkpt>
      <trkpt lat="44.61699" lon="3.91318">
        <ele>1032.208</ele>
        <time>2016-06-08T02:05:33Z</time>
      </trkpt>
      <trkpt lat="44.61707" lon="3.91321">
        <ele>1035.225</ele>
        <time>2016-06-08T02:05:13Z</time>
      </trkpt>
      <trkpt lat="44.61716" lon="3.91378">
        <ele>1033.705</ele>
        <time>2016-06-08T02:04:53Z</time>
      </trkpt>
      <trkpt lat="44.61729" lon="3.91382">
        <ele>1037.179</ele>
        <time>2016-06-08T02:04:33Z</time>
      </trkpt>
      <trkpt lat="44.61747" lon="3.91409">
        <ele>1039.275</ele>
        <time>2016-06-08T02:04:13Z</time>
      </trkpt>
      <trkpt lat="44.61768" lon="3.91452">
        <ele>1041.323</ele>
        <time>2016-06-08T02:03:53Z</time>
      </trkpt>
      <trkpt lat="44.61806" lon="3.91497">
        <ele>1041.712</ele>
        <time>2016-06-08T02:03:33Z</time>
      </trkpt>
      <trkpt lat="44.61851" lon="3.9153">
        <ele>1047.483</ele>
        <time>2016-06-08T02:03:13Z</time>
      </trkpt>
      <trkpt lat="44.61876" lon="3.9157">
        <ele>1048.797</ele>
        <time>2016-06-08T02:02:53Z</time>
      </trkpt>
      <trkpt lat="44.61896" lon="3.91632">
        <ele>1047.136</ele>
        <time>2016-06-08T02:02:33Z</time>
      </trkpt>
      <trkpt lat="44.61915" lon="3.91666">
        <ele>1048.881</ele>
        <time>2016-06-08T02:02:13Z</time>
      </trkpt>
      <trkpt lat="44.61927" lon="3.91706">
        <ele>1050.672</ele>
        <time>2016-06-08T02:01:53Z</time>
      </trkpt>
      <trkpt lat="44.61935" lon="3.91721">
        <ele>1050.808</ele>
        <time>2016-06-08T02:01:33Z</time>
      </trkpt>
      <trkpt lat="44.61977" lon="3.91743">
        <ele>1056.326</ele>
        <time>2016-06-08T02:01:13Z</time>
      </trkpt>
      <trkpt lat="44.61988" lon="3.91642">
        <ele>1062.342</ele>
        <time>2016-06-08T02:00:53Z</time>
      </trkpt>
      <trkpt lat="44.62024" lon="3.91588">
        <ele>1071.268</ele>
        <time>2016-06-08T02:00:33Z</time>
      </trkpt>
      <trkpt lat="44.62035" lon="3.915">
        <ele>1077.755</ele>
        <time>2016-06-08T02:00:13Z</time>
      </trkpt>
      <trkpt lat="44.6203" lon="3.9146">
        <ele>1082.743</ele>
        <time>2016-06-08T01:59:53Z</time>
      </trkpt>
      <trkpt lat="44.62042" lon="3.9145">
        <ele>1084.692</ele>
        <time>2016-06-08T01:59:33Z</time>
      </trkpt>
      <trkpt lat="44.62053" lon="3.91425">
        <ele>1087.253</ele>
        <time>2016-06-08T01:59:13Z</time>
      </trkpt>
      <trkpt lat="44.6205" lon="3.91365">
        <ele>1089.647</ele>
        <time>2016-06-08T01:58:53Z</time>
      </trkpt>
      <trkpt lat="44.6206" lon="3.91326">
        <ele>1086.816</ele>
        <time>2016-06-08T01:58:33Z</time>
      </trkpt>
      <trkpt lat="44.62062" lon="3.91299">
        <ele>1085.341</ele>
        <time>2016-06-08T01:58:13Z</time>
      </trkpt>
      <trkpt lat="44.62052" lon="3.91222">
        <ele>1078.962</ele>
        <time>2016-06-08T01:57:53Z</time>
      </trkpt>
      <trkpt lat="44.62046" lon="3.91154">
        <ele>1077.108</ele>
        <time>2016-06-08T01:57:33Z</time>
      </trkpt>
      <trkpt lat="44.62066" lon="3.91128">
        <ele>1071.121</ele>
        <time>2016-06-08T01:57:13Z</time>
      </trkpt>
      <trkpt lat="44.62087" lon="3.91053">
        <ele>1065.529</ele>
        <time>2016-06-08T01:56:53Z</time>
      </trkpt>
      <trkpt lat="44.62112" lon="3.90988">
        <ele>1063.366</ele>
        <time>2016-06-08T01:56:33Z</time>
      </trkpt>
      <trkpt lat="44.62147" lon="3.90861">
        <ele>1047.358</ele>
        <time>2016-06-08T01:56:13Z</time>
      </trkpt>
      <trkpt lat="44.62183" lon="3.90817">
        <ele>1042.246</ele>
        <time>2016-06-08T01:55:53Z</time>
      </trkpt>
      <trkpt lat="44.62259" lon="3.90738">
        <ele>1029.765</ele>
        <time>2016-06-08T01:55:33Z</time>
      </trkpt>
      <trkpt lat="44.62283" lon="3.90699">
        <ele>1024.946</ele>
        <time>2016-06-08T01:55:13Z</time>
      </trkpt>
      <trkpt lat="44.62336" lon="3.90651">
        <ele>1017.02</ele>
        <time>2016-06-08T01:54:53Z</time>
      </trkpt>
      <trkpt lat="44.62439" lon="3.90594">
        <ele>1000.749</ele>
        <time>2016-06-08T01:54:33Z</time>
      </trkpt>
      <trkpt lat="44.62485" lon="3.9056">
        <ele>995.774</ele>
        <time>2016-06-08T01:54:13Z</time>
      </trkpt>
      <trkpt lat="44.62522" lon="3.90518">
        <ele>994.225</ele>
        <time>2016-06-08T01:53:53Z</time>
      </trkpt>
      <trkpt lat="44.6256" lon="3.90509">
        <ele>1002.308</ele>
        <time>2016-06-08T01:53:33Z</time>
      </trkpt>
      <trkpt lat="44.6257" lon="3.90295">
        <ele>996.419</ele>
        <time>2016-06-08T01:53:13Z</time>
      </trkpt>
      <trkpt lat="44.6258" lon="3.90198">
        <ele>996.781</ele>
        <time>2016-06-08T01:52:53Z</time>
      </trkpt>
      <trkpt lat="44.62597" lon="3.90139">
        <ele>997.491</ele>
        <time>2016-06-08T01:52:33Z</time>
      </trkpt>
      <trkpt lat="44.62599" lon="3.90099">
        <ele>995.713</ele>
        <time>2016-06-08T01:52:13Z</time>
      </trkpt>
      <trkpt lat="44.62612" lon="3.90077">
        <ele>996.991</ele>
        <time>2016-06-08T01:51:53Z</time>
      </trkpt>
      <trkpt lat="44.62664" lon="3.90018">
        <ele>1001.76</ele>
        <time>2016-06-08T01:51:33Z</time>
      </trkpt>
      <trkpt lat="44.62679" lon="3.89987">
        <ele>1001.381</ele>
        <time>2016-06-08T01:51:13Z</time>
      </trkpt>
      <trkpt lat="44.62712" lon="3.89944">
        <ele>1002.545</ele>
        <time>2016-06-08T01:50:53Z</time>
      </trkpt>
      <trkpt lat="44.62752" lon="3.89904">
        <ele>1002.214</ele>
        <time>2016-06-08T01:50:33Z</time>
      </trkpt>
      <trkpt lat="44.62786" lon="3.89895">
        <ele>1002.649</ele>
        <time>2016-06-08T01:50:13Z</time>
      </trkpt>
      <trkpt lat="44.62809" lon="3.89885">
        <ele>1003.08</ele>
        <time>2016-06-08T01:49:53Z</time>
      </trkpt>
      <trkpt lat="44.62849" lon="3.89844">
        <ele>1002.208</ele>
        <time>2016-06-08T01:49:33Z</time>
      </trkpt>
      <trkpt lat="44.62886" lon="3.89785">
        <ele>993.915</ele>
        <time>2016-06-08T01:49:13Z</time>
      </trkpt>
      <trkpt lat="44.62905" lon="3.89742">
        <ele>989.105</ele>
        <time>2016-06-08T01:48:53Z</time>
      </trkpt>
      <trkpt lat="44.6294" lon="3.89707">
        <ele>983.644</ele>
        <time>2016-06-08T01:48:33Z</time>
      </trkpt>
      <trkpt lat="44.62965" lon="3.89651">
        <ele>979.746</ele>
        <time>2016-06-08T01:48:13Z</time>
      </trkpt>
      <trkpt lat="44.62981" lon="3.89622">
        <ele>979.324</ele>
        <time>2016-06-08T01:47:53Z</time>
      </trkpt>
      <trkpt lat="44.63007" lon="3.89541">
        <ele>975.733</ele>
        <time>2019-03-25T22:05:11Z</time>
      </trkpt>
      <trkpt lat="44.63012" lon="3.8959">
        <ele>978.314</ele>
        <time>2019-03-25T22:04:51Z</time>
      </trkpt>
      <trkpt lat="44.63054" lon="3.89519">
        <ele>973.758</ele>
        <time>2019-03-25T22:04:31Z</time>
      </trkpt>
      <trkpt lat="44.63064" lon="3.89489">
        <ele>972.687</ele>
        <time>2019-03-25T22:04:11Z</time>
      </trkpt>
      <trkpt lat="44.63145" lon="3.89492">
        <ele>974.012</ele>
        <time>2016-06-08T01:46:33Z</time>
      </trkpt>
      <trkpt lat="44.63201" lon="3.89468">
        <ele>973.013</ele>
        <time>2016-06-08T01:46:13Z</time>
      </trkpt>
      <trkpt lat="44.63291" lon="3.89442">
        <ele>973.508</ele>
        <time>2016-06-08T01:45:53Z</time>
      </trkpt>
      <trkpt lat="44.63353" lon="3.89444">
        <ele>969.321</ele>
        <time>2016-06-08T01:45:33Z</time>
      </trkpt>
      <trkpt lat="44.63428" lon="3.89471">
        <ele>972.056</ele>
        <time>2016-06-08T01:45:13Z</time>
      </trkpt>
      <trkpt lat="44.63474" lon="3.89495">
        <ele>972.874</ele>
        <time>2016-06-08T01:44:53Z</time>
      </trkpt>
      <trkpt lat="44.63472" lon="3.89522">
        <ele>975.433</ele>
        <time>2016-06-08T01:44:33Z</time>
      </trkpt>
      <trkpt lat="44.63449" lon="3.89525">
        <ele>976.541</ele>
        <time>2016-06-08T01:44:13Z</time>
      </trkpt>
      <trkpt lat="44.63456" lon="3.89544">
        <ele>980.07</ele>
        <time>2016-06-08T01:43:53Z</time>
      </trkpt>
      <trkpt lat="44.63482" lon="3.89557">
        <ele>981.941</ele>
        <time>2016-06-08T01:43:33Z</time>
      </trkpt>
      <trkpt lat="44.63491" lon="3.8957">
        <ele>985.455</ele>
        <time>2016-06-08T01:43:13Z</time>
      </trkpt>
      <trkpt lat="44.63531" lon="3.89591">
        <ele>989.464</ele>
        <time>2016-06-08T01:42:53Z</time>
      </trkpt>
      <trkpt lat="44.63601" lon="3.89619">
        <ele>992.769</ele>
        <time>2016-06-08T01:42:33Z</time>
      </trkpt>
      <trkpt lat="44.63654" lon="3.89659">
        <ele>1005.34</ele>
        <time>2016-06-08T01:42:13Z</time>
      </trkpt>
      <trkpt lat="44.63709" lon="3.89671">
        <ele>1004.108</ele>
        <time>2016-06-08T01:41:53Z</time>
      </trkpt>
      <trkpt lat="44.63721" lon="3.89686">
        <ele>1008.917</ele>
        <time>2016-06-08T01:41:33Z</time>
      </trkpt>
      <trkpt lat="44.63733" lon="3.8974">
        <ele>1016.461</ele>
        <time>2016-06-08T01:41:13Z</time>
      </trkpt>
      <trkpt lat="44.63755" lon="3.89757">
        <ele>1013.148</ele>
        <time>2016-06-08T01:40:53Z</time>
      </trkpt>
      <trkpt lat="44.63789" lon="3.89743">
        <ele>1008.23</ele>
        <time>2016-06-08T01:40:33Z</time>
      </trkpt>
      <trkpt lat="44.63798" lon="3.89749">
        <ele>1008.888</ele>
        <time>2016-06-08T01:40:13Z</time>
      </trkpt>
      <trkpt lat="44.63822" lon="3.89848">
        <ele>1014.317</ele>
        <time>2016-06-08T01:39:53Z</time>
      </trkpt>
      <trkpt lat="44.63824" lon="3.89874">
        <ele>1015.638</ele>
        <time>2016-06-08T01:39:33Z</time>
      </trkpt>
      <trkpt lat="44.64055" lon="3.89741">
        <ele>992.822</ele>
        <time>2016-06-08T01:39:13Z</time>
      </trkpt>
      <trkpt lat="44.64212" lon="3.89641">
        <ele>968.861</ele>
        <time>2016-06-08T01:38:53Z</time>
      </trkpt>
      <trkpt lat="44.64232" lon="3.89648">
        <ele>968.396</ele>
        <time>2016-06-08T01:38:33Z</time>
      </trkpt>
      <trkpt lat="44.64252" lon="3.89659">
        <ele>968.797</ele>
        <time>2016-06-08T01:38:13Z</time>
      </trkpt>
      <trkpt lat="44.64309" lon="3.89733">
        <ele>970.608</ele>
        <time>2019-03-25T21:55:11Z</time>
      </trkpt>
      <trkpt lat="44.64357" lon="3.89839">
        <ele>973.911</ele>
        <time>2016-06-08T01:37:33Z</time>
      </trkpt>
      <trkpt lat="44.64382" lon="3.89896">
        <ele>978.765</ele>
        <time>2016-06-08T01:37:13Z</time>
      </trkpt>
      <trkpt lat="44.64499" lon="3.89953">
        <ele>982.615</ele>
        <time>2016-06-08T01:36:53Z</time>
      </trkpt>
      <trkpt lat="44.64544" lon="3.89989">
        <ele>984.684</ele>
        <time>2016-06-08T01:36:33Z</time>
      </trkpt>
      <trkpt lat="44.64583" lon="3.9">
        <ele>983.062</ele>
        <time>2016-06-08T01:36:13Z</time>
      </trkpt>
      <trkpt lat="44.64638" lon="3.89964">
        <ele>979.841</ele>
        <time>2016-06-08T01:35:53Z</time>
      </trkpt>
      <trkpt lat="44.64678" lon="3.89987">
        <ele>978.132</ele>
        <time>2016-06-08T01:35:33Z</time>
      </trkpt>
      <trkpt lat="44.64697" lon="3.90037">
        <ele>976.966</ele>
        <time>2016-06-08T01:35:13Z</time>
      </trkpt>
      <trkpt lat="44.6473" lon="3.90032">
        <ele>974.645</ele>
        <time>2016-06-08T01:34:53Z</time>
      </trkpt>
      <trkpt lat="44.64822" lon="3.9019">
        <ele>971.04</ele>
        <time>2016-06-08T01:34:33Z</time>
      </trkpt>
      <trkpt lat="44.64775" lon="3.90245">
        <ele>969.421</ele>
        <time>2016-06-08T01:34:13Z</time>
      </trkpt>
      <trkpt lat="44.64812" lon="3.90329">
        <ele>969.408</ele>
        <time>2016-06-08T01:33:53Z</time>
      </trkpt>
      <trkpt lat="44.64838" lon="3.90359">
        <ele>969.714</ele>
        <time>2016-06-08T01:33:33Z</time>
      </trkpt>
      <trkpt lat="44.64862" lon="3.90375">
        <ele>970.559</ele>
        <time>2016-06-08T01:33:13Z</time>
      </trkpt>
      <trkpt lat="44.64902" lon="3.90356">
        <ele>972.956</ele>
        <time>2016-06-08T01:32:53Z</time>
      </trkpt>
      <trkpt lat="44.64926" lon="3.90316">
        <ele>979.578</ele>
        <time>2016-06-08T01:32:33Z</time>
      </trkpt>
      <trkpt lat="44.64938" lon="3.90316">
        <ele>982.656</ele>
        <time>2016-06-08T01:32:13Z</time>
      </trkpt>
      <trkpt lat="44.64949" lon="3.90337">
        <ele>983.615</ele>
        <time>2016-06-08T01:31:53Z</time>
      </trkpt>
      <trkpt lat="44.64977" lon="3.90353">
        <ele>986.556</ele>
        <time>2016-06-08T01:31:33Z</time>
      </trkpt>
      <trkpt lat="44.65022" lon="3.9031">
        <ele>996.25</ele>
        <time>2016-06-08T01:31:13Z</time>
      </trkpt>
      <trkpt lat="44.65035" lon="3.90274">
        <ele>1000.699</ele>
        <time>2016-06-08T01:30:53Z</time>
      </trkpt>
      <trkpt lat="44.65057" lon="3.90233">
        <ele>1006.944</ele>
        <time>2016-06-08T01:30:33Z</time>
      </trkpt>
      <trkpt lat="44.65201" lon="3.90162">
        <ele>1033.735</ele>
        <time>2016-06-08T01:30:13Z</time>
      </trkpt>
      <trkpt lat="44.65232" lon="3.90154">
        <ele>1035.408</ele>
        <time>2016-06-08T01:29:53Z</time>
      </trkpt>
      <trkpt lat="44.65339" lon="3.90189">
        <ele>1049.222</ele>
        <time>2016-06-08T01:29:33Z</time>
      </trkpt>
      <trkpt lat="44.65381" lon="3.90178">
        <ele>1055.357</ele>
        <time>2016-06-08T01:29:13Z</time>
      </trkpt>
      <trkpt lat="44.65408" lon="3.90198">
        <ele>1061.894</ele>
        <time>2016-06-08T01:28:53Z</time>
      </trkpt>
      <trkpt lat="44.65487" lon="3.90219">
        <ele>1071.131</ele>
        <time>2016-06-08T01:28:33Z</time>
      </trkpt>
      <trkpt lat="44.65516" lon="3.90216">
        <ele>1074.889</ele>
        <time>2016-06-08T01:28:13Z</time>
      </trkpt>
      <trkpt lat="44.65598" lon="3.90224">
        <ele>1076.588</ele>
        <time>2016-06-08T01:27:53Z</time>
      </trkpt>
      <trkpt lat="44.65675" lon="3.90256">
        <ele>1079.859</ele>
        <time>2016-06-08T01:27:33Z</time>
      </trkpt>
      <trkpt lat="44.65716" lon="3.90284">
        <ele>1080.253</ele>
        <time>2016-06-08T01:27:13Z</time>
      </trkpt>
      <trkpt lat="44.65741" lon="3.90321">
        <ele>1081.462</ele>
        <time>2016-06-08T01:26:53Z</time>
      </trkpt>
      <trkpt lat="44.65794" lon="3.90374">
        <ele>1083.837</ele>
        <time>2016-06-08T01:26:33Z</time>
      </trkpt>
      <trkpt lat="44.65841" lon="3.90385">
        <ele>1084.418</ele>
        <time>2016-06-08T01:26:13Z</time>
      </trkpt>
      <trkpt lat="44.65885" lon="3.90399">
        <ele>1087.008</ele>
        <time>2016-06-08T01:25:53Z</time>
      </trkpt>
      <trkpt lat="44.65932" lon="3.90392">
        <ele>1089.517</ele>
        <time>2016-06-08T01:25:33Z</time>
      </trkpt>
      <trkpt lat="44.6596" lon="3.9036">
        <ele>1091.689</ele>
        <time>2016-06-08T01:25:13Z</time>
      </trkpt>
      <trkpt lat="44.65989" lon="3.90341">
        <ele>1093.628</ele>
        <time>2016-06-08T01:24:53Z</time>
      </trkpt>
      <trkpt lat="44.66024" lon="3.90334">
        <ele>1093.955</ele>
        <time>2016-06-08T01:24:33Z</time>
      </trkpt>
      <trkpt lat="44.66031" lon="3.90297">
        <ele>1094.683</ele>
        <time>2016-06-08T01:24:13Z</time>
      </trkpt>
      <trkpt lat="44.66055" lon="3.90224">
        <ele>1095.852</ele>
        <time>2016-06-08T01:23:53Z</time>
      </trkpt>
      <trkpt lat="44.66094" lon="3.90117">
        <ele>1099.783</ele>
        <time>2016-06-08T01:23:33Z</time>
      </trkpt>
      <trkpt lat="44.66123" lon="3.9">
        <ele>1096.647</ele>
        <time>2016-06-08T01:23:13Z</time>
      </trkpt>
      <trkpt lat="44.66126" lon="3.89913">
        <ele>1084.316</ele>
        <time>2016-06-08T01:22:53Z</time>
      </trkpt>
      <trkpt lat="44.66112" lon="3.89832">
        <ele>1077.161</ele>
        <time>2016-06-08T01:22:33Z</time>
      </trkpt>
      <trkpt lat="44.66077" lon="3.89726">
        <ele>1069.822</ele>
        <time>2016-06-08T01:22:13Z</time>
      </trkpt>
      <trkpt lat="44.66031" lon="3.89609">
        <ele>1060.708</ele>
        <time>2016-06-08T01:21:53Z</time>
      </trkpt>
      <trkpt lat="44.65981" lon="3.89563">
        <ele>1054.016</ele>
        <time>2016-06-08T01:21:33Z</time>
      </trkpt>
      <trkpt lat="44.65952" lon="3.89532">
        <ele>1051.006</ele>
        <time>2016-06-08T01:21:13Z</time>
      </trkpt>
      <trkpt lat="44.6594" lon="3.89474">
        <ele>1051.564</ele>
        <time>2016-06-08T01:20:53Z</time>
      </trkpt>
      <trkpt lat="44.65952" lon="3.8942">
        <ele>1048.091</ele>
        <time>2016-06-08T01:20:33Z</time>
      </trkpt>
      <trkpt lat="44.65941" lon="3.89346">
        <ele>1045.799</ele>
        <time>2016-06-08T01:20:13Z</time>
      </trkpt>
      <trkpt lat="44.6588" lon="3.89214">
        <ele>1039.578</ele>
        <time>2016-06-08T01:19:53Z</time>
      </trkpt>
      <trkpt lat="44.65869" lon="3.89148">
        <ele>1034.989</ele>
        <time>2016-06-08T01:19:33Z</time>
      </trkpt>
      <trkpt lat="44.65881" lon="3.89005">
        <ele>1033.073</ele>
        <time>2016-06-08T01:19:13Z</time>
      </trkpt>
      <trkpt lat="44.65887" lon="3.88845">
        <ele>1024.782</ele>
        <time>2016-06-08T01:18:53Z</time>
      </trkpt>
      <trkpt lat="44.65879" lon="3.88742">
        <ele>1018.537</ele>
        <time>2016-06-08T01:18:33Z</time>
      </trkpt>
      <trkpt lat="44.65867" lon="3.88689">
        <ele>1019.138</ele>
        <time>2016-06-08T01:18:13Z</time>
      </trkpt>
      <trkpt lat="44.65881" lon="3.88635">
        <ele>1021.308</ele>
        <time>2016-06-08T01:17:53Z</time>
      </trkpt>
      <trkpt lat="44.65931" lon="3.88568">
        <ele>1010.317</ele>
        <time>2016-06-08T01:17:33Z</time>
      </trkpt>
      <trkpt lat="44.65948" lon="3.88519">
        <ele>1003.489</ele>
        <time>2016-06-08T01:17:13Z</time>
      </trkpt>
      <trkpt lat="44.65939" lon="3.88485">
        <ele>1000.128</ele>
        <time>2016-06-08T01:16:53Z</time>
      </trkpt>
      <trkpt lat="44.65917" lon="3.88452">
        <ele>995.474</ele>
        <time>2016-06-08T01:16:33Z</time>
      </trkpt>
      <trkpt lat="44.65918" lon="3.88432">
        <ele>991.762</ele>
        <time>2016-06-08T01:16:13Z</time>
      </trkpt>
      <trkpt lat="44.65948" lon="3.88419">
        <ele>987.031</ele>
        <time>2016-06-08T01:15:53Z</time>
      </trkpt>
      <trkpt lat="44.65896" lon="3.88393">
        <ele>983.962</ele>
        <time>2016-06-08T01:15:33Z</time>
      </trkpt>
      <trkpt lat="44.65847" lon="3.88391">
        <ele>979.786</ele>
        <time>2016-06-08T01:15:13Z</time>
      </trkpt>
      <trkpt lat="44.65745" lon="3.88421">
        <ele>972.765</ele>
        <time>2016-06-08T01:14:53Z</time>
      </trkpt>
      <trkpt lat="44.65678" lon="3.88479">
        <ele>966.73</ele>
        <time>2016-06-08T01:14:33Z</time>
      </trkpt>
      <trkpt lat="44.65646" lon="3.88529">
        <ele>962.251</ele>
        <time>2016-06-08T01:14:13Z</time>
      </trkpt>
      <trkpt lat="44.65646" lon="3.8857">
        <ele>962.508</ele>
        <time>2016-06-08T01:13:53Z</time>
      </trkpt>
      <trkpt lat="44.65681" lon="3.88652">
        <ele>963.62</ele>
        <time>2016-06-08T01:13:33Z</time>
      </trkpt>
      <trkpt lat="44.65642" lon="3.88717">
        <ele>959.1</ele>
        <time>2016-06-08T01:13:13Z</time>
      </trkpt>
      <trkpt lat="44.65634" lon="3.88762">
        <ele>963.757</ele>
        <time>2016-06-08T01:12:53Z</time>
      </trkpt>
      <trkpt lat="44.65613" lon="3.88801">
        <ele>966.011</ele>
        <time>2016-06-08T01:12:33Z</time>
      </trkpt>
      <trkpt lat="44.65548" lon="3.88849">
        <ele>973.579</ele>
        <time>2016-06-08T01:12:13Z</time>
      </trkpt>
      <trkpt lat="44.65531" lon="3.88916">
        <ele>975.218</ele>
        <time>2016-06-08T01:11:53Z</time>
      </trkpt>
      <trkpt lat="44.65511" lon="3.88965">
        <ele>975.249</ele>
        <time>2016-06-08T01:11:33Z</time>
      </trkpt>
      <trkpt lat="44.65426" lon="3.89088">
        <ele>973.873</ele>
        <time>2016-06-08T01:11:13Z</time>
      </trkpt>
      <trkpt lat="44.65337" lon="3.89141">
        <ele>977.862</ele>
        <time>2016-06-08T01:10:53Z</time>
      </trkpt>
      <trkpt lat="44.65287" lon="3.89174">
        <ele>975.777</ele>
        <time>2016-06-08T01:10:33Z</time>
      </trkpt>
      <trkpt lat="44.65273" lon="3.8915">
        <ele>982.838</ele>
        <time>2016-06-08T01:10:13Z</time>
      </trkpt>
      <trkpt lat="44.65243" lon="3.89156">
        <ele>981.808</ele>
        <time>2016-06-08T01:09:53Z</time>
      </trkpt>
      <trkpt lat="44.65189" lon="3.89105">
        <ele>994.214</ele>
        <time>2016-06-08T01:09:33Z</time>
      </trkpt>
      <trkpt lat="44.65159" lon="3.89103">
        <ele>999.204</ele>
        <time>2016-06-08T01:09:13Z</time>
      </trkpt>
      <trkpt lat="44.65149" lon="3.89073">
        <ele>1003.924</ele>
        <time>2016-06-08T01:08:53Z</time>
      </trkpt>
      <trkpt lat="44.65124" lon="3.89073">
        <ele>1005.09</ele>
        <time>2016-06-08T01:08:33Z</time>
      </trkpt>
      <trkpt lat="44.65085" lon="3.89067">
        <ele>1004.918</ele>
        <time>2016-06-08T01:08:13Z</time>
      </trkpt>
      <trkpt lat="44.65034" lon="3.89094">
        <ele>1003.377</ele>
        <time>2016-06-08T01:07:53Z</time>
      </trkpt>
      <trkpt lat="44.64982" lon="3.89092">
        <ele>1002.058</ele>
        <time>2016-06-08T01:07:33Z</time>
      </trkpt>
      <trkpt lat="44.64945" lon="3.89072">
        <ele>1000.832</ele>
        <time>2016-06-08T01:07:13Z</time>
      </trkpt>
      <trkpt lat="44.64925" lon="3.89036">
        <ele>1002.931</ele>
        <time>2016-06-08T01:06:53Z</time>
      </trkpt>
      <trkpt lat="44.64928" lon="3.89023">
        <ele>1004.396</ele>
        <time>2016-06-08T01:06:33Z</time>
      </trkpt>
      <trkpt lat="44.64973" lon="3.8901">
        <ele>1009.727</ele>
        <time>2016-06-08T01:06:13Z</time>
      </trkpt>
      <trkpt lat="44.64999" lon="3.89008">
        <ele>1012.508</ele>
        <time>2016-06-08T01:05:53Z</time>
      </trkpt>
      <trkpt lat="44.64994" lon="3.88999">
        <ele>1013.519</ele>
        <time>2016-06-08T01:05:33Z</time>
      </trkpt>
      <trkpt lat="44.64981" lon="3.88995">
        <ele>1012.609</ele>
        <time>2016-06-08T01:05:13Z</time>
      </trkpt>
      <trkpt lat="44.64992" lon="3.88988">
        <ele>1014.919</ele>
        <time>2016-06-08T01:04:53Z</time>
      </trkpt>
      <trkpt lat="44.65021" lon="3.88992">
        <ele>1017.687</ele>
        <time>2016-06-08T01:04:33Z</time>
      </trkpt>
      <trkpt lat="44.65051" lon="3.88966">
        <ele>1023.315</ele>
        <time>2016-06-08T01:04:13Z</time>
      </trkpt>
      <trkpt lat="44.65099" lon="3.88976">
        <ele>1026.084</ele>
        <time>2016-06-08T01:03:53Z</time>
      </trkpt>
      <trkpt lat="44.65162" lon="3.88965">
        <ele>1037.365</ele>
        <time>2016-06-08T01:03:33Z</time>
      </trkpt>
      <trkpt lat="44.65162" lon="3.88945">
        <ele>1041.849</ele>
        <time>2016-06-08T01:03:13Z</time>
      </trkpt>
      <trkpt lat="44.65179" lon="3.88889">
        <ele>1048.278</ele>
        <time>2016-06-08T01:02:53Z</time>
      </trkpt>
      <trkpt lat="44.65169" lon="3.88814">
        <ele>1051.373</ele>
        <time>2016-06-08T01:02:33Z</time>
      </trkpt>
      <trkpt lat="44.651" lon="3.88768">
        <ele>1059.084</ele>
        <time>2016-06-08T01:02:13Z</time>
      </trkpt>
      <trkpt lat="44.65033" lon="3.88712">
        <ele>1077.608</ele>
        <time>2016-06-08T01:01:53Z</time>
      </trkpt>
      <trkpt lat="44.65075" lon="3.88603">
        <ele>1089.617</ele>
        <time>2016-06-08T01:01:33Z</time>
      </trkpt>
      <trkpt lat="44.65096" lon="3.88513">
        <ele>1093.743</ele>
        <time>2016-06-08T01:01:13Z</time>
      </trkpt>
      <trkpt lat="44.65117" lon="3.88339">
        <ele>1111.882</ele>
        <time>2016-06-08T01:00:53Z</time>
      </trkpt>
      <trkpt lat="44.65115" lon="3.88252">
        <ele>1118.481</ele>
        <time>2016-06-08T01:00:33Z</time>
      </trkpt>
      <trkpt lat="44.65094" lon="3.8812">
        <ele>1134.049</ele>
        <time>2016-06-08T01:00:13Z</time>
      </trkpt>
      <trkpt lat="44.65124" lon="3.87971">
        <ele>1150.268</ele>
        <time>2016-06-08T00:59:53Z</time>
      </trkpt>
      <trkpt lat="44.65149" lon="3.87929">
        <ele>1156.349</ele>
        <time>2016-06-08T00:59:33Z</time>
      </trkpt>
      <trkpt lat="44.65168" lon="3.87906">
        <ele>1158.923</ele>
        <time>2016-06-08T00:59:13Z</time>
      </trkpt>
      <trkpt lat="44.65199" lon="3.87829">
        <ele>1164.062</ele>
        <time>2016-06-08T00:58:53Z</time>
      </trkpt>
      <trkpt lat="44.65217" lon="3.87724">
        <ele>1180.067</ele>
        <time>2016-06-08T00:58:33Z</time>
      </trkpt>
      <trkpt lat="44.65171" lon="3.87766">
        <ele>1182.788</ele>
        <time>2016-06-08T00:58:13Z</time>
      </trkpt>
      <trkpt lat="44.65115" lon="3.87768">
        <ele>1189.108</ele>
        <time>2016-06-08T00:57:53Z</time>
      </trkpt>
      <trkpt lat="44.65095" lon="3.87724">
        <ele>1197.914</ele>
        <time>2016-06-08T00:57:33Z</time>
      </trkpt>
      <trkpt lat="44.65054" lon="3.87661">
        <ele>1204.504</ele>
        <time>2016-06-08T00:57:13Z</time>
      </trkpt>
      <trkpt lat="44.65025" lon="3.87639">
        <ele>1209.124</ele>
        <time>2016-06-08T00:56:53Z</time>
      </trkpt>
      <trkpt lat="44.64986" lon="3.8756">
        <ele>1215.61</ele>
        <time>2016-06-08T00:56:33Z</time>
      </trkpt>
      <trkpt lat="44.64951" lon="3.8758">
        <ele>1216.558</ele>
        <time>2016-06-08T00:56:13Z</time>
      </trkpt>
      <trkpt lat="44.6493" lon="3.87567">
        <ele>1219.867</ele>
        <time>2016-06-08T00:55:53Z</time>
      </trkpt>
      <trkpt lat="44.64898" lon="3.87301">
        <ele>1229.548</ele>
        <time>2016-06-08T00:55:33Z</time>
      </trkpt>
      <trkpt lat="44.64923" lon="3.87226">
        <ele>1229.862</ele>
        <time>2016-06-08T00:55:13Z</time>
      </trkpt>
      <trkpt lat="44.64922" lon="3.87081">
        <ele>1231.751</ele>
        <time>2016-06-08T00:54:53Z</time>
      </trkpt>
      <trkpt lat="44.64918" lon="3.86998">
        <ele>1235.936</ele>
        <time>2016-06-08T00:54:33Z</time>
      </trkpt>
      <trkpt lat="44.64923" lon="3.86906">
        <ele>1235.057</ele>
        <time>2016-06-08T00:54:13Z</time>
      </trkpt>
      <trkpt lat="44.64937" lon="3.86812">
        <ele>1233.408</ele>
        <time>2016-06-08T00:53:53Z</time>
      </trkpt>
      <trkpt lat="44.64959" lon="3.86725">
        <ele>1233.205</ele>
        <time>2016-06-08T00:53:33Z</time>
      </trkpt>
      <trkpt lat="44.6496" lon="3.86573">
        <ele>1227.332</ele>
        <time>2016-06-08T00:53:13Z</time>
      </trkpt>
      <trkpt lat="44.64954" lon="3.86446">
        <ele>1227.712</ele>
        <time>2016-06-08T00:52:53Z</time>
      </trkpt>
      <trkpt lat="44.64947" lon="3.86385">
        <ele>1227.597</ele>
        <time>2016-06-08T00:52:33Z</time>
      </trkpt>
      <trkpt lat="44.64921" lon="3.86322">
        <ele>1224.655</ele>
        <time>2016-06-08T00:52:13Z</time>
      </trkpt>
      <trkpt lat="44.64882" lon="3.86246">
        <ele>1223.564</ele>
        <time>2016-06-08T00:51:53Z</time>
      </trkpt>
      <trkpt lat="44.64818" lon="3.8618">
        <ele>1226.355</ele>
        <time>2016-06-08T00:51:33Z</time>
      </trkpt>
      <trkpt lat="44.64709" lon="3.86134">
        <ele>1234.959</ele>
        <time>2016-06-08T00:51:13Z</time>
      </trkpt>
      <trkpt lat="44.64576" lon="3.86077">
        <ele>1232.918</ele>
        <time>2016-06-08T00:50:53Z</time>
      </trkpt>
      <trkpt lat="44.64545" lon="3.86048">
        <ele>1232.173</ele>
        <time>2016-06-08T00:50:33Z</time>
      </trkpt>
      <trkpt lat="44.64531" lon="3.86023">
        <ele>1230.564</ele>
        <time>2016-06-08T00:50:13Z</time>
      </trkpt>
      <trkpt lat="44.64505" lon="3.85991">
        <ele>1228.508</ele>
        <time>2016-06-08T00:49:53Z</time>
      </trkpt>
      <trkpt lat="44.64443" lon="3.8596">
        <ele>1224.717</ele>
        <time>2016-06-08T00:49:33Z</time>
      </trkpt>
      <trkpt lat="44.64385" lon="3.85958">
        <ele>1224.461</ele>
        <time>2016-06-08T00:49:13Z</time>
      </trkpt>
      <trkpt lat="44.64326" lon="3.85964">
        <ele>1222.481</ele>
        <time>2016-06-08T00:48:53Z</time>
      </trkpt>
      <trkpt lat="44.64269" lon="3.85854">
        <ele>1211.975</ele>
        <time>2016-06-08T00:48:33Z</time>
      </trkpt>
      <trkpt lat="44.64269" lon="3.85854">
        <ele>1211.923</ele>
        <time>2016-06-08T00:48:13Z</time>
      </trkpt>
      <trkpt lat="44.64236" lon="3.85694">
        <ele>1211.042</ele>
        <time>2016-06-08T00:47:53Z</time>
      </trkpt>
      <trkpt lat="44.64262" lon="3.85677">
        <ele>1211.033</ele>
        <time>2016-06-08T00:47:33Z</time>
      </trkpt>
      <trkpt lat="44.6432" lon="3.85666">
        <ele>1211.567</ele>
        <time>2016-06-08T00:47:13Z</time>
      </trkpt>
      <trkpt lat="44.64341" lon="3.85647">
        <ele>1212.196</ele>
        <time>2016-06-08T00:46:53Z</time>
      </trkpt>
      <trkpt lat="44.64416" lon="3.85605">
        <ele>1211.141</ele>
        <time>2016-06-08T00:46:33Z</time>
      </trkpt>
      <trkpt lat="44.64458" lon="3.85578">
        <ele>1208.472</ele>
        <time>2016-06-08T00:46:13Z</time>
      </trkpt>
      <trkpt lat="44.64501" lon="3.85558">
        <ele>1203.908</ele>
        <time>2016-06-08T00:45:53Z</time>
      </trkpt>
      <trkpt lat="44.64544" lon="3.85514">
        <ele>1198.113</ele>
        <time>2016-06-08T00:45:33Z</time>
      </trkpt>
      <trkpt lat="44.64609" lon="3.85369">
        <ele>1192.921</ele>
        <time>2016-06-08T00:45:13Z</time>
      </trkpt>
      <trkpt lat="44.64616" lon="3.85216">
        <ele>1193.061</ele>
        <time>2016-06-08T00:44:53Z</time>
      </trkpt>
      <trkpt lat="44.64639" lon="3.84984">
        <ele>1190.592</ele>
        <time>2016-06-08T00:44:33Z</time>
      </trkpt>
      <trkpt lat="44.64657" lon="3.84897">
        <ele>1192.73</ele>
        <time>2016-06-08T00:44:13Z</time>
      </trkpt>
      <trkpt lat="44.64688" lon="3.84625">
        <ele>1191.919</ele>
        <time>2016-06-08T00:43:53Z</time>
      </trkpt>
      <trkpt lat="44.64773" lon="3.84385">
        <ele>1186.11</ele>
        <time>2016-06-08T00:43:33Z</time>
      </trkpt>
      <trkpt lat="44.6478" lon="3.8429">
        <ele>1193.954</ele>
        <time>2016-06-08T00:43:13Z</time>
      </trkpt>
      <trkpt lat="44.64789" lon="3.84225">
        <ele>1198.733</ele>
        <time>2016-06-08T00:42:53Z</time>
      </trkpt>
      <trkpt lat="44.64791" lon="3.84173">
        <ele>1199.688</ele>
        <time>2016-06-08T00:42:33Z</time>
      </trkpt>
      <trkpt lat="44.64802" lon="3.841">
        <ele>1200.169</ele>
        <time>2016-06-08T00:42:13Z</time>
      </trkpt>
      <trkpt lat="44.64804" lon="3.84049">
        <ele>1202.408</ele>
        <time>2016-06-08T00:41:53Z</time>
      </trkpt>
      <trkpt lat="44.64823" lon="3.83904">
        <ele>1203.521</ele>
        <time>2016-06-08T00:41:33Z</time>
      </trkpt>
      <trkpt lat="44.64867" lon="3.83779">
        <ele>1199.601</ele>
        <time>2016-06-08T00:41:13Z</time>
      </trkpt>
      <trkpt lat="44.6492" lon="3.83739">
        <ele>1193.339</ele>
        <time>2016-06-08T00:40:53Z</time>
      </trkpt>
      <trkpt lat="44.64993" lon="3.83703">
        <ele>1188.71</ele>
        <time>2016-06-08T00:40:33Z</time>
      </trkpt>
      <trkpt lat="44.65043" lon="3.83665">
        <ele>1186.848</ele>
        <time>2016-06-08T00:40:13Z</time>
      </trkpt>
      <trkpt lat="44.65132" lon="3.83631">
        <ele>1176.057</ele>
        <time>2016-06-08T00:39:53Z</time>
      </trkpt>
      <trkpt lat="44.65086" lon="3.83575">
        <ele>1169.458</ele>
        <time>2016-06-08T00:39:33Z</time>
      </trkpt>
      <trkpt lat="44.65009" lon="3.83529">
        <ele>1165.482</ele>
        <time>2016-06-08T00:39:13Z</time>
      </trkpt>
      <trkpt lat="44.6494" lon="3.83369">
        <ele>1166.291</ele>
        <time>2016-06-08T00:38:53Z</time>
      </trkpt>
      <trkpt lat="44.64916" lon="3.83325">
        <ele>1166.776</ele>
        <time>2016-06-08T00:38:33Z</time>
      </trkpt>
      <trkpt lat="44.64883" lon="3.83291">
        <ele>1165.967</ele>
        <time>2016-06-08T00:38:13Z</time>
      </trkpt>
      <trkpt lat="44.64849" lon="3.83286">
        <ele>1163.208</ele>
        <time>2016-06-08T00:37:53Z</time>
      </trkpt>
      <trkpt lat="44.64785" lon="3.83322">
        <ele>1160.113</ele>
        <time>2016-06-08T00:37:33Z</time>
      </trkpt>
      <trkpt lat="44.64743" lon="3.83336">
        <ele>1156.676</ele>
        <time>2016-06-08T00:37:13Z</time>
      </trkpt>
      <trkpt lat="44.64698" lon="3.83344">
        <ele>1151.316</ele>
        <time>2016-06-08T00:36:53Z</time>
      </trkpt>
      <trkpt lat="44.64643" lon="3.83374">
        <ele>1150.692</ele>
        <time>2016-06-08T00:36:33Z</time>
      </trkpt>
      <trkpt lat="44.64593" lon="3.83394">
        <ele>1143.44</ele>
        <time>2016-06-08T00:36:13Z</time>
      </trkpt>
      <trkpt lat="44.64552" lon="3.83413">
        <ele>1142.589</ele>
        <time>2016-06-08T00:35:53Z</time>
      </trkpt>
      <trkpt lat="44.64518" lon="3.83411">
        <ele>1137.57</ele>
        <time>2016-06-08T00:35:33Z</time>
      </trkpt>
      <trkpt lat="44.64464" lon="3.83419">
        <ele>1133.694</ele>
        <time>2016-06-08T00:35:13Z</time>
      </trkpt>
      <trkpt lat="44.64338" lon="3.83353">
        <ele>1107.813</ele>
        <time>2016-06-08T00:34:53Z</time>
      </trkpt>
      <trkpt lat="44.64327" lon="3.83337">
        <ele>1103.258</ele>
        <time>2016-06-08T00:34:33Z</time>
      </trkpt>
      <trkpt lat="44.64303" lon="3.83323">
        <ele>1098.989</ele>
        <time>2016-06-08T00:34:13Z</time>
      </trkpt>
      <trkpt lat="44.64283" lon="3.83286">
        <ele>1091.208</ele>
        <time>2016-06-08T00:33:53Z</time>
      </trkpt>
      <trkpt lat="44.64254" lon="3.83259">
        <ele>1086.413</ele>
        <time>2016-06-08T00:33:33Z</time>
      </trkpt>
      <trkpt lat="44.64244" lon="3.83233">
        <ele>1084.049</ele>
        <time>2016-06-08T00:33:13Z</time>
      </trkpt>
      <trkpt lat="44.64263" lon="3.83179">
        <ele>1081.837</ele>
        <time>2016-06-08T00:32:53Z</time>
      </trkpt>
      <trkpt lat="44.64266" lon="3.83146">
        <ele>1081.143</ele>
        <time>2016-06-08T00:32:33Z</time>
      </trkpt>
      <trkpt lat="44.64253" lon="3.83085">
        <ele>1082.161</ele>
        <time>2016-06-08T00:32:13Z</time>
      </trkpt>
      <trkpt lat="44.64256" lon="3.8304">
        <ele>1087.36</ele>
        <time>2016-06-08T00:31:53Z</time>
      </trkpt>
      <trkpt lat="44.64273" lon="3.83021">
        <ele>1091.421</ele>
        <time>2016-06-08T00:31:33Z</time>
      </trkpt>
      <trkpt lat="44.64308" lon="3.83003">
        <ele>1095.295</ele>
        <time>2016-06-08T00:31:13Z</time>
      </trkpt>
      <trkpt lat="44.64323" lon="3.82975">
        <ele>1097.124</ele>
        <time>2016-06-08T00:30:53Z</time>
      </trkpt>
      <trkpt lat="44.64338" lon="3.82931">
        <ele>1099.089</ele>
        <time>2016-06-08T00:30:33Z</time>
      </trkpt>
      <trkpt lat="44.64354" lon="3.8284">
        <ele>1100.71</ele>
        <time>2016-06-08T00:30:13Z</time>
      </trkpt>
      <trkpt lat="44.64317" lon="3.82895">
        <ele>1108.108</ele>
        <time>2016-06-08T00:29:53Z</time>
      </trkpt>
      <trkpt lat="44.64298" lon="3.82913">
        <ele>1109.916</ele>
        <time>2016-06-08T00:29:33Z</time>
      </trkpt>
      <trkpt lat="44.64269" lon="3.82919">
        <ele>1112.688</ele>
        <time>2016-06-08T00:29:13Z</time>
      </trkpt>
      <trkpt lat="44.64078" lon="3.82882">
        <ele>1123.746</ele>
        <time>2016-06-08T00:28:53Z</time>
      </trkpt>
      <trkpt lat="44.64056" lon="3.82866">
        <ele>1121.931</ele>
        <time>2016-06-08T00:28:33Z</time>
      </trkpt>
      <trkpt lat="44.64044" lon="3.82836">
        <ele>1124.949</ele>
        <time>2016-06-08T00:28:13Z</time>
      </trkpt>
      <trkpt lat="44.64032" lon="3.82762">
        <ele>1132.568</ele>
        <time>2016-06-08T00:27:53Z</time>
      </trkpt>
      <trkpt lat="44.64015" lon="3.82692">
        <ele>1132.169</ele>
        <time>2016-06-08T00:27:33Z</time>
      </trkpt>
      <trkpt lat="44.64022" lon="3.82591">
        <ele>1145.173</ele>
        <time>2016-06-08T00:27:13Z</time>
      </trkpt>
      <trkpt lat="44.64018" lon="3.82558">
        <ele>1146.342</ele>
        <time>2016-06-08T00:26:53Z</time>
      </trkpt>
      <trkpt lat="44.63999" lon="3.82514">
        <ele>1145.777</ele>
        <time>2016-06-08T00:26:33Z</time>
      </trkpt>
      <trkpt lat="44.63973" lon="3.82359">
        <ele>1155.538</ele>
        <time>2016-06-08T00:26:13Z</time>
      </trkpt>
      <trkpt lat="44.63972" lon="3.82309">
        <ele>1158.808</ele>
        <time>2016-06-08T00:25:53Z</time>
      </trkpt>
      <trkpt lat="44.63966" lon="3.82278">
        <ele>1161.42</ele>
        <time>2016-06-08T00:25:33Z</time>
      </trkpt>
      <trkpt lat="44.63904" lon="3.82189">
        <ele>1161.5</ele>
        <time>2016-06-08T00:25:13Z</time>
      </trkpt>
      <trkpt lat="44.63876" lon="3.82134">
        <ele>1162.629</ele>
        <time>2016-06-08T00:24:53Z</time>
      </trkpt>
      <trkpt lat="44.63861" lon="3.8212">
        <ele>1162.132</ele>
        <time>2016-06-08T00:24:33Z</time>
      </trkpt>
      <trkpt lat="44.63837" lon="3.82136">
        <ele>1162.11</ele>
        <time>2016-06-08T00:24:13Z</time>
      </trkpt>
      <trkpt lat="44.63826" lon="3.82177">
        <ele>1161.139</ele>
        <time>2021-01-05T01:34:34Z</time>
      </trkpt>
      <trkpt lat="44.63821" lon="3.82138">
        <ele>1167.29</ele>
        <time>2021-01-05T01:34:14Z</time>
      </trkpt>
      <trkpt lat="44.63894" lon="3.8196">
        <ele>1192.014</ele>
        <time>2021-01-05T01:33:54Z</time>
      </trkpt>
      <trkpt lat="44.63938" lon="3.81876">
        <ele>1206.283</ele>
        <time>2016-06-08T00:22:53Z</time>
      </trkpt>
      <trkpt lat="44.63956" lon="3.81884">
        <ele>1206.848</ele>
        <time>2021-01-05T01:33:14Z</time>
      </trkpt>
      <trkpt lat="44.63986" lon="3.81879">
        <ele>1210.329</ele>
        <time>2021-01-05T01:32:54Z</time>
      </trkpt>
      <trkpt lat="44.64045" lon="3.81894">
        <ele>1216.508</ele>
        <time>2016-06-08T00:21:53Z</time>
      </trkpt>
      <trkpt lat="44.64053" lon="3.81876">
        <ele>1217.717</ele>
        <time>2016-06-08T00:21:33Z</time>
      </trkpt>
      <trkpt lat="44.64029" lon="3.81813">
        <ele>1219.57</ele>
        <time>2016-06-08T00:21:13Z</time>
      </trkpt>
      <trkpt lat="44.63935" lon="3.81696">
        <ele>1228.638</ele>
        <time>2016-06-08T00:20:53Z</time>
      </trkpt>
      <trkpt lat="44.63844" lon="3.81581">
        <ele>1238.317</ele>
        <time>2016-06-08T00:20:33Z</time>
      </trkpt>
      <trkpt lat="44.6381" lon="3.81543">
        <ele>1241.235</ele>
        <time>2016-06-08T00:20:13Z</time>
      </trkpt>
      <trkpt lat="44.6379" lon="3.8154">
        <ele>1242.314</ele>
        <time>2016-06-08T00:19:53Z</time>
      </trkpt>
      <trkpt lat="44.63675" lon="3.8157">
        <ele>1249.355</ele>
        <time>2016-06-08T00:19:33Z</time>
      </trkpt>
      <trkpt lat="44.6366" lon="3.81553">
        <ele>1248.869</ele>
        <time>2016-06-08T00:19:13Z</time>
      </trkpt>
      <trkpt lat="44.63655" lon="3.81525">
        <ele>1245.418</ele>
        <time>2016-06-08T00:18:53Z</time>
      </trkpt>
      <trkpt lat="44.63656" lon="3.81481">
        <ele>1241.573</ele>
        <time>2016-06-08T00:18:33Z</time>
      </trkpt>
      <trkpt lat="44.63671" lon="3.81424">
        <ele>1236.924</ele>
        <time>2016-06-08T00:18:13Z</time>
      </trkpt>
      <trkpt lat="44.63702" lon="3.81347">
        <ele>1227.008</ele>
        <time>2016-06-08T00:17:53Z</time>
      </trkpt>
      <trkpt lat="44.63762" lon="3.81265">
        <ele>1216.417</ele>
        <time>2016-06-08T00:17:33Z</time>
      </trkpt>
      <trkpt lat="44.6379" lon="3.8116">
        <ele>1204.825</ele>
        <time>2016-06-08T00:17:13Z</time>
      </trkpt>
      <trkpt lat="44.63836" lon="3.81093">
        <ele>1197.683</ele>
        <time>2016-06-08T00:16:53Z</time>
      </trkpt>
      <trkpt lat="44.63892" lon="3.81073">
        <ele>1198.671</ele>
        <time>2016-06-08T00:16:33Z</time>
      </trkpt>
      <trkpt lat="44.64019" lon="3.81069">
        <ele>1190.249</ele>
        <time>2016-06-08T00:16:13Z</time>
      </trkpt>
      <trkpt lat="44.64058" lon="3.81055">
        <ele>1185.638</ele>
        <time>2016-06-08T00:15:53Z</time>
      </trkpt>
      <trkpt lat="44.64092" lon="3.81031">
        <ele>1177.489</ele>
        <time>2016-06-08T00:15:33Z</time>
      </trkpt>
      <trkpt lat="44.64167" lon="3.81014">
        <ele>1177.053</ele>
        <time>2016-06-08T00:15:13Z</time>
      </trkpt>
      <trkpt lat="44.64277" lon="3.80968">
        <ele>1166.182</ele>
        <time>2016-06-08T00:14:53Z</time>
      </trkpt>
      <trkpt lat="44.64334" lon="3.80967">
        <ele>1160.757</ele>
        <time>2016-06-08T00:14:33Z</time>
      </trkpt>
      <trkpt lat="44.64391" lon="3.80917">
        <ele>1155.578</ele>
        <time>2016-06-08T00:14:13Z</time>
      </trkpt>
      <trkpt lat="44.64426" lon="3.80875">
        <ele>1155.208</ele>
        <time>2016-06-08T00:13:53Z</time>
      </trkpt>
      <trkpt lat="44.64455" lon="3.80785">
        <ele>1147.92</ele>
        <time>2016-06-08T00:13:33Z</time>
      </trkpt>
      <trkpt lat="44.64487" lon="3.8075">
        <ele>1151.3</ele>
        <time>2016-06-08T00:13:13Z</time>
      </trkpt>
      <trkpt lat="44.64491" lon="3.80737">
        <ele>1151.129</ele>
        <time>2016-06-08T00:12:53Z</time>
      </trkpt>
      <trkpt lat="44.64486" lon="3.8067">
        <ele>1146.654</ele>
        <time>2016-06-08T00:12:33Z</time>
      </trkpt>
      <trkpt lat="44.64493" lon="3.80616">
        <ele>1140.392</ele>
        <time>2016-06-08T00:12:13Z</time>
      </trkpt>
      <trkpt lat="44.64501" lon="3.80604">
        <ele>1138.471</ele>
        <time>2016-06-08T00:11:53Z</time>
      </trkpt>
      <trkpt lat="44.64503" lon="3.80561">
        <ele>1134.552</ele>
        <time>2016-06-08T00:11:33Z</time>
      </trkpt>
      <trkpt lat="44.64524" lon="3.80517">
        <ele>1133.466</ele>
        <time>2016-06-08T00:11:13Z</time>
      </trkpt>
      <trkpt lat="44.64583" lon="3.80432">
        <ele>1126.875</ele>
        <time>2016-06-08T00:10:53Z</time>
      </trkpt>
      <trkpt lat="44.64577" lon="3.80401">
        <ele>1123.09</ele>
        <time>2016-06-08T00:10:33Z</time>
      </trkpt>
      <trkpt lat="44.64581" lon="3.80376">
        <ele>1121.421</ele>
        <time>2016-06-08T00:10:13Z</time>
      </trkpt>
      <trkpt lat="44.64613" lon="3.8033">
        <ele>1121.408</ele>
        <time>2016-06-08T00:09:53Z</time>
      </trkpt>
      <trkpt lat="44.64629" lon="3.80323">
        <ele>1122.82</ele>
        <time>2016-06-08T00:09:33Z</time>
      </trkpt>
      <trkpt lat="44.64675" lon="3.80339">
        <ele>1121.5</ele>
        <time>2016-06-08T00:09:13Z</time>
      </trkpt>
      <trkpt lat="44.64713" lon="3.80327">
        <ele>1121.357</ele>
        <time>2016-06-08T00:08:53Z</time>
      </trkpt>
      <trkpt lat="44.6478" lon="3.80325">
        <ele>1119.281</ele>
        <time>2016-06-08T00:08:33Z</time>
      </trkpt>
      <trkpt lat="44.64813" lon="3.80338">
        <ele>1117.829</ele>
        <time>2016-06-08T00:08:13Z</time>
      </trkpt>
      <trkpt lat="44.64861" lon="3.80329">
        <ele>1119.658</ele>
        <time>2016-06-08T00:07:53Z</time>
      </trkpt>
      <trkpt lat="44.64995" lon="3.80325">
        <ele>1131.599</ele>
        <time>2019-03-25T20:24:11Z</time>
      </trkpt>
      <trkpt lat="44.65111" lon="3.80281">
        <ele>1140.053</ele>
        <time>2016-06-08T00:06:53Z</time>
      </trkpt>
      <trkpt lat="44.65208" lon="3.80226">
        <ele>1147.492</ele>
        <time>2016-06-08T00:06:33Z</time>
      </trkpt>
      <trkpt lat="44.65208" lon="3.80226">
        <ele>1147.487</ele>
        <time>2016-06-08T00:06:13Z</time>
      </trkpt>
      <trkpt lat="44.65229" lon="3.80194">
        <ele>1147.578</ele>
        <time>2016-06-08T00:05:53Z</time>
      </trkpt>
      <trkpt lat="44.65234" lon="3.80156">
        <ele>1146.408</ele>
        <time>2016-06-08T00:05:33Z</time>
      </trkpt>
      <trkpt lat="44.65231" lon="3.80115">
        <ele>1148.908</ele>
        <time>2016-06-08T00:05:13Z</time>
      </trkpt>
      <trkpt lat="44.65234" lon="3.8008">
        <ele>1154.126</ele>
        <time>2016-06-08T00:04:53Z</time>
      </trkpt>
      <trkpt lat="44.65296" lon="3.79981">
        <ele>1162.925</ele>
        <time>2016-06-08T00:04:33Z</time>
      </trkpt>
      <trkpt lat="44.65305" lon="3.79938">
        <ele>1167.793</ele>
        <time>2016-06-08T00:04:13Z</time>
      </trkpt>
      <trkpt lat="44.65322" lon="3.79915">
        <ele>1170.291</ele>
        <time>2016-06-08T00:03:53Z</time>
      </trkpt>
      <trkpt lat="44.65362" lon="3.79892">
        <ele>1172.59</ele>
        <time>2016-06-08T00:03:33Z</time>
      </trkpt>
      <trkpt lat="44.65425" lon="3.7983">
        <ele>1182.461</ele>
        <time>2019-03-25T20:20:11Z</time>
      </trkpt>
      <trkpt lat="44.65482" lon="3.79814">
        <ele>1184.295</ele>
        <time>2019-03-25T20:19:51Z</time>
      </trkpt>
      <trkpt lat="44.65629" lon="3.79844">
        <ele>1184.534</ele>
        <time>2019-03-25T20:19:31Z</time>
      </trkpt>
      <trkpt lat="44.65538" lon="3.79645">
        <ele>1191.079</ele>
        <time>2019-03-25T20:19:11Z</time>
      </trkpt>
      <trkpt lat="44.65487" lon="3.7953">
        <ele>1200.34</ele>
        <time>2016-06-08T00:02:13Z</time>
      </trkpt>
      <trkpt lat="44.65489" lon="3.79488">
        <ele>1200.708</ele>
        <time>2016-06-08T00:01:53Z</time>
      </trkpt>
      <trkpt lat="44.65501" lon="3.79391">
        <ele>1208.815</ele>
        <time>2016-06-08T00:01:33Z</time>
      </trkpt>
      <trkpt lat="44.65515" lon="3.79328">
        <ele>1211.605</ele>
        <time>2016-06-08T00:01:13Z</time>
      </trkpt>
      <trkpt lat="44.6552" lon="3.79257">
        <ele>1213.544</ele>
        <time>2016-06-08T00:00:53Z</time>
      </trkpt>
      <trkpt lat="44.65507" lon="3.79201">
        <ele>1217.953</ele>
        <time>2016-06-08T00:00:33Z</time>
      </trkpt>
      <trkpt lat="44.65538" lon="3.78909">
        <ele>1218.921</ele>
        <time>2016-06-08T00:00:13Z</time>
      </trkpt>
      <trkpt lat="44.65563" lon="3.7879">
        <ele>1225.58</ele>
        <time>2016-06-07T23:59:53Z</time>
      </trkpt>
      <trkpt lat="44.65585" lon="3.78589">
        <ele>1235.791</ele>
        <time>2016-06-07T23:59:33Z</time>
      </trkpt>
      <trkpt lat="44.65599" lon="3.78471">
        <ele>1235.375</ele>
        <time>2016-06-07T23:59:13Z</time>
      </trkpt>
      <trkpt lat="44.65602" lon="3.78399">
        <ele>1235.044</ele>
        <time>2016-06-07T23:58:53Z</time>
      </trkpt>
      <trkpt lat="44.65629" lon="3.78306">
        <ele>1232.419</ele>
        <time>2016-06-07T23:58:33Z</time>
      </trkpt>
      <trkpt lat="44.65675" lon="3.78231">
        <ele>1229.52</ele>
        <time>2016-06-07T23:58:13Z</time>
      </trkpt>
      <trkpt lat="44.65716" lon="3.78143">
        <ele>1229.608</ele>
        <time>2016-06-07T23:57:53Z</time>
      </trkpt>
      <trkpt lat="44.65752" lon="3.78096">
        <ele>1226.415</ele>
        <time>2016-06-07T23:57:33Z</time>
      </trkpt>
      <trkpt lat="44.65852" lon="3.77977">
        <ele>1226.705</ele>
        <time>2019-03-25T20:13:51Z</time>
      </trkpt>
      <trkpt lat="44.65946" lon="3.77926">
        <ele>1219.944</ele>
        <time>2019-03-25T20:13:31Z</time>
      </trkpt>
      <trkpt lat="44.65979" lon="3.78051">
        <ele>1222.352</ele>
        <time>2016-06-07T23:56:13Z</time>
      </trkpt>
      <trkpt lat="44.66001" lon="3.78086">
        <ele>1220.93</ele>
        <time>2016-06-07T23:55:53Z</time>
      </trkpt>
      <trkpt lat="44.66038" lon="3.78172">
        <ele>1217.679</ele>
        <time>2016-06-07T23:55:33Z</time>
      </trkpt>
      <trkpt lat="44.66072" lon="3.78269">
        <ele>1220.82</ele>
        <time>2016-06-07T23:55:13Z</time>
      </trkpt>
      <trkpt lat="44.66069" lon="3.78324">
        <ele>1220.534</ele>
        <time>2016-06-07T23:54:53Z</time>
      </trkpt>
      <trkpt lat="44.66097" lon="3.78399">
        <ele>1220.513</ele>
        <time>2016-06-07T23:54:33Z</time>
      </trkpt>
      <trkpt lat="44.66142" lon="3.78431">
        <ele>1217.898</ele>
        <time>2016-06-07T23:54:13Z</time>
      </trkpt>
      <trkpt lat="44.66189" lon="3.7849">
        <ele>1215.159</ele>
        <time>2016-06-07T23:53:53Z</time>
      </trkpt>
      <trkpt lat="44.66297" lon="3.78692">
        <ele>1217.408</ele>
        <time>2016-06-07T23:53:33Z</time>
      </trkpt>
      <trkpt lat="44.66314" lon="3.78746">
        <ele>1217.721</ele>
        <time>2016-06-07T23:53:13Z</time>
      </trkpt>
      <trkpt lat="44.66344" lon="3.78818">
        <ele>1217.001</ele>
        <time>2016-06-07T23:52:53Z</time>
      </trkpt>
      <trkpt lat="44.66412" lon="3.78865">
        <ele>1218.739</ele>
        <time>2016-06-07T23:52:33Z</time>
      </trkpt>
      <trkpt lat="44.66418" lon="3.7888">
        <ele>1218.321</ele>
        <time>2016-06-07T23:52:13Z</time>
      </trkpt>
      <trkpt lat="44.66458" lon="3.78918">
        <ele>1215.359</ele>
        <time>2016-06-07T23:51:53Z</time>
      </trkpt>
      <trkpt lat="44.66501" lon="3.78985">
        <ele>1213.778</ele>
        <time>2016-06-07T23:51:33Z</time>
      </trkpt>
      <trkpt lat="44.66525" lon="3.79035">
        <ele>1212.899</ele>
        <time>2016-06-07T23:51:13Z</time>
      </trkpt>
      <trkpt lat="44.6658" lon="3.7911">
        <ele>1212.763</ele>
        <time>2016-06-07T23:50:53Z</time>
      </trkpt>
      <trkpt lat="44.66591" lon="3.79146">
        <ele>1211.482</ele>
        <time>2016-06-07T23:50:33Z</time>
      </trkpt>
      <trkpt lat="44.66606" lon="3.79173">
        <ele>1212.027</ele>
        <time>2016-06-07T23:50:13Z</time>
      </trkpt>
      <trkpt lat="44.66616" lon="3.792">
        <ele>1211.568</ele>
        <time>2016-06-07T23:49:53Z</time>
      </trkpt>
      <trkpt lat="44.66648" lon="3.79238">
        <ele>1208.908</ele>
        <time>2016-06-07T23:49:33Z</time>
      </trkpt>
      <trkpt lat="44.66672" lon="3.79278">
        <ele>1204.208</ele>
        <time>2016-06-07T23:49:13Z</time>
      </trkpt>
      <trkpt lat="44.66716" lon="3.79324">
        <ele>1197.862</ele>
        <time>2016-06-07T23:48:53Z</time>
      </trkpt>
      <trkpt lat="44.6675" lon="3.79347">
        <ele>1194.022</ele>
        <time>2016-06-07T23:48:33Z</time>
      </trkpt>
      <trkpt lat="44.66805" lon="3.79394">
        <ele>1185.368</ele>
        <time>2016-06-07T23:48:13Z</time>
      </trkpt>
      <trkpt lat="44.66906" lon="3.79558">
        <ele>1172.446</ele>
        <time>2016-06-07T23:47:53Z</time>
      </trkpt>
      <trkpt lat="44.66922" lon="3.79593">
        <ele>1171.665</ele>
        <time>2016-06-07T23:47:33Z</time>
      </trkpt>
      <trkpt lat="44.67013" lon="3.79704">
        <ele>1169.296</ele>
        <time>2016-06-07T23:47:13Z</time>
      </trkpt>
      <trkpt lat="44.67086" lon="3.79775">
        <ele>1170.95</ele>
        <time>2016-06-07T23:46:53Z</time>
      </trkpt>
      <trkpt lat="44.67186" lon="3.79848">
        <ele>1171.779</ele>
        <time>2016-06-07T23:46:33Z</time>
      </trkpt>
      <trkpt lat="44.67302" lon="3.79909">
        <ele>1173.374</ele>
        <time>2016-06-07T23:46:13Z</time>
      </trkpt>
      <trkpt lat="44.67374" lon="3.79934">
        <ele>1177.075</ele>
        <time>2016-06-07T23:45:53Z</time>
      </trkpt>
      <trkpt lat="44.67412" lon="3.79957">
        <ele>1175.108</ele>
        <time>2016-06-07T23:45:33Z</time>
      </trkpt>
      <trkpt lat="44.6746" lon="3.80028">
        <ele>1178.522</ele>
        <time>2016-06-07T23:45:13Z</time>
      </trkpt>
      <trkpt lat="44.67475" lon="3.80081">
        <ele>1177.857</ele>
        <time>2016-06-07T23:44:53Z</time>
      </trkpt>
      <trkpt lat="44.67492" lon="3.80117">
        <ele>1176.094</ele>
        <time>2016-06-07T23:44:33Z</time>
      </trkpt>
      <trkpt lat="44.67535" lon="3.8016">
        <ele>1175.572</ele>
        <time>2016-06-07T23:44:13Z</time>
      </trkpt>
      <trkpt lat="44.67568" lon="3.80214">
        <ele>1171.59</ele>
        <time>2016-06-07T23:43:53Z</time>
      </trkpt>
      <trkpt lat="44.67596" lon="3.80291">
        <ele>1167.689</ele>
        <time>2016-06-07T23:43:33Z</time>
      </trkpt>
      <trkpt lat="44.67641" lon="3.80365">
        <ele>1164.04</ele>
        <time>2016-06-07T23:43:13Z</time>
      </trkpt>
      <trkpt lat="44.67666" lon="3.80393">
        <ele>1162.754</ele>
        <time>2016-06-07T23:42:53Z</time>
      </trkpt>
      <trkpt lat="44.67671" lon="3.80426">
        <ele>1159.993</ele>
        <time>2016-06-07T23:42:33Z</time>
      </trkpt>
      <trkpt lat="44.67714" lon="3.80446">
        <ele>1157.238</ele>
        <time>2016-06-07T23:42:13Z</time>
      </trkpt>
      <trkpt lat="44.67741" lon="3.80468">
        <ele>1155.339</ele>
        <time>2016-06-07T23:41:53Z</time>
      </trkpt>
      <trkpt lat="44.67772" lon="3.80518">
        <ele>1154.908</ele>
        <time>2016-06-07T23:41:33Z</time>
      </trkpt>
      <trkpt lat="44.67807" lon="3.80613">
        <ele>1155.921</ele>
        <time>2016-06-07T23:41:13Z</time>
      </trkpt>
      <trkpt lat="44.67814" lon="3.80693">
        <ele>1153.101</ele>
        <time>2016-06-07T23:40:53Z</time>
      </trkpt>
      <trkpt lat="44.67831" lon="3.80753">
        <ele>1149.739</ele>
        <time>2016-06-07T23:40:33Z</time>
      </trkpt>
      <trkpt lat="44.67864" lon="3.80817">
        <ele>1142.682</ele>
        <time>2016-06-07T23:40:13Z</time>
      </trkpt>
      <trkpt lat="44.67917" lon="3.80863">
        <ele>1140.08</ele>
        <time>2016-06-07T23:39:53Z</time>
      </trkpt>
      <trkpt lat="44.67976" lon="3.80927">
        <ele>1141.199</ele>
        <time>2016-06-07T23:39:33Z</time>
      </trkpt>
      <trkpt lat="44.67958" lon="3.80965">
        <ele>1139.68</ele>
        <time>2016-06-07T23:39:13Z</time>
      </trkpt>
      <trkpt lat="44.67921" lon="3.81012">
        <ele>1138.534</ele>
        <time>2016-06-07T23:38:53Z</time>
      </trkpt>
      <trkpt lat="44.67926" lon="3.81039">
        <ele>1139.323</ele>
        <time>2016-06-07T23:38:33Z</time>
      </trkpt>
      <trkpt lat="44.67933" lon="3.81055">
        <ele>1139.438</ele>
        <time>2016-06-07T23:38:13Z</time>
      </trkpt>
      <trkpt lat="44.67938" lon="3.81084">
        <ele>1139.339</ele>
        <time>2016-06-07T23:37:53Z</time>
      </trkpt>
      <trkpt lat="44.67955" lon="3.81116">
        <ele>1139.408</ele>
        <time>2016-06-07T23:37:33Z</time>
      </trkpt>
      <trkpt lat="44.67971" lon="3.81165">
        <ele>1141.014</ele>
        <time>2016-06-07T23:37:13Z</time>
      </trkpt>
      <trkpt lat="44.67984" lon="3.81221">
        <ele>1142.286</ele>
        <time>2016-06-07T23:36:53Z</time>
      </trkpt>
      <trkpt lat="44.67988" lon="3.81259">
        <ele>1140.635</ele>
        <time>2016-06-07T23:36:33Z</time>
      </trkpt>
      <trkpt lat="44.68015" lon="3.81352">
        <ele>1136.427</ele>
        <time>2016-06-07T23:36:13Z</time>
      </trkpt>
      <trkpt lat="44.68016" lon="3.8152">
        <ele>1139.795</ele>
        <time>2016-06-07T23:35:53Z</time>
      </trkpt>
      <trkpt lat="44.68035" lon="3.81565">
        <ele>1142.574</ele>
        <time>2016-06-07T23:35:33Z</time>
      </trkpt>
      <trkpt lat="44.68042" lon="3.81601">
        <ele>1143.025</ele>
        <time>2016-06-07T23:35:13Z</time>
      </trkpt>
      <trkpt lat="44.68041" lon="3.81624">
        <ele>1142.979</ele>
        <time>2016-06-07T23:34:53Z</time>
      </trkpt>
      <trkpt lat="44.6805" lon="3.81636">
        <ele>1143.698</ele>
        <time>2016-06-07T23:34:33Z</time>
      </trkpt>
      <trkpt lat="44.68052" lon="3.81664">
        <ele>1143.033</ele>
        <time>2016-06-07T23:34:13Z</time>
      </trkpt>
      <trkpt lat="44.68127" lon="3.81864">
        <ele>1135.654</ele>
        <time>2016-06-07T23:33:53Z</time>
      </trkpt>
      <trkpt lat="44.68158" lon="3.81866">
        <ele>1135.908</ele>
        <time>2016-06-07T23:33:33Z</time>
      </trkpt>
      <trkpt lat="44.68161" lon="3.81864">
        <ele>1136.417</ele>
        <time>2019-03-25T19:50:11Z</time>
      </trkpt>
      <trkpt lat="44.68211" lon="3.8186">
        <ele>1137.107</ele>
        <time>2019-03-25T19:49:51Z</time>
      </trkpt>
      <trkpt lat="44.68192" lon="3.81921">
        <ele>1129.984</ele>
        <time>2019-03-25T19:49:31Z</time>
      </trkpt>
      <trkpt lat="44.68192" lon="3.82029">
        <ele>1128.716</ele>
        <time>2019-03-25T19:49:11Z</time>
      </trkpt>
      <trkpt lat="44.68204" lon="3.8213">
        <ele>1121.034</ele>
        <time>2019-03-25T19:48:51Z</time>
      </trkpt>
      <trkpt lat="44.68229" lon="3.82176">
        <ele>1115.413</ele>
        <time>2019-03-25T19:48:31Z</time>
      </trkpt>
      <trkpt lat="44.68287" lon="3.82204">
        <ele>1110.334</ele>
        <time>2019-03-25T19:48:11Z</time>
      </trkpt>
      <trkpt lat="44.68348" lon="3.82251">
        <ele>1099.598</ele>
        <time>2019-03-25T19:47:51Z</time>
      </trkpt>
      <trkpt lat="44.68358" lon="3.82322">
        <ele>1089.727</ele>
        <time>2019-03-25T19:47:31Z</time>
      </trkpt>
      <trkpt lat="44.68397" lon="3.82407">
        <ele>1083.032</ele>
        <time>2019-03-25T19:47:11Z</time>
      </trkpt>
      <trkpt lat="44.68451" lon="3.82491">
        <ele>1067.563</ele>
        <time>2019-03-25T19:46:51Z</time>
      </trkpt>
      <trkpt lat="44.68494" lon="3.82516">
        <ele>1067.708</ele>
        <time>2019-03-25T19:46:31Z</time>
      </trkpt>
      <trkpt lat="44.68517" lon="3.82535">
        <ele>1065.613</ele>
        <time>2019-03-25T19:46:11Z</time>
      </trkpt>
      <trkpt lat="44.68522" lon="3.82571">
        <ele>1061.585</ele>
        <time>2019-03-25T19:45:51Z</time>
      </trkpt>
      <trkpt lat="44.68539" lon="3.82625">
        <ele>1058.273</ele>
        <time>2019-03-25T19:45:31Z</time>
      </trkpt>
      <trkpt lat="44.68657" lon="3.82641">
        <ele>1056.862</ele>
        <time>2019-03-25T19:45:11Z</time>
      </trkpt>
      <trkpt lat="44.688" lon="3.8258">
        <ele>1064.36</ele>
        <time>2019-03-25T19:44:51Z</time>
      </trkpt>
      <trkpt lat="44.68898" lon="3.82512">
        <ele>1070.659</ele>
        <time>2019-03-25T19:44:31Z</time>
      </trkpt>
      <trkpt lat="44.69087" lon="3.82238">
        <ele>1050.78</ele>
        <time>2019-03-25T19:44:11Z</time>
      </trkpt>
      <trkpt lat="44.69261" lon="3.82257">
        <ele>1044.324</ele>
        <time>2016-06-07T23:25:13Z</time>
      </trkpt>
      <trkpt lat="44.69283" lon="3.8228">
        <ele>1044.033</ele>
        <time>2016-06-07T23:24:53Z</time>
      </trkpt>
      <trkpt lat="44.69317" lon="3.8235">
        <ele>1045.518</ele>
        <time>2016-06-07T23:24:33Z</time>
      </trkpt>
      <trkpt lat="44.69384" lon="3.82454">
        <ele>1048.669</ele>
        <time>2016-06-07T23:24:13Z</time>
      </trkpt>
      <trkpt lat="44.69427" lon="3.82483">
        <ele>1050.208</ele>
        <time>2016-06-07T23:23:53Z</time>
      </trkpt>
      <trkpt lat="44.69466" lon="3.82516">
        <ele>1050.414</ele>
        <time>2016-06-07T23:23:33Z</time>
      </trkpt>
      <trkpt lat="44.69582" lon="3.82573">
        <ele>1050.386</ele>
        <time>2016-06-07T23:23:13Z</time>
      </trkpt>
      <trkpt lat="44.69592" lon="3.82621">
        <ele>1047.635</ele>
        <time>2016-06-07T23:22:53Z</time>
      </trkpt>
      <trkpt lat="44.69585" lon="3.82715">
        <ele>1043.398</ele>
        <time>2016-06-07T23:22:33Z</time>
      </trkpt>
      <trkpt lat="44.69596" lon="3.82855">
        <ele>1036.376</ele>
        <time>2016-06-07T23:22:13Z</time>
      </trkpt>
      <trkpt lat="44.69613" lon="3.82938">
        <ele>1033.515</ele>
        <time>2016-06-07T23:21:53Z</time>
      </trkpt>
      <trkpt lat="44.6961" lon="3.83017">
        <ele>1024.926</ele>
        <time>2016-06-07T23:21:33Z</time>
      </trkpt>
      <trkpt lat="44.69651" lon="3.83121">
        <ele>1015.84</ele>
        <time>2016-06-07T23:21:13Z</time>
      </trkpt>
      <trkpt lat="44.69711" lon="3.8322">
        <ele>1005.019</ele>
        <time>2016-06-07T23:20:53Z</time>
      </trkpt>
      <trkpt lat="44.69754" lon="3.83346">
        <ele>993.314</ele>
        <time>2016-06-07T23:20:33Z</time>
      </trkpt>
      <trkpt lat="44.69779" lon="3.83457">
        <ele>974.435</ele>
        <time>2016-06-07T23:20:13Z</time>
      </trkpt>
      <trkpt lat="44.69772" lon="3.83467">
        <ele>971.908</ele>
        <time>2016-06-07T23:19:53Z</time>
      </trkpt>
      <trkpt lat="44.69733" lon="3.83438">
        <ele>970.325</ele>
        <time>2016-06-07T23:19:33Z</time>
      </trkpt>
      <trkpt lat="44.69654" lon="3.83426">
        <ele>958.423</ele>
        <time>2016-06-07T23:19:13Z</time>
      </trkpt>
      <trkpt lat="44.6958" lon="3.83441">
        <ele>961.597</ele>
        <time>2016-06-07T23:18:53Z</time>
      </trkpt>
      <trkpt lat="44.69621" lon="3.83574">
        <ele>960.334</ele>
        <time>2016-06-07T23:18:33Z</time>
      </trkpt>
      <trkpt lat="44.69645" lon="3.83622">
        <ele>962.842</ele>
        <time>2016-06-07T23:18:13Z</time>
      </trkpt>
      <trkpt lat="44.69677" lon="3.83642">
        <ele>958.511</ele>
        <time>2016-06-07T23:17:53Z</time>
      </trkpt>
      <trkpt lat="44.69686" lon="3.83655">
        <ele>958.062</ele>
        <time>2016-06-07T23:17:33Z</time>
      </trkpt>
      <trkpt lat="44.69676" lon="3.83676">
        <ele>962.286</ele>
        <time>2016-06-07T23:17:13Z</time>
      </trkpt>
      <trkpt lat="44.69654" lon="3.83703">
        <ele>966.925</ele>
        <time>2016-06-07T23:16:53Z</time>
      </trkpt>
      <trkpt lat="44.69649" lon="3.83726">
        <ele>966.25</ele>
        <time>2016-06-07T23:16:33Z</time>
      </trkpt>
      <trkpt lat="44.69661" lon="3.83752">
        <ele>966.391</ele>
        <time>2016-06-07T23:16:13Z</time>
      </trkpt>
      <trkpt lat="44.69714" lon="3.83781">
        <ele>971.408</ele>
        <time>2016-06-07T23:15:53Z</time>
      </trkpt>
      <trkpt lat="44.6974" lon="3.83901">
        <ele>990.608</ele>
        <time>2019-03-25T19:34:11Z</time>
      </trkpt>
      <trkpt lat="44.69847" lon="3.8405">
        <ele>1005.253</ele>
        <time>2016-06-07T23:12:33Z</time>
      </trkpt>
      <trkpt lat="44.69876" lon="3.84065">
        <ele>1007.552</ele>
        <time>2016-06-07T23:12:13Z</time>
      </trkpt>
      <trkpt lat="44.69921" lon="3.84068">
        <ele>1012.951</ele>
        <time>2016-06-07T23:11:53Z</time>
      </trkpt>
      <trkpt lat="44.6994" lon="3.84093">
        <ele>1014.879</ele>
        <time>2016-06-07T23:11:33Z</time>
      </trkpt>
      <trkpt lat="44.69958" lon="3.84129">
        <ele>1014.778</ele>
        <time>2016-06-07T23:11:13Z</time>
      </trkpt>
      <trkpt lat="44.69985" lon="3.8415">
        <ele>1013.699</ele>
        <time>2016-06-07T23:10:53Z</time>
      </trkpt>
      <trkpt lat="44.69962" lon="3.84156">
        <ele>1014.073</ele>
        <time>2016-06-07T23:10:33Z</time>
      </trkpt>
      <trkpt lat="44.69944" lon="3.8418">
        <ele>1015.532</ele>
        <time>2016-06-07T23:10:13Z</time>
      </trkpt>
      <trkpt lat="44.69934" lon="3.84222">
        <ele>1018.497</ele>
        <time>2016-06-07T23:09:53Z</time>
      </trkpt>
      <trkpt lat="44.69946" lon="3.84292">
        <ele>1016.828</ele>
        <time>2016-06-07T23:09:33Z</time>
      </trkpt>
      <trkpt lat="44.69937" lon="3.84344">
        <ele>1014.908</ele>
        <time>2016-06-07T23:09:13Z</time>
      </trkpt>
      <trkpt lat="44.699" lon="3.84441">
        <ele>1012.12</ele>
        <time>2016-06-07T23:08:53Z</time>
      </trkpt>
      <trkpt lat="44.69895" lon="3.84481">
        <ele>1008.6</ele>
        <time>2016-06-07T23:08:33Z</time>
      </trkpt>
      <trkpt lat="44.69861" lon="3.84581">
        <ele>1013.929</ele>
        <time>2016-06-07T23:08:13Z</time>
      </trkpt>
      <trkpt lat="44.69876" lon="3.84652">
        <ele>1017.196</ele>
        <time>2016-06-07T23:07:53Z</time>
      </trkpt>
      <trkpt lat="44.69879" lon="3.84737">
        <ele>1020.994</ele>
        <time>2016-06-07T23:07:33Z</time>
      </trkpt>
      <trkpt lat="44.6985" lon="3.84908">
        <ele>1023.853</ele>
        <time>2016-06-07T23:07:13Z</time>
      </trkpt>
      <trkpt lat="44.6982" lon="3.85006">
        <ele>1026.794</ele>
        <time>2016-06-07T23:06:53Z</time>
      </trkpt>
      <trkpt lat="44.69807" lon="3.85085">
        <ele>1028.098</ele>
        <time>2016-06-07T23:06:33Z</time>
      </trkpt>
      <trkpt lat="44.69793" lon="3.85133">
        <ele>1027.867</ele>
        <time>2016-06-07T23:06:13Z</time>
      </trkpt>
      <trkpt lat="44.69748" lon="3.85157">
        <ele>1030.192</ele>
        <time>2016-06-07T23:05:53Z</time>
      </trkpt>
      <trkpt lat="44.69681" lon="3.85222">
        <ele>1033.943</ele>
        <time>2016-06-07T23:05:33Z</time>
      </trkpt>
      <trkpt lat="44.69659" lon="3.85271">
        <ele>1037.308</ele>
        <time>2016-06-07T23:05:13Z</time>
      </trkpt>
      <trkpt lat="44.6963" lon="3.85328">
        <ele>1035.019</ele>
        <time>2016-06-07T23:04:53Z</time>
      </trkpt>
      <trkpt lat="44.69684" lon="3.85407">
        <ele>1030.19</ele>
        <time>2016-06-07T23:04:33Z</time>
      </trkpt>
      <trkpt lat="44.69725" lon="3.85496">
        <ele>1027.076</ele>
        <time>2016-06-07T23:04:13Z</time>
      </trkpt>
      <trkpt lat="44.69754" lon="3.85586">
        <ele>1021.695</ele>
        <time>2016-06-07T23:03:53Z</time>
      </trkpt>
      <trkpt lat="44.69796" lon="3.8564">
        <ele>1015.043</ele>
        <time>2016-06-07T23:03:33Z</time>
      </trkpt>
      <trkpt lat="44.69849" lon="3.85711">
        <ele>1010.272</ele>
        <time>2016-06-07T23:03:13Z</time>
      </trkpt>
      <trkpt lat="44.69881" lon="3.85772">
        <ele>1008.693</ele>
        <time>2016-06-07T23:02:53Z</time>
      </trkpt>
      <trkpt lat="44.69921" lon="3.85818">
        <ele>1005.877</ele>
        <time>2016-06-07T23:02:33Z</time>
      </trkpt>
      <trkpt lat="44.70005" lon="3.85793">
        <ele>1004.076</ele>
        <time>2016-06-07T23:02:13Z</time>
      </trkpt>
      <trkpt lat="44.70104" lon="3.85775">
        <ele>1000.291</ele>
        <time>2016-06-07T23:01:53Z</time>
      </trkpt>
      <trkpt lat="44.70353" lon="3.85681">
        <ele>984.882</ele>
        <time>2016-06-07T23:01:33Z</time>
      </trkpt>
      <trkpt lat="44.70422" lon="3.85675">
        <ele>979.308</ele>
        <time>2016-06-07T23:01:13Z</time>
      </trkpt>
      <trkpt lat="44.70456" lon="3.85679">
        <ele>974.721</ele>
        <time>2016-06-07T23:00:53Z</time>
      </trkpt>
      <trkpt lat="44.70535" lon="3.85663">
        <ele>972.229</ele>
        <time>2016-06-07T23:00:33Z</time>
      </trkpt>
      <trkpt lat="44.70591" lon="3.85645">
        <ele>973.866</ele>
        <time>2016-06-07T23:00:13Z</time>
      </trkpt>
      <trkpt lat="44.70612" lon="3.85645">
        <ele>974.164</ele>
        <time>2016-06-07T22:59:53Z</time>
      </trkpt>
      <trkpt lat="44.70662" lon="3.85685">
        <ele>977.452</ele>
        <time>2016-06-07T22:59:33Z</time>
      </trkpt>
      <trkpt lat="44.70721" lon="3.85696">
        <ele>980.931</ele>
        <time>2016-06-07T22:59:13Z</time>
      </trkpt>
      <trkpt lat="44.70799" lon="3.85688">
        <ele>978.112</ele>
        <time>2016-06-07T22:58:53Z</time>
      </trkpt>
      <trkpt lat="44.71008" lon="3.85639">
        <ele>970.036</ele>
        <time>2016-06-07T22:58:33Z</time>
      </trkpt>
      <trkpt lat="44.71146" lon="3.85649">
        <ele>971.295</ele>
        <time>2016-06-07T22:58:13Z</time>
      </trkpt>
      <trkpt lat="44.71214" lon="3.85667">
        <ele>969.97</ele>
        <time>2016-06-07T22:57:53Z</time>
      </trkpt>
      <trkpt lat="44.71406" lon="3.85656">
        <ele>960.081</ele>
        <time>2016-06-07T22:57:33Z</time>
      </trkpt>
      <trkpt lat="44.71445" lon="3.85643">
        <ele>960.708</ele>
        <time>2016-06-07T22:57:13Z</time>
      </trkpt>
      <trkpt lat="44.7155" lon="3.85629">
        <ele>962.517</ele>
        <time>2016-06-07T22:56:53Z</time>
      </trkpt>
      <trkpt lat="44.71652" lon="3.85598">
        <ele>961.652</ele>
        <time>2016-06-07T22:56:33Z</time>
      </trkpt>
      <trkpt lat="44.71726" lon="3.85599">
        <ele>956.658</ele>
        <time>2016-06-07T22:56:13Z</time>
      </trkpt>
      <trkpt lat="44.71886" lon="3.85614">
        <ele>949.155</ele>
        <time>2016-06-07T22:55:53Z</time>
      </trkpt>
      <trkpt lat="44.7198" lon="3.8558">
        <ele>943.473</ele>
        <time>2016-06-07T22:55:33Z</time>
      </trkpt>
      <trkpt lat="44.72078" lon="3.85586">
        <ele>942.262</ele>
        <time>2016-06-07T22:55:13Z</time>
      </trkpt>
      <trkpt lat="44.72151" lon="3.85558">
        <ele>937.283</ele>
        <time>2016-06-07T22:54:53Z</time>
      </trkpt>
      <trkpt lat="44.7221" lon="3.8555">
        <ele>931.847</ele>
        <time>2016-06-07T22:54:33Z</time>
      </trkpt>
      <trkpt lat="44.72245" lon="3.85562">
        <ele>927.656</ele>
        <time>2016-06-07T22:54:13Z</time>
      </trkpt>
      <trkpt lat="44.72278" lon="3.85597">
        <ele>924.531</ele>
        <time>2016-06-07T22:53:53Z</time>
      </trkpt>
      <trkpt lat="44.723" lon="3.85627">
        <ele>926.712</ele>
        <time>2016-06-07T22:53:33Z</time>
      </trkpt>
      <trkpt lat="44.72437" lon="3.85599">
        <ele>915.908</ele>
        <time>2016-06-07T22:53:13Z</time>
      </trkpt>
      <trkpt lat="44.72476" lon="3.85634">
        <ele>916.014</ele>
        <time>2016-06-07T22:52:53Z</time>
      </trkpt>
      <trkpt lat="44.72486" lon="3.85656">
        <ele>916.168</ele>
        <time>2016-06-07T22:52:33Z</time>
      </trkpt>
      <trkpt lat="44.72519" lon="3.85638">
        <ele>910.965</ele>
        <time>2016-06-07T22:52:13Z</time>
      </trkpt>
      <trkpt lat="44.72534" lon="3.85653">
        <ele>910.01</ele>
        <time>2016-06-07T22:51:53Z</time>
      </trkpt>
      <trkpt lat="44.72546" lon="3.85641">
        <ele>910.048</ele>
        <time>2016-06-07T22:51:33Z</time>
      </trkpt>
      <trkpt lat="44.72567" lon="3.85633">
        <ele>910.167</ele>
        <time>2016-06-07T22:51:13Z</time>
      </trkpt>
      <trkpt lat="44.72626" lon="3.85563">
        <ele>912.758</ele>
        <time>2016-06-07T22:50:53Z</time>
      </trkpt>
      <trkpt lat="44.72614" lon="3.85515">
        <ele>915.352</ele>
        <time>2021-02-02T16:12:52Z</time>
      </trkpt>
      <trkpt lat="44.72658" lon="3.85472">
        <ele>920.051</ele>
        <time>2021-02-02T16:12:32Z</time>
      </trkpt>
      <trkpt lat="44.72681" lon="3.85464">
        <ele>921.436</ele>
        <time>2021-02-02T16:12:12Z</time>
      </trkpt>
      <trkpt lat="44.72734" lon="3.85514">
        <ele>918.057</ele>
        <time>2021-02-02T16:11:52Z</time>
      </trkpt>
      <trkpt lat="44.72738" lon="3.85548">
        <ele>914.808</ele>
        <time>2016-06-07T22:49:13Z</time>
      </trkpt>
      <trkpt lat="44.72859" lon="3.85584">
        <ele>914.811</ele>
        <time>2016-06-07T22:48:53Z</time>
      </trkpt>
      <trkpt lat="44.72957" lon="3.8567">
        <ele>908.265</ele>
        <time>2019-03-25T19:09:51Z</time>
      </trkpt>
      <trkpt lat="44.73033" lon="3.85689">
        <ele>909.615</ele>
        <time>2019-03-25T19:09:31Z</time>
      </trkpt>
      <trkpt lat="44.73106" lon="3.8579">
        <ele>906.841</ele>
        <time>2019-03-25T19:09:11Z</time>
      </trkpt>
      <trkpt lat="44.73162" lon="3.85834">
        <ele>908.659</ele>
        <time>2019-03-25T19:08:51Z</time>
      </trkpt>
      <trkpt lat="44.7322" lon="3.85846">
        <ele>904.858</ele>
        <time>2019-03-25T19:08:31Z</time>
      </trkpt>
      <trkpt lat="44.73292" lon="3.85832">
        <ele>906.189</ele>
        <time>2019-03-25T19:08:11Z</time>
      </trkpt>
      <trkpt lat="44.73347" lon="3.85752">
        <ele>907.043</ele>
        <time>2019-03-25T19:07:51Z</time>
      </trkpt>
      <trkpt lat="44.73388" lon="3.85719">
        <ele>904.492</ele>
        <time>2019-03-25T19:07:31Z</time>
      </trkpt>
      <trkpt lat="44.73439" lon="3.85712">
        <ele>902.337</ele>
        <time>2016-06-07T22:43:33Z</time>
      </trkpt>
      <trkpt lat="44.73465" lon="3.85733">
        <ele>900.668</ele>
        <time>2016-06-07T22:43:13Z</time>
      </trkpt>
      <trkpt lat="44.73514" lon="3.85836">
        <ele>905.308</ele>
        <time>2016-06-07T22:42:53Z</time>
      </trkpt>
      <trkpt lat="44.7355" lon="3.85845">
        <ele>907.32</ele>
        <time>2016-06-07T22:42:33Z</time>
      </trkpt>
      <trkpt lat="44.73653" lon="3.85761">
        <ele>906</ele>
        <time>2016-06-07T22:42:13Z</time>
      </trkpt>
      <trkpt lat="44.73697" lon="3.85765">
        <ele>905.529</ele>
        <time>2016-06-07T22:41:53Z</time>
      </trkpt>
      <trkpt lat="44.73721" lon="3.85697">
        <ele>903.972</ele>
        <time>2016-06-07T22:41:33Z</time>
      </trkpt>
      <trkpt lat="44.73882" lon="3.85744">
        <ele>917.34</ele>
        <time>2016-06-07T22:41:13Z</time>
      </trkpt>
      <trkpt lat="44.73904" lon="3.85739">
        <ele>920.599</ele>
        <time>2016-06-07T22:40:53Z</time>
      </trkpt>
      <trkpt lat="44.73957" lon="3.85686">
        <ele>932.04</ele>
        <time>2016-06-07T22:40:33Z</time>
      </trkpt>
      <trkpt lat="44.7402" lon="3.85652">
        <ele>939.824</ele>
        <time>2016-06-07T22:40:13Z</time>
      </trkpt>
      <trkpt lat="44.7404" lon="3.85656">
        <ele>941.943</ele>
        <time>2016-06-07T22:39:53Z</time>
      </trkpt>
      <trkpt lat="44.74086" lon="3.85698">
        <ele>948.088</ele>
        <time>2016-06-07T22:39:33Z</time>
      </trkpt>
      <trkpt lat="44.74137" lon="3.85723">
        <ele>954.529</ele>
        <time>2016-06-07T22:39:13Z</time>
      </trkpt>
      <trkpt lat="44.74167" lon="3.85756">
        <ele>956.808</ele>
        <time>2016-06-07T22:38:53Z</time>
      </trkpt>
      <trkpt lat="44.7418" lon="3.85789">
        <ele>958.107</ele>
        <time>2016-06-07T22:38:33Z</time>
      </trkpt>
      <trkpt lat="44.74182" lon="3.85846">
        <ele>960.061</ele>
        <time>2016-06-07T22:38:13Z</time>
      </trkpt>
      <trkpt lat="44.742" lon="3.85904">
        <ele>961.831</ele>
        <time>2016-06-07T22:37:53Z</time>
      </trkpt>
      <trkpt lat="44.74229" lon="3.85942">
        <ele>965.741</ele>
        <time>2016-06-07T22:37:33Z</time>
      </trkpt>
      <trkpt lat="44.74271" lon="3.85969">
        <ele>969.719</ele>
        <time>2016-06-07T22:37:13Z</time>
      </trkpt>
      <trkpt lat="44.74414" lon="3.86013">
        <ele>968.568</ele>
        <time>2016-06-07T22:36:53Z</time>
      </trkpt>
      <trkpt lat="44.7445" lon="3.86013">
        <ele>969.559</ele>
        <time>2016-06-07T22:36:33Z</time>
      </trkpt>
      <trkpt lat="44.74478" lon="3.85998">
        <ele>969.873</ele>
        <time>2016-06-07T22:36:13Z</time>
      </trkpt>
      <trkpt lat="44.74529" lon="3.85947">
        <ele>973.742</ele>
        <time>2016-06-07T22:35:53Z</time>
      </trkpt>
      <trkpt lat="44.74551" lon="3.85935">
        <ele>974.737</ele>
        <time>2016-06-07T22:35:33Z</time>
      </trkpt>
      <trkpt lat="44.74573" lon="3.85942">
        <ele>975.398</ele>
        <time>2016-06-07T22:35:13Z</time>
      </trkpt>
      <trkpt lat="44.74712" lon="3.86051">
        <ele>986.008</ele>
        <time>2016-06-07T22:34:53Z</time>
      </trkpt>
      <trkpt lat="44.74751" lon="3.86097">
        <ele>991.608</ele>
        <time>2016-06-07T22:34:33Z</time>
      </trkpt>
      <trkpt lat="44.74805" lon="3.86136">
        <ele>997.826</ele>
        <time>2016-06-07T22:34:13Z</time>
      </trkpt>
      <trkpt lat="44.74875" lon="3.86169">
        <ele>1004.125</ele>
        <time>2016-06-07T22:33:53Z</time>
      </trkpt>
      <trkpt lat="44.74973" lon="3.86205">
        <ele>1008.156</ele>
        <time>2016-06-07T22:33:33Z</time>
      </trkpt>
      <trkpt lat="44.75108" lon="3.86364">
        <ele>1008.164</ele>
        <time>2016-06-07T22:33:13Z</time>
      </trkpt>
      <trkpt lat="44.75155" lon="3.86479">
        <ele>1016.263</ele>
        <time>2016-06-07T22:32:53Z</time>
      </trkpt>
      <trkpt lat="44.75214" lon="3.86587">
        <ele>1014.544</ele>
        <time>2016-06-07T22:32:33Z</time>
      </trkpt>
      <trkpt lat="44.7531" lon="3.86723">
        <ele>1010.858</ele>
        <time>2016-06-07T22:32:13Z</time>
      </trkpt>
      <trkpt lat="44.75397" lon="3.86796">
        <ele>1008.597</ele>
        <time>2016-06-07T22:31:53Z</time>
      </trkpt>
      <trkpt lat="44.75454" lon="3.86873">
        <ele>1011.322</ele>
        <time>2016-06-07T22:31:33Z</time>
      </trkpt>
      <trkpt lat="44.755" lon="3.86955">
        <ele>1014.453</ele>
        <time>2016-06-07T22:31:13Z</time>
      </trkpt>
      <trkpt lat="44.75522" lon="3.87033">
        <ele>1015.008</ele>
        <time>2016-06-07T22:30:53Z</time>
      </trkpt>
      <trkpt lat="44.75628" lon="3.87188">
        <ele>1021.126</ele>
        <time>2016-06-07T22:30:33Z</time>
      </trkpt>
      <trkpt lat="44.75669" lon="3.87236">
        <ele>1024.433</ele>
        <time>2016-06-07T22:30:13Z</time>
      </trkpt>
      <trkpt lat="44.7585" lon="3.87369">
        <ele>1038.278</ele>
        <time>2016-06-07T22:29:53Z</time>
      </trkpt>
      <trkpt lat="44.75964" lon="3.87468">
        <ele>1050.13</ele>
        <time>2016-06-07T22:29:33Z</time>
      </trkpt>
      <trkpt lat="44.75986" lon="3.87507">
        <ele>1053.958</ele>
        <time>2016-06-07T22:29:13Z</time>
      </trkpt>
      <trkpt lat="44.76024" lon="3.87657">
        <ele>1063.147</ele>
        <time>2016-06-07T22:28:53Z</time>
      </trkpt>
      <trkpt lat="44.76081" lon="3.87761">
        <ele>1064.438</ele>
        <time>2016-06-07T22:28:33Z</time>
      </trkpt>
      <trkpt lat="44.76121" lon="3.87848">
        <ele>1070.642</ele>
        <time>2016-06-07T22:28:13Z</time>
      </trkpt>
      <trkpt lat="44.76131" lon="3.87889">
        <ele>1076.191</ele>
        <time>2016-06-07T22:27:53Z</time>
      </trkpt>
      <trkpt lat="44.76154" lon="3.8794">
        <ele>1080.016</ele>
        <time>2016-06-07T22:27:33Z</time>
      </trkpt>
      <trkpt lat="44.76168" lon="3.87984">
        <ele>1082.687</ele>
        <time>2016-06-07T22:27:13Z</time>
      </trkpt>
      <trkpt lat="44.76189" lon="3.88016">
        <ele>1084.808</ele>
        <time>2016-06-07T22:26:53Z</time>
      </trkpt>
      <trkpt lat="44.76328" lon="3.88143">
        <ele>1096.213</ele>
        <time>2016-06-07T22:26:33Z</time>
      </trkpt>
      <trkpt lat="44.76446" lon="3.88194">
        <ele>1104.176</ele>
        <time>2016-06-07T22:26:13Z</time>
      </trkpt>
      <trkpt lat="44.76558" lon="3.88257">
        <ele>1114.516</ele>
        <time>2016-06-07T22:25:53Z</time>
      </trkpt>
      <trkpt lat="44.7664" lon="3.88311">
        <ele>1122.762</ele>
        <time>2016-06-07T22:25:33Z</time>
      </trkpt>
      <trkpt lat="44.76662" lon="3.88324">
        <ele>1123.14</ele>
        <time>2016-06-07T22:25:13Z</time>
      </trkpt>
      <trkpt lat="44.76725" lon="3.88325">
        <ele>1128.719</ele>
        <time>2019-03-25T18:48:31Z</time>
      </trkpt>
      <trkpt lat="44.76896" lon="3.88224">
        <ele>1150.36</ele>
        <time>2019-03-25T18:47:51Z</time>
      </trkpt>
      <trkpt lat="44.7692" lon="3.88236">
        <ele>1151.354</ele>
        <time>2019-03-25T18:47:31Z</time>
      </trkpt>
      <trkpt lat="44.76959" lon="3.88301">
        <ele>1153.963</ele>
        <time>2021-01-04T23:41:34Z</time>
      </trkpt>
      <trkpt lat="44.77006" lon="3.88312">
        <ele>1156.758</ele>
        <time>2016-06-07T22:21:13Z</time>
      </trkpt>
      <trkpt lat="44.77037" lon="3.88299">
        <ele>1157.969</ele>
        <time>2016-06-07T22:20:53Z</time>
      </trkpt>
      <trkpt lat="44.77063" lon="3.88303">
        <ele>1159.908</ele>
        <time>2016-06-07T22:20:33Z</time>
      </trkpt>
      <trkpt lat="44.77173" lon="3.88366">
        <ele>1167.61</ele>
        <time>2016-06-07T22:20:13Z</time>
      </trkpt>
      <trkpt lat="44.77279" lon="3.88318">
        <ele>1156.355</ele>
        <time>2019-03-25T18:44:51Z</time>
      </trkpt>
      <trkpt lat="44.77278" lon="3.88303">
        <ele>1153.534</ele>
        <time>2019-03-25T18:44:31Z</time>
      </trkpt>
      <trkpt lat="44.77304" lon="3.88285">
        <ele>1148.531</ele>
        <time>2019-03-25T18:44:11Z</time>
      </trkpt>
      <trkpt lat="44.77382" lon="3.88276">
        <ele>1149.749</ele>
        <time>2019-03-25T18:43:51Z</time>
      </trkpt>
      <trkpt lat="44.77469" lon="3.88203">
        <ele>1145.398</ele>
        <time>2019-03-25T18:43:31Z</time>
      </trkpt>
      <trkpt lat="44.77501" lon="3.88163">
        <ele>1138.529</ele>
        <time>2019-03-25T18:43:11Z</time>
      </trkpt>
      <trkpt lat="44.77563" lon="3.88208">
        <ele>1141.353</ele>
        <time>2019-03-25T18:42:51Z</time>
      </trkpt>
      <trkpt lat="44.77614" lon="3.88318">
        <ele>1144.552</ele>
        <time>2019-03-25T18:42:31Z</time>
      </trkpt>
      <trkpt lat="44.77634" lon="3.88329">
        <ele>1146.597</ele>
        <time>2019-03-25T18:42:11Z</time>
      </trkpt>
      <trkpt lat="44.77656" lon="3.88304">
        <ele>1149.098</ele>
        <time>2019-03-25T18:41:51Z</time>
      </trkpt>
      <trkpt lat="44.77721" lon="3.88152">
        <ele>1153.308</ele>
        <time>2016-06-07T22:16:53Z</time>
      </trkpt>
      <trkpt lat="44.77833" lon="3.87985">
        <ele>1179.705</ele>
        <time>2016-06-07T22:16:33Z</time>
      </trkpt>
      <trkpt lat="44.77872" lon="3.87913">
        <ele>1185.441</ele>
        <time>2016-06-07T22:16:13Z</time>
      </trkpt>
      <trkpt lat="44.77884" lon="3.87884">
        <ele>1188.221</ele>
        <time>2016-06-07T22:15:53Z</time>
      </trkpt>
      <trkpt lat="44.77909" lon="3.87857">
        <ele>1196.54</ele>
        <time>2016-06-07T22:15:33Z</time>
      </trkpt>
      <trkpt lat="44.7795" lon="3.87862">
        <ele>1205.148</ele>
        <time>2016-06-07T22:15:13Z</time>
      </trkpt>
      <trkpt lat="44.77972" lon="3.87859">
        <ele>1208.977</ele>
        <time>2016-06-07T22:14:53Z</time>
      </trkpt>
      <trkpt lat="44.77988" lon="3.87843">
        <ele>1208.548</ele>
        <time>2016-06-07T22:14:33Z</time>
      </trkpt>
      <trkpt lat="44.7801" lon="3.87769">
        <ele>1206.952</ele>
        <time>2016-06-07T22:14:13Z</time>
      </trkpt>
      <trkpt lat="44.78066" lon="3.87735">
        <ele>1215.041</ele>
        <time>2016-06-07T22:13:53Z</time>
      </trkpt>
      <trkpt lat="44.78104" lon="3.87691">
        <ele>1218.666</ele>
        <time>2016-06-07T22:13:33Z</time>
      </trkpt>
      <trkpt lat="44.7814" lon="3.87686">
        <ele>1224.877</ele>
        <time>2016-06-07T22:13:13Z</time>
      </trkpt>
      <trkpt lat="44.7825" lon="3.87648">
        <ele>1231.308</ele>
        <time>2016-06-07T22:12:53Z</time>
      </trkpt>
      <trkpt lat="44.78279" lon="3.87626">
        <ele>1230.015</ele>
        <time>2016-06-07T22:12:33Z</time>
      </trkpt>
      <trkpt lat="44.783" lon="3.87604">
        <ele>1228.987</ele>
        <time>2016-06-07T22:12:13Z</time>
      </trkpt>
      <trkpt lat="44.78369" lon="3.87552">
        <ele>1235.217</ele>
        <time>2016-06-07T22:11:53Z</time>
      </trkpt>
      <trkpt lat="44.78426" lon="3.87535">
        <ele>1235.232</ele>
        <time>2016-06-07T22:11:33Z</time>
      </trkpt>
      <trkpt lat="44.78464" lon="3.87527">
        <ele>1233.73</ele>
        <time>2016-06-07T22:11:13Z</time>
      </trkpt>
      <trkpt lat="44.78499" lon="3.87513">
        <ele>1236.049</ele>
        <time>2016-06-07T22:10:53Z</time>
      </trkpt>
      <trkpt lat="44.7845" lon="3.87484">
        <ele>1238.37</ele>
        <time>2016-06-07T22:10:33Z</time>
      </trkpt>
      <trkpt lat="44.78396" lon="3.87415">
        <ele>1236.584</ele>
        <time>2016-06-07T22:10:13Z</time>
      </trkpt>
      <trkpt lat="44.78354" lon="3.87377">
        <ele>1233.953</ele>
        <time>2016-06-07T22:09:53Z</time>
      </trkpt>
      <trkpt lat="44.78304" lon="3.87251">
        <ele>1232.888</ele>
        <time>2016-06-07T22:09:33Z</time>
      </trkpt>
      <trkpt lat="44.78244" lon="3.87121">
        <ele>1233.599</ele>
        <time>2016-06-07T22:09:13Z</time>
      </trkpt>
      <trkpt lat="44.78241" lon="3.8709">
        <ele>1232.808</ele>
        <time>2016-06-07T22:08:53Z</time>
      </trkpt>
      <trkpt lat="44.78248" lon="3.87062">
        <ele>1232.114</ele>
        <time>2016-06-07T22:08:33Z</time>
      </trkpt>
      <trkpt lat="44.78315" lon="3.86934">
        <ele>1225.386</ele>
        <time>2016-06-07T22:08:13Z</time>
      </trkpt>
      <trkpt lat="44.78372" lon="3.86802">
        <ele>1215.235</ele>
        <time>2016-06-07T22:07:53Z</time>
      </trkpt>
      <trkpt lat="44.78394" lon="3.86763">
        <ele>1213.283</ele>
        <time>2016-06-07T22:07:33Z</time>
      </trkpt>
      <trkpt lat="44.78537" lon="3.8658">
        <ele>1210.211</ele>
        <time>2016-06-07T22:07:13Z</time>
      </trkpt>
      <trkpt lat="44.78551" lon="3.86531">
        <ele>1207.27</ele>
        <time>2016-06-07T22:06:53Z</time>
      </trkpt>
      <trkpt lat="44.78646" lon="3.86345">
        <ele>1191.491</ele>
        <time>2016-06-07T22:06:33Z</time>
      </trkpt>
      <trkpt lat="44.78725" lon="3.86147">
        <ele>1176.335</ele>
        <time>2016-06-07T22:06:13Z</time>
      </trkpt>
      <trkpt lat="44.78742" lon="3.86138">
        <ele>1176.274</ele>
        <time>2016-06-07T22:05:53Z</time>
      </trkpt>
      <trkpt lat="44.78796" lon="3.86082">
        <ele>1162.919</ele>
        <time>2016-06-07T22:05:33Z</time>
      </trkpt>
      <trkpt lat="44.78823" lon="3.86069">
        <ele>1158.79</ele>
        <time>2016-06-07T22:05:13Z</time>
      </trkpt>
      <trkpt lat="44.78853" lon="3.86052">
        <ele>1154.208</ele>
        <time>2016-06-07T22:04:53Z</time>
      </trkpt>
      <trkpt lat="44.78864" lon="3.86036">
        <ele>1151.621</ele>
        <time>2016-06-07T22:04:33Z</time>
      </trkpt>
      <trkpt lat="44.78885" lon="3.86051">
        <ele>1149.429</ele>
        <time>2016-06-07T22:04:13Z</time>
      </trkpt>
      <trkpt lat="44.7893" lon="3.86106">
        <ele>1153.047</ele>
        <time>2016-06-07T22:03:53Z</time>
      </trkpt>
      <trkpt lat="44.78945" lon="3.86095">
        <ele>1152.531</ele>
        <time>2016-06-07T22:03:33Z</time>
      </trkpt>
      <trkpt lat="44.78959" lon="3.86072">
        <ele>1153.899</ele>
        <time>2016-06-07T22:03:13Z</time>
      </trkpt>
      <trkpt lat="44.78965" lon="3.86027">
        <ele>1156.468</ele>
        <time>2016-06-07T22:02:53Z</time>
      </trkpt>
      <trkpt lat="44.78962" lon="3.85999">
        <ele>1156.089</ele>
        <time>2016-06-07T22:02:33Z</time>
      </trkpt>
      <trkpt lat="44.78969" lon="3.85967">
        <ele>1154.793</ele>
        <time>2016-06-07T22:02:13Z</time>
      </trkpt>
      <trkpt lat="44.79006" lon="3.85937">
        <ele>1156.052</ele>
        <time>2016-06-07T22:01:53Z</time>
      </trkpt>
      <trkpt lat="44.79043" lon="3.85918">
        <ele>1159.267</ele>
        <time>2016-06-07T22:01:33Z</time>
      </trkpt>
      <trkpt lat="44.79096" lon="3.85904">
        <ele>1158.218</ele>
        <time>2016-06-07T22:01:13Z</time>
      </trkpt>
      <trkpt lat="44.79143" lon="3.8588">
        <ele>1156.408</ele>
        <time>2016-06-07T22:00:53Z</time>
      </trkpt>
      <trkpt lat="44.79202" lon="3.85873">
        <ele>1157.32</ele>
        <time>2016-06-07T22:00:33Z</time>
      </trkpt>
      <trkpt lat="44.79277" lon="3.8589">
        <ele>1158</ele>
        <time>2016-06-07T22:00:13Z</time>
      </trkpt>
      <trkpt lat="44.79343" lon="3.85867">
        <ele>1157.029</ele>
        <time>2016-06-07T21:59:53Z</time>
      </trkpt>
      <trkpt lat="44.79355" lon="3.85874">
        <ele>1156.861</ele>
        <time>2016-06-07T21:59:33Z</time>
      </trkpt>
      <trkpt lat="44.79376" lon="3.85859">
        <ele>1154.859</ele>
        <time>2016-06-07T21:59:13Z</time>
      </trkpt>
      <trkpt lat="44.79424" lon="3.858">
        <ele>1153.078</ele>
        <time>2016-06-07T21:58:53Z</time>
      </trkpt>
      <trkpt lat="44.79487" lon="3.85689">
        <ele>1149.329</ele>
        <time>2016-06-07T21:58:33Z</time>
      </trkpt>
      <trkpt lat="44.79525" lon="3.8565">
        <ele>1150.653</ele>
        <time>2016-06-07T21:58:13Z</time>
      </trkpt>
      <trkpt lat="44.79651" lon="3.85549">
        <ele>1153.252</ele>
        <time>2016-06-07T21:57:53Z</time>
      </trkpt>
      <trkpt lat="44.79706" lon="3.85524">
        <ele>1152.887</ele>
        <time>2016-06-07T21:57:33Z</time>
      </trkpt>
      <trkpt lat="44.79731" lon="3.8548">
        <ele>1150.858</ele>
        <time>2016-06-07T21:57:13Z</time>
      </trkpt>
      <trkpt lat="44.79768" lon="3.85435">
        <ele>1149.208</ele>
        <time>2016-06-07T21:56:53Z</time>
      </trkpt>
      <trkpt lat="44.79914" lon="3.853">
        <ele>1144.608</ele>
        <time>2016-06-07T21:56:33Z</time>
      </trkpt>
      <trkpt lat="44.80003" lon="3.8517">
        <ele>1143.362</ele>
        <time>2016-06-07T21:56:13Z</time>
      </trkpt>
      <trkpt lat="44.80018" lon="3.85159">
        <ele>1143.922</ele>
        <time>2016-06-07T21:55:53Z</time>
      </trkpt>
      <trkpt lat="44.80075" lon="3.85083">
        <ele>1139.383</ele>
        <time>2016-06-07T21:55:33Z</time>
      </trkpt>
      <trkpt lat="44.80069" lon="3.85053">
        <ele>1138.991</ele>
        <time>2016-06-07T21:55:13Z</time>
      </trkpt>
      <trkpt lat="44.80076" lon="3.85033">
        <ele>1138.68</ele>
        <time>2016-06-07T21:54:53Z</time>
      </trkpt>
      <trkpt lat="44.80082" lon="3.84972">
        <ele>1142.971</ele>
        <time>2016-06-07T21:54:33Z</time>
      </trkpt>
      <trkpt lat="44.80069" lon="3.8482">
        <ele>1145.495</ele>
        <time>2016-06-07T21:54:13Z</time>
      </trkpt>
      <trkpt lat="44.80066" lon="3.84696">
        <ele>1148.084</ele>
        <time>2016-06-07T21:53:53Z</time>
      </trkpt>
      <trkpt lat="44.80092" lon="3.84633">
        <ele>1152.519</ele>
        <time>2016-06-07T21:53:33Z</time>
      </trkpt>
      <trkpt lat="44.80098" lon="3.84561">
        <ele>1153.17</ele>
        <time>2016-06-07T21:53:13Z</time>
      </trkpt>
      <trkpt lat="44.80117" lon="3.84515">
        <ele>1153.008</ele>
        <time>2016-06-07T21:52:53Z</time>
      </trkpt>
      <trkpt lat="44.80133" lon="3.84454">
        <ele>1150.714</ele>
        <time>2016-06-07T21:52:33Z</time>
      </trkpt>
      <trkpt lat="44.80169" lon="3.84363">
        <ele>1144.922</ele>
        <time>2016-06-07T21:52:13Z</time>
      </trkpt>
      <trkpt lat="44.80197" lon="3.84309">
        <ele>1142.442</ele>
        <time>2016-06-07T21:51:53Z</time>
      </trkpt>
      <trkpt lat="44.80213" lon="3.842">
        <ele>1131.16</ele>
        <time>2016-06-07T21:51:33Z</time>
      </trkpt>
      <trkpt lat="44.80241" lon="3.84104">
        <ele>1125.388</ele>
        <time>2016-06-07T21:51:13Z</time>
      </trkpt>
      <trkpt lat="44.80297" lon="3.83972">
        <ele>1113.017</ele>
        <time>2016-06-07T21:50:53Z</time>
      </trkpt>
      <trkpt lat="44.80372" lon="3.83807">
        <ele>1101.328</ele>
        <time>2016-06-07T21:50:33Z</time>
      </trkpt>
      <trkpt lat="44.80373" lon="3.83776">
        <ele>1100.542</ele>
        <time>2016-06-07T21:50:13Z</time>
      </trkpt>
      <trkpt lat="44.80388" lon="3.83722">
        <ele>1099.091</ele>
        <time>2016-06-07T21:49:53Z</time>
      </trkpt>
      <trkpt lat="44.80477" lon="3.83556">
        <ele>1085.426</ele>
        <time>2016-06-07T21:49:33Z</time>
      </trkpt>
      <trkpt lat="44.80498" lon="3.83533">
        <ele>1083.667</ele>
        <time>2016-06-07T21:49:13Z</time>
      </trkpt>
      <trkpt lat="44.80548" lon="3.83447">
        <ele>1080.008</ele>
        <time>2016-06-07T21:48:53Z</time>
      </trkpt>
      <trkpt lat="44.80583" lon="3.83399">
        <ele>1074.715</ele>
        <time>2016-06-07T21:48:33Z</time>
      </trkpt>
      <trkpt lat="44.80613" lon="3.83347">
        <ele>1066.587</ele>
        <time>2016-06-07T21:48:13Z</time>
      </trkpt>
      <trkpt lat="44.80642" lon="3.83245">
        <ele>1059.517</ele>
        <time>2016-06-07T21:47:53Z</time>
      </trkpt>
      <trkpt lat="44.80656" lon="3.83137">
        <ele>1045.417</ele>
        <time>2016-06-07T21:47:33Z</time>
      </trkpt>
      <trkpt lat="44.80668" lon="3.83088">
        <ele>1036.755</ele>
        <time>2016-06-07T21:47:13Z</time>
      </trkpt>
      <trkpt lat="44.80618" lon="3.83085">
        <ele>1035.464</ele>
        <time>2016-06-07T21:46:53Z</time>
      </trkpt>
      <trkpt lat="44.80618" lon="3.83085">
        <ele>1035.415</ele>
        <time>2016-06-07T21:46:33Z</time>
      </trkpt>
      <trkpt lat="44.80497" lon="3.83038">
        <ele>1029.299</ele>
        <time>2016-06-07T21:46:13Z</time>
      </trkpt>
      <trkpt lat="44.80405" lon="3.83019">
        <ele>1023.638</ele>
        <time>2016-06-07T21:45:53Z</time>
      </trkpt>
      <trkpt lat="44.80331" lon="3.83033">
        <ele>1024.373</ele>
        <time>2019-03-25T18:10:11Z</time>
      </trkpt>
      <trkpt lat="44.80326" lon="3.8297">
        <ele>1019.514</ele>
        <time>2016-06-07T21:45:13Z</time>
      </trkpt>
      <trkpt lat="44.80346" lon="3.82927">
        <ele>1014.308</ele>
        <time>2019-03-25T18:09:31Z</time>
      </trkpt>
      <trkpt lat="44.80408" lon="3.82871">
        <ele>1010.426</ele>
        <time>2019-03-25T18:09:11Z</time>
      </trkpt>
      <trkpt lat="44.80421" lon="3.82829">
        <ele>1008.906</ele>
        <time>2016-06-07T21:40:53Z</time>
      </trkpt>
      <trkpt lat="44.80468" lon="3.82786">
        <ele>1008.589</ele>
        <time>2016-06-07T21:40:33Z</time>
      </trkpt>
      <trkpt lat="44.80546" lon="3.82765">
        <ele>1006.47</ele>
        <time>2016-06-07T21:40:13Z</time>
      </trkpt>
      <trkpt lat="44.80591" lon="3.82745">
        <ele>991.638</ele>
        <time>2016-06-07T21:39:53Z</time>
      </trkpt>
      <trkpt lat="44.8065" lon="3.82746">
        <ele>985.157</ele>
        <time>2016-06-07T21:39:33Z</time>
      </trkpt>
      <trkpt lat="44.80676" lon="3.82766">
        <ele>987.228</ele>
        <time>2016-06-07T21:39:13Z</time>
      </trkpt>
      <trkpt lat="44.80728" lon="3.82792">
        <ele>990.322</ele>
        <time>2016-06-07T21:38:53Z</time>
      </trkpt>
      <trkpt lat="44.80743" lon="3.82783">
        <ele>987.691</ele>
        <time>2016-06-07T21:38:33Z</time>
      </trkpt>
      <trkpt lat="44.80752" lon="3.82755">
        <ele>986.666</ele>
        <time>2016-06-07T21:38:13Z</time>
      </trkpt>
      <trkpt lat="44.80737" lon="3.82674">
        <ele>994.197</ele>
        <time>2016-06-07T21:37:53Z</time>
      </trkpt>
      <trkpt lat="44.80722" lon="3.82647">
        <ele>994.208</ele>
        <time>2016-06-07T21:37:33Z</time>
      </trkpt>
      <trkpt lat="44.80684" lon="3.82608">
        <ele>992.713</ele>
        <time>2016-06-07T21:37:13Z</time>
      </trkpt>
      <trkpt lat="44.80673" lon="3.82582">
        <ele>995.976</ele>
        <time>2016-06-07T21:36:53Z</time>
      </trkpt>
      <trkpt lat="44.80673" lon="3.82534">
        <ele>1005.616</ele>
        <time>2016-06-07T21:36:33Z</time>
      </trkpt>
      <trkpt lat="44.80685" lon="3.82486">
        <ele>1008.542</ele>
        <time>2016-06-07T21:36:13Z</time>
      </trkpt>
      <trkpt lat="44.80688" lon="3.82378">
        <ele>1006.24</ele>
        <time>2016-06-07T21:35:53Z</time>
      </trkpt>
      <trkpt lat="44.80747" lon="3.82342">
        <ele>1014.179</ele>
        <time>2016-06-07T21:35:33Z</time>
      </trkpt>
      <trkpt lat="44.80813" lon="3.82344">
        <ele>1018.09</ele>
        <time>2016-06-07T21:35:13Z</time>
      </trkpt>
      <trkpt lat="44.80899" lon="3.82332">
        <ele>1022.754</ele>
        <time>2016-06-07T21:34:53Z</time>
      </trkpt>
      <trkpt lat="44.80902" lon="3.82281">
        <ele>1020.563</ele>
        <time>2016-06-07T21:34:33Z</time>
      </trkpt>
      <trkpt lat="44.80897" lon="3.82247">
        <ele>1020.058</ele>
        <time>2016-06-07T21:34:13Z</time>
      </trkpt>
      <trkpt lat="44.80921" lon="3.82214">
        <ele>1023.269</ele>
        <time>2016-06-07T21:33:53Z</time>
      </trkpt>
      <trkpt lat="44.81007" lon="3.82003">
        <ele>1035.308</ele>
        <time>2016-06-07T21:33:33Z</time>
      </trkpt>
      <trkpt lat="44.8104" lon="3.81948">
        <ele>1036.51</ele>
        <time>2016-06-07T21:33:13Z</time>
      </trkpt>
      <trkpt lat="44.81064" lon="3.8188">
        <ele>1036.355</ele>
        <time>2016-06-07T21:32:53Z</time>
      </trkpt>
      <trkpt lat="44.81086" lon="3.81843">
        <ele>1037.034</ele>
        <time>2016-06-07T21:32:33Z</time>
      </trkpt>
      <trkpt lat="44.81141" lon="3.81729">
        <ele>1037.29</ele>
        <time>2016-06-07T21:32:13Z</time>
      </trkpt>
      <trkpt lat="44.81152" lon="3.81728">
        <ele>1037.928</ele>
        <time>2016-06-07T21:31:53Z</time>
      </trkpt>
      <trkpt lat="44.81177" lon="3.81756">
        <ele>1039.447</ele>
        <time>2016-06-07T21:31:33Z</time>
      </trkpt>
      <trkpt lat="44.81189" lon="3.8175">
        <ele>1039.878</ele>
        <time>2016-06-07T21:31:13Z</time>
      </trkpt>
      <trkpt lat="44.81254" lon="3.81648">
        <ele>1041.212</ele>
        <time>2016-06-07T21:30:53Z</time>
      </trkpt>
      <trkpt lat="44.81295" lon="3.81638">
        <ele>1042.631</ele>
        <time>2016-06-07T21:30:33Z</time>
      </trkpt>
      <trkpt lat="44.81324" lon="3.81612">
        <ele>1042.886</ele>
        <time>2016-06-07T21:30:13Z</time>
      </trkpt>
      <trkpt lat="44.81415" lon="3.8147">
        <ele>1039.977</ele>
        <time>2016-06-07T21:29:53Z</time>
      </trkpt>
      <trkpt lat="44.81443" lon="3.81475">
        <ele>1040.108</ele>
        <time>2016-06-07T21:29:33Z</time>
      </trkpt>
      <trkpt lat="44.81478" lon="3.81454">
        <ele>1040.503</ele>
        <time>2016-06-07T21:29:13Z</time>
      </trkpt>
      <trkpt lat="44.81508" lon="3.81443">
        <ele>1041.021</ele>
        <time>2016-06-07T21:28:53Z</time>
      </trkpt>
      <trkpt lat="44.81549" lon="3.81445">
        <ele>1041.811</ele>
        <time>2016-06-07T21:28:33Z</time>
      </trkpt>
      <trkpt lat="44.81619" lon="3.81436">
        <ele>1041.482</ele>
        <time>2016-06-07T21:28:13Z</time>
      </trkpt>
      <trkpt lat="44.81648" lon="3.81439">
        <ele>1039.31</ele>
        <time>2016-06-07T21:27:53Z</time>
      </trkpt>
      <trkpt lat="44.81667" lon="3.81461">
        <ele>1039.789</ele>
        <time>2016-06-07T21:27:33Z</time>
      </trkpt>
      <trkpt lat="44.81689" lon="3.81469">
        <ele>1037.39</ele>
        <time>2016-06-07T21:27:13Z</time>
      </trkpt>
      <trkpt lat="44.81726" lon="3.81503">
        <ele>1034.944</ele>
        <time>2016-06-07T21:26:53Z</time>
      </trkpt>
      <trkpt lat="44.8176" lon="3.81527">
        <ele>1031.233</ele>
        <time>2016-06-07T21:26:33Z</time>
      </trkpt>
      <trkpt lat="44.81792" lon="3.81558">
        <ele>1026.258</ele>
        <time>2016-06-07T21:26:13Z</time>
      </trkpt>
      <trkpt lat="44.81813" lon="3.81571">
        <ele>1024.279</ele>
        <time>2016-06-07T21:25:53Z</time>
      </trkpt>
      <trkpt lat="44.81829" lon="3.81568">
        <ele>1022.008</ele>
        <time>2016-06-07T21:25:33Z</time>
      </trkpt>
      <trkpt lat="44.81859" lon="3.81511">
        <ele>1023.921</ele>
        <time>2016-06-07T21:25:13Z</time>
      </trkpt>
      <trkpt lat="44.81892" lon="3.81455">
        <ele>1032.301</ele>
        <time>2016-06-07T21:24:53Z</time>
      </trkpt>
      <trkpt lat="44.81894" lon="3.81392">
        <ele>1033.839</ele>
        <time>2016-06-07T21:24:33Z</time>
      </trkpt>
      <trkpt lat="44.81886" lon="3.81348">
        <ele>1036.065</ele>
        <time>2016-06-07T21:24:13Z</time>
      </trkpt>
      <trkpt lat="44.8185" lon="3.81253">
        <ele>1038.933</ele>
        <time>2016-06-07T21:23:53Z</time>
      </trkpt>
      <trkpt lat="44.81823" lon="3.8121">
        <ele>1037.432</ele>
        <time>2016-06-07T21:23:33Z</time>
      </trkpt>
      <trkpt lat="44.81822" lon="3.81188">
        <ele>1039.923</ele>
        <time>2016-06-07T21:23:13Z</time>
      </trkpt>
      <trkpt lat="44.81884" lon="3.81149">
        <ele>1046.217</ele>
        <time>2016-06-07T21:22:53Z</time>
      </trkpt>
      <trkpt lat="44.81929" lon="3.81126">
        <ele>1045.846</ele>
        <time>2016-06-07T21:22:33Z</time>
      </trkpt>
      <trkpt lat="44.81946" lon="3.81128">
        <ele>1046.281</ele>
        <time>2016-06-07T21:22:13Z</time>
      </trkpt>
      <trkpt lat="44.82018" lon="3.81195">
        <ele>1048.412</ele>
        <time>2016-06-07T21:21:53Z</time>
      </trkpt>
      <trkpt lat="44.82051" lon="3.81212">
        <ele>1047.908</ele>
        <time>2016-06-07T21:21:33Z</time>
      </trkpt>
      <trkpt lat="44.82096" lon="3.81204">
        <ele>1049.711</ele>
        <time>2016-06-07T21:21:13Z</time>
      </trkpt>
      <trkpt lat="44.82112" lon="3.81189">
        <ele>1049.983</ele>
        <time>2016-06-07T21:20:53Z</time>
      </trkpt>
      <trkpt lat="44.82145" lon="3.81278">
        <ele>1058.862</ele>
        <time>2016-06-07T21:20:33Z</time>
      </trkpt>
      <trkpt lat="44.82153" lon="3.81338">
        <ele>1059.083</ele>
        <time>2016-06-07T21:20:13Z</time>
      </trkpt>
      <trkpt lat="44.82185" lon="3.81409">
        <ele>1061.641</ele>
        <time>2016-06-07T21:19:53Z</time>
      </trkpt>
      <trkpt lat="44.82192" lon="3.81456">
        <ele>1064.89</ele>
        <time>2016-06-07T21:19:33Z</time>
      </trkpt>
      <trkpt lat="44.82202" lon="3.81498">
        <ele>1067.641</ele>
        <time>2016-06-07T21:19:13Z</time>
      </trkpt>
      <trkpt lat="44.82214" lon="3.8155">
        <ele>1068.595</ele>
        <time>2016-06-07T21:18:53Z</time>
      </trkpt>
      <trkpt lat="44.82272" lon="3.81693">
        <ele>1072.054</ele>
        <time>2016-06-07T21:18:33Z</time>
      </trkpt>
      <trkpt lat="44.82333" lon="3.81803">
        <ele>1080.889</ele>
        <time>2016-06-07T21:18:13Z</time>
      </trkpt>
      <trkpt lat="44.82468" lon="3.81936">
        <ele>1087.62</ele>
        <time>2016-06-07T21:17:53Z</time>
      </trkpt>
      <trkpt lat="44.82514" lon="3.81968">
        <ele>1090.308</ele>
        <time>2016-06-07T21:17:33Z</time>
      </trkpt>
      <trkpt lat="44.82571" lon="3.82019">
        <ele>1093.409</ele>
        <time>2016-06-07T21:17:13Z</time>
      </trkpt>
      <trkpt lat="44.82684" lon="3.82184">
        <ele>1103.081</ele>
        <time>2016-06-07T21:16:53Z</time>
      </trkpt>
      <trkpt lat="44.82707" lon="3.8223">
        <ele>1104.941</ele>
        <time>2016-06-07T21:16:33Z</time>
      </trkpt>
      <trkpt lat="44.82769" lon="3.823">
        <ele>1106.737</ele>
        <time>2016-06-07T21:16:13Z</time>
      </trkpt>
      <trkpt lat="44.82868" lon="3.82346">
        <ele>1113.065</ele>
        <time>2016-06-07T21:15:53Z</time>
      </trkpt>
      <trkpt lat="44.82914" lon="3.82375">
        <ele>1114.764</ele>
        <time>2016-06-07T21:15:33Z</time>
      </trkpt>
      <trkpt lat="44.82998" lon="3.82498">
        <ele>1111.985</ele>
        <time>2016-06-07T21:15:13Z</time>
      </trkpt>
      <trkpt lat="44.83025" lon="3.82601">
        <ele>1111.069</ele>
        <time>2016-06-07T21:14:53Z</time>
      </trkpt>
      <trkpt lat="44.83047" lon="3.82694">
        <ele>1109.148</ele>
        <time>2016-06-07T21:14:33Z</time>
      </trkpt>
      <trkpt lat="44.83063" lon="3.82735">
        <ele>1108.043</ele>
        <time>2016-06-07T21:14:13Z</time>
      </trkpt>
      <trkpt lat="44.83106" lon="3.8286">
        <ele>1111.834</ele>
        <time>2016-06-07T21:13:53Z</time>
      </trkpt>
      <trkpt lat="44.83144" lon="3.82938">
        <ele>1114.308</ele>
        <time>2016-06-07T21:13:33Z</time>
      </trkpt>
      <trkpt lat="44.83172" lon="3.82971">
        <ele>1115.926</ele>
        <time>2016-06-07T21:13:13Z</time>
      </trkpt>
      <trkpt lat="44.83191" lon="3.83">
        <ele>1116.942</ele>
        <time>2016-06-07T21:12:53Z</time>
      </trkpt>
      <trkpt lat="44.83244" lon="3.83058">
        <ele>1118.287</ele>
        <time>2016-06-07T21:12:33Z</time>
      </trkpt>
      <trkpt lat="44.83302" lon="3.83104">
        <ele>1114.223</ele>
        <time>2016-06-07T21:12:13Z</time>
      </trkpt>
      <trkpt lat="44.83396" lon="3.83196">
        <ele>1108.611</ele>
        <time>2016-06-07T21:11:53Z</time>
      </trkpt>
      <trkpt lat="44.83439" lon="3.83249">
        <ele>1105.04</ele>
        <time>2016-06-07T21:11:33Z</time>
      </trkpt>
      <trkpt lat="44.83494" lon="3.8332">
        <ele>1104.071</ele>
        <time>2016-06-07T21:11:13Z</time>
      </trkpt>
      <trkpt lat="44.83526" lon="3.83302">
        <ele>1102.915</ele>
        <time>2016-06-07T21:10:53Z</time>
      </trkpt>
      <trkpt lat="44.83669" lon="3.83296">
        <ele>1098.624</ele>
        <time>2016-06-07T21:10:33Z</time>
      </trkpt>
      <trkpt lat="44.83754" lon="3.83283">
        <ele>1097.139</ele>
        <time>2016-06-07T21:10:13Z</time>
      </trkpt>
      <trkpt lat="44.8383" lon="3.83279">
        <ele>1097.83</ele>
        <time>2016-06-07T21:09:53Z</time>
      </trkpt>
      <trkpt lat="44.83854" lon="3.83284">
        <ele>1099.208</ele>
        <time>2016-06-07T21:09:33Z</time>
      </trkpt>
      <trkpt lat="44.83899" lon="3.83265">
        <ele>1099.821</ele>
        <time>2016-06-07T21:09:13Z</time>
      </trkpt>
      <trkpt lat="44.83944" lon="3.8322">
        <ele>1099.629</ele>
        <time>2016-06-07T21:08:53Z</time>
      </trkpt>
      <trkpt lat="44.83963" lon="3.83188">
        <ele>1097.647</ele>
        <time>2016-06-07T21:08:33Z</time>
      </trkpt>
      <trkpt lat="44.84008" lon="3.8314">
        <ele>1096.795</ele>
        <time>2016-06-07T21:08:13Z</time>
      </trkpt>
      <trkpt lat="44.84026" lon="3.8309">
        <ele>1093.363</ele>
        <time>2016-06-07T21:07:53Z</time>
      </trkpt>
      <trkpt lat="44.84041" lon="3.83072">
        <ele>1094.562</ele>
        <time>2016-06-07T21:07:33Z</time>
      </trkpt>
      <trkpt lat="44.84065" lon="3.83062">
        <ele>1097.033</ele>
        <time>2016-06-07T21:07:13Z</time>
      </trkpt>
      <trkpt lat="44.84083" lon="3.83039">
        <ele>1096.867</ele>
        <time>2016-06-07T21:06:53Z</time>
      </trkpt>
      <trkpt lat="44.84107" lon="3.83021">
        <ele>1097.936</ele>
        <time>2016-06-07T21:06:33Z</time>
      </trkpt>
      <trkpt lat="44.84137" lon="3.82992">
        <ele>1096.621</ele>
        <time>2016-06-07T21:06:13Z</time>
      </trkpt>
      <trkpt lat="44.84168" lon="3.8298">
        <ele>1097.282</ele>
        <time>2016-06-07T21:05:53Z</time>
      </trkpt>
      <trkpt lat="44.84194" lon="3.82977">
        <ele>1096.508</ele>
        <time>2016-06-07T21:05:33Z</time>
      </trkpt>
      <trkpt lat="44.84265" lon="3.82998">
        <ele>1098.821</ele>
        <time>2016-06-07T21:05:13Z</time>
      </trkpt>
      <trkpt lat="44.84298" lon="3.82984">
        <ele>1096.229</ele>
        <time>2016-06-07T21:04:53Z</time>
      </trkpt>
      <trkpt lat="44.84306" lon="3.82993">
        <ele>1096.466</ele>
        <time>2016-06-07T21:04:33Z</time>
      </trkpt>
      <trkpt lat="44.84374" lon="3.83001">
        <ele>1095.522</ele>
        <time>2016-06-07T21:04:13Z</time>
      </trkpt>
      <trkpt lat="44.84378" lon="3.8298">
        <ele>1094.14</ele>
        <time>2016-06-07T21:03:53Z</time>
      </trkpt>
      <trkpt lat="44.8439" lon="3.8296">
        <ele>1093.629</ele>
        <time>2016-06-07T21:03:33Z</time>
      </trkpt>
      <trkpt lat="44.8446" lon="3.8289">
        <ele>1094.66</ele>
        <time>2016-06-07T21:03:13Z</time>
      </trkpt>
      <trkpt lat="44.8448" lon="3.82876">
        <ele>1095.934</ele>
        <time>2016-06-07T21:02:53Z</time>
      </trkpt>
      <trkpt lat="44.84539" lon="3.82816">
        <ele>1099.643</ele>
        <time>2016-06-07T21:02:33Z</time>
      </trkpt>
      <trkpt lat="44.84579" lon="3.82781">
        <ele>1102.058</ele>
        <time>2016-06-07T21:02:13Z</time>
      </trkpt>
      <trkpt lat="44.8461" lon="3.82763">
        <ele>1102.979</ele>
        <time>2016-06-07T21:01:53Z</time>
      </trkpt>
      <trkpt lat="44.84613" lon="3.82742">
        <ele>1102.308</ele>
        <time>2016-06-07T21:01:33Z</time>
      </trkpt>
      <trkpt lat="44.84622" lon="3.82726">
        <ele>1102.921</ele>
        <time>2016-06-07T21:01:13Z</time>
      </trkpt>
      <trkpt lat="44.84685" lon="3.82651">
        <ele>1108.201</ele>
        <time>2021-01-04T22:23:54Z</time>
      </trkpt>
      <trkpt lat="44.84757" lon="3.82661">
        <ele>1108.739</ele>
        <time>2021-01-04T22:23:34Z</time>
      </trkpt>
      <trkpt lat="44.84859" lon="3.82705">
        <ele>1109.698</ele>
        <time>2021-01-04T22:23:14Z</time>
      </trkpt>
      <trkpt lat="44.84909" lon="3.82663">
        <ele>1110.376</ele>
        <time>2021-01-04T22:22:54Z</time>
      </trkpt>
      <trkpt lat="44.8496" lon="3.82689">
        <ele>1112.475</ele>
        <time>2021-01-04T22:22:34Z</time>
      </trkpt>
      <trkpt lat="44.85001" lon="3.82643">
        <ele>1114.486</ele>
        <time>2021-01-04T22:22:14Z</time>
      </trkpt>
      <trkpt lat="44.85102" lon="3.82599">
        <ele>1127.63</ele>
        <time>2021-01-04T22:21:54Z</time>
      </trkpt>
      <trkpt lat="44.85183" lon="3.82607">
        <ele>1134.099</ele>
        <time>2021-01-04T22:21:34Z</time>
      </trkpt>
      <trkpt lat="44.8523" lon="3.82651">
        <ele>1134.694</ele>
        <time>2021-01-04T22:21:14Z</time>
      </trkpt>
      <trkpt lat="44.85279" lon="3.82521">
        <ele>1137.585</ele>
        <time>2021-01-04T22:20:54Z</time>
      </trkpt>
      <trkpt lat="44.85345" lon="3.82487">
        <ele>1140.308</ele>
        <time>2021-01-04T22:20:34Z</time>
      </trkpt>
      <trkpt lat="44.85437" lon="3.82417">
        <ele>1140.527</ele>
        <time>2021-01-04T22:20:14Z</time>
      </trkpt>
      <trkpt lat="44.85505" lon="3.82349">
        <ele>1141.307</ele>
        <time>2021-01-04T22:19:54Z</time>
      </trkpt>
      <trkpt lat="44.85568" lon="3.82249">
        <ele>1144.099</ele>
        <time>2021-01-04T22:19:34Z</time>
      </trkpt>
      <trkpt lat="44.85758" lon="3.82018">
        <ele>1143.187</ele>
        <time>2021-01-04T22:19:14Z</time>
      </trkpt>
      <trkpt lat="44.86074" lon="3.81802">
        <ele>1146.965</ele>
        <time>2021-01-04T22:18:54Z</time>
      </trkpt>
      <trkpt lat="44.86141" lon="3.8171">
        <ele>1148.534</ele>
        <time>2021-01-04T22:18:34Z</time>
      </trkpt>
      <trkpt lat="44.86016" lon="3.8156">
        <ele>1144.895</ele>
        <time>2021-01-04T22:18:14Z</time>
      </trkpt>
      <trkpt lat="44.85915" lon="3.81306">
        <ele>1148.049</ele>
        <time>2021-01-04T22:17:54Z</time>
      </trkpt>
      <trkpt lat="44.85905" lon="3.81202">
        <ele>1148.658</ele>
        <time>2021-01-04T22:17:34Z</time>
      </trkpt>
      <trkpt lat="44.85954" lon="3.81177">
        <ele>1150.023</ele>
        <time>2016-06-07T20:52:33Z</time>
      </trkpt>
      <trkpt lat="44.85984" lon="3.81148">
        <ele>1150.924</ele>
        <time>2016-06-07T20:52:13Z</time>
      </trkpt>
      <trkpt lat="44.86006" lon="3.811">
        <ele>1150.908</ele>
        <time>2016-06-07T20:51:53Z</time>
      </trkpt>
      <trkpt lat="44.86027" lon="3.81069">
        <ele>1151.517</ele>
        <time>2016-06-07T20:51:33Z</time>
      </trkpt>
      <trkpt lat="44.8608" lon="3.81019">
        <ele>1151.261</ele>
        <time>2016-06-07T20:51:13Z</time>
      </trkpt>
      <trkpt lat="44.86121" lon="3.80991">
        <ele>1150.381</ele>
        <time>2016-06-07T20:50:53Z</time>
      </trkpt>
      <trkpt lat="44.86193" lon="3.80938">
        <ele>1151.326</ele>
        <time>2016-06-07T20:50:33Z</time>
      </trkpt>
      <trkpt lat="44.86222" lon="3.80877">
        <ele>1152.094</ele>
        <time>2016-06-07T20:50:13Z</time>
      </trkpt>
      <trkpt lat="44.86273" lon="3.8081">
        <ele>1152.823</ele>
        <time>2016-06-07T20:49:53Z</time>
      </trkpt>
      <trkpt lat="44.86343" lon="3.8071">
        <ele>1155.934</ele>
        <time>2016-06-07T20:49:33Z</time>
      </trkpt>
      <trkpt lat="44.8644" lon="3.80492">
        <ele>1162.358</ele>
        <time>2016-06-07T20:49:13Z</time>
      </trkpt>
      <trkpt lat="44.86459" lon="3.80426">
        <ele>1160.867</ele>
        <time>2016-06-07T20:48:53Z</time>
      </trkpt>
      <trkpt lat="44.86491" lon="3.80389">
        <ele>1159.312</ele>
        <time>2016-06-07T20:48:33Z</time>
      </trkpt>
      <trkpt lat="44.86525" lon="3.80371">
        <ele>1160.343</ele>
        <time>2016-06-07T20:48:13Z</time>
      </trkpt>
      <trkpt lat="44.86686" lon="3.80226">
        <ele>1167.008</ele>
        <time>2016-06-07T20:47:53Z</time>
      </trkpt>
      <trkpt lat="44.86741" lon="3.80188">
        <ele>1168.021</ele>
        <time>2016-06-07T20:47:33Z</time>
      </trkpt>
      <trkpt lat="44.86867" lon="3.80126">
        <ele>1171.256</ele>
        <time>2016-06-07T20:47:13Z</time>
      </trkpt>
      <trkpt lat="44.86899" lon="3.80099">
        <ele>1172.574</ele>
        <time>2016-06-07T20:46:53Z</time>
      </trkpt>
      <trkpt lat="44.87031" lon="3.80007">
        <ele>1179.033</ele>
        <time>2016-06-07T20:46:33Z</time>
      </trkpt>
      <trkpt lat="44.87076" lon="3.79967">
        <ele>1179.861</ele>
        <time>2016-06-07T20:46:13Z</time>
      </trkpt>
      <trkpt lat="44.87207" lon="3.79868">
        <ele>1190.53</ele>
        <time>2016-06-07T20:45:53Z</time>
      </trkpt>
      <trkpt lat="44.87361" lon="3.79777">
        <ele>1193.931</ele>
        <time>2016-06-07T20:45:33Z</time>
      </trkpt>
      <trkpt lat="44.87572" lon="3.79654">
        <ele>1192.645</ele>
        <time>2016-06-07T20:45:13Z</time>
      </trkpt>
      <trkpt lat="44.87611" lon="3.7964">
        <ele>1193.014</ele>
        <time>2016-06-07T20:44:53Z</time>
      </trkpt>
      <trkpt lat="44.87684" lon="3.79581">
        <ele>1193.039</ele>
        <time>2016-06-07T20:44:33Z</time>
      </trkpt>
      <trkpt lat="44.87812" lon="3.79444">
        <ele>1192.83</ele>
        <time>2016-06-07T20:44:13Z</time>
      </trkpt>
      <trkpt lat="44.87842" lon="3.79401">
        <ele>1193.108</ele>
        <time>2016-06-07T20:43:53Z</time>
      </trkpt>
      <trkpt lat="44.88025" lon="3.7927">
        <ele>1204.21</ele>
        <time>2016-06-07T20:43:33Z</time>
      </trkpt>
      <trkpt lat="44.88107" lon="3.79221">
        <ele>1206.964</ele>
        <time>2016-06-07T20:43:13Z</time>
      </trkpt>
      <trkpt lat="44.88329" lon="3.79136">
        <ele>1212.243</ele>
        <time>2019-03-25T17:10:51Z</time>
      </trkpt>
      <trkpt lat="44.88443" lon="3.79083">
        <ele>1214.036</ele>
        <time>2016-06-07T20:42:33Z</time>
      </trkpt>
      <trkpt lat="44.88559" lon="3.79058">
        <ele>1218.914</ele>
        <time>2016-06-07T20:42:13Z</time>
      </trkpt>
      <trkpt lat="44.88682" lon="3.7904">
        <ele>1218.093</ele>
        <time>2016-06-07T20:41:53Z</time>
      </trkpt>
      <trkpt lat="44.88794" lon="3.79019">
        <ele>1216.964</ele>
        <time>2016-06-07T20:41:33Z</time>
      </trkpt>
      <trkpt lat="44.88834" lon="3.79003">
        <ele>1217.058</ele>
        <time>2016-06-07T20:41:13Z</time>
      </trkpt>
      <trkpt lat="44.88969" lon="3.79097">
        <ele>1217.977</ele>
        <time>2016-06-07T20:40:53Z</time>
      </trkpt>
      <trkpt lat="44.89001" lon="3.79187">
        <ele>1218.222</ele>
        <time>2016-06-07T20:40:33Z</time>
      </trkpt>
      <trkpt lat="44.89056" lon="3.79432">
        <ele>1215.593</ele>
        <time>2016-06-07T20:40:13Z</time>
      </trkpt>
      <trkpt lat="44.89048" lon="3.79457">
        <ele>1215.308</ele>
        <time>2016-06-07T20:39:53Z</time>
      </trkpt>
      <trkpt lat="44.89044" lon="3.79555">
        <ele>1213.014</ele>
        <time>2016-06-07T20:39:33Z</time>
      </trkpt>
      <trkpt lat="44.89039" lon="3.7958">
        <ele>1212.113</ele>
        <time>2016-06-07T20:39:13Z</time>
      </trkpt>
      <trkpt lat="44.89002" lon="3.79608">
        <ele>1212.972</ele>
        <time>2016-06-07T20:38:53Z</time>
      </trkpt>
      <trkpt lat="44.88992" lon="3.7963">
        <ele>1212.727</ele>
        <time>2016-06-07T20:38:33Z</time>
      </trkpt>
      <trkpt lat="44.88949" lon="3.79968">
        <ele>1209.245</ele>
        <time>2016-06-07T20:38:13Z</time>
      </trkpt>
      <trkpt lat="44.8892" lon="3.80115">
        <ele>1209.744</ele>
        <time>2016-06-07T20:37:53Z</time>
      </trkpt>
      <trkpt lat="44.88999" lon="3.80166">
        <ele>1205.185</ele>
        <time>2016-06-07T20:37:33Z</time>
      </trkpt>
      <trkpt lat="44.89" lon="3.80204">
        <ele>1205.029</ele>
        <time>2016-06-07T20:37:13Z</time>
      </trkpt>
      <trkpt lat="44.88984" lon="3.80287">
        <ele>1204.818</ele>
        <time>2016-06-07T20:36:53Z</time>
      </trkpt>
      <trkpt lat="44.88945" lon="3.80412">
        <ele>1206.863</ele>
        <time>2016-06-07T20:36:33Z</time>
      </trkpt>
      <trkpt lat="44.88926" lon="3.80457">
        <ele>1206.074</ele>
        <time>2016-06-07T20:36:13Z</time>
      </trkpt>
      <trkpt lat="44.88934" lon="3.80501">
        <ele>1204.808</ele>
        <time>2016-06-07T20:35:53Z</time>
      </trkpt>
      <trkpt lat="44.88931" lon="3.80553">
        <ele>1205.017</ele>
        <time>2016-06-07T20:35:33Z</time>
      </trkpt>
      <trkpt lat="44.8895" lon="3.80655">
        <ele>1205.507</ele>
        <time>2016-06-07T20:35:13Z</time>
      </trkpt>
      <trkpt lat="44.88978" lon="3.80719">
        <ele>1204.784</ele>
        <time>2016-06-07T20:34:53Z</time>
      </trkpt>
      <trkpt lat="44.88974" lon="3.80802">
        <ele>1204.883</ele>
        <time>2016-06-07T20:34:33Z</time>
      </trkpt>
      <trkpt lat="44.88983" lon="3.80902">
        <ele>1195.531</ele>
        <time>2016-06-07T20:34:13Z</time>
      </trkpt>
      <trkpt lat="44.88966" lon="3.8096">
        <ele>1191.95</ele>
        <time>2016-06-07T20:33:53Z</time>
      </trkpt>
      <trkpt lat="44.88942" lon="3.81154">
        <ele>1175.281</ele>
        <time>2016-06-07T20:33:33Z</time>
      </trkpt>
      <trkpt lat="44.88934" lon="3.81235">
        <ele>1167.325</ele>
        <time>2016-06-07T20:33:13Z</time>
      </trkpt>
      <trkpt lat="44.889" lon="3.8129">
        <ele>1162.584</ele>
        <time>2016-06-07T20:32:53Z</time>
      </trkpt>
      <trkpt lat="44.88862" lon="3.81372">
        <ele>1159.079</ele>
        <time>2016-06-07T20:32:33Z</time>
      </trkpt>
      <trkpt lat="44.8884" lon="3.81409">
        <ele>1158.89</ele>
        <time>2016-06-07T20:32:13Z</time>
      </trkpt>
      <trkpt lat="44.88843" lon="3.81549">
        <ele>1156.808</ele>
        <time>2016-06-07T20:31:53Z</time>
      </trkpt>
      <trkpt lat="44.88834" lon="3.81762">
        <ele>1157.009</ele>
        <time>2016-06-07T20:31:33Z</time>
      </trkpt>
      <trkpt lat="44.88815" lon="3.81797">
        <ele>1155.681</ele>
        <time>2016-06-07T20:31:13Z</time>
      </trkpt>
      <trkpt lat="44.88793" lon="3.81884">
        <ele>1153.141</ele>
        <time>2016-06-07T20:30:53Z</time>
      </trkpt>
      <trkpt lat="44.88815" lon="3.81992">
        <ele>1151.91</ele>
        <time>2016-06-07T20:30:33Z</time>
      </trkpt>
      <trkpt lat="44.88746" lon="3.82221">
        <ele>1143.048</ele>
        <time>2016-06-07T20:30:13Z</time>
      </trkpt>
      <trkpt lat="44.88718" lon="3.82237">
        <ele>1142.687</ele>
        <time>2016-06-07T20:29:53Z</time>
      </trkpt>
      <trkpt lat="44.88695" lon="3.82284">
        <ele>1144.178</ele>
        <time>2016-06-07T20:29:33Z</time>
      </trkpt>
      <trkpt lat="44.88673" lon="3.82315">
        <ele>1146.862</ele>
        <time>2016-06-07T20:29:13Z</time>
      </trkpt>
      <trkpt lat="44.88658" lon="3.82425">
        <ele>1150.331</ele>
        <time>2016-06-07T20:28:53Z</time>
      </trkpt>
      <trkpt lat="44.88654" lon="3.82487">
        <ele>1148.326</ele>
        <time>2016-06-07T20:28:33Z</time>
      </trkpt>
      <trkpt lat="44.88639" lon="3.82536">
        <ele>1151.087</ele>
        <time>2016-06-07T20:28:13Z</time>
      </trkpt>
      <trkpt lat="44.88624" lon="3.82561">
        <ele>1151.908</ele>
        <time>2016-06-07T20:27:53Z</time>
      </trkpt>
      <trkpt lat="44.88613" lon="3.8261">
        <ele>1150.907</ele>
        <time>2016-06-07T20:27:33Z</time>
      </trkpt>
      <trkpt lat="44.88594" lon="3.82666">
        <ele>1149.943</ele>
        <time>2016-06-07T20:27:13Z</time>
      </trkpt>
      <trkpt lat="44.88596" lon="3.82707">
        <ele>1147.413</ele>
        <time>2016-06-07T20:26:53Z</time>
      </trkpt>
      <trkpt lat="44.88611" lon="3.82755">
        <ele>1142.826</ele>
        <time>2016-06-07T20:26:33Z</time>
      </trkpt>
      <trkpt lat="44.88619" lon="3.82813">
        <ele>1140.584</ele>
        <time>2016-06-07T20:26:13Z</time>
      </trkpt>
      <trkpt lat="44.88617" lon="3.82953">
        <ele>1137.993</ele>
        <time>2016-06-07T20:25:53Z</time>
      </trkpt>
      <trkpt lat="44.88605" lon="3.83048">
        <ele>1136.254</ele>
        <time>2016-06-07T20:25:33Z</time>
      </trkpt>
      <trkpt lat="44.88606" lon="3.83082">
        <ele>1134.118</ele>
        <time>2016-06-07T20:25:13Z</time>
      </trkpt>
      <trkpt lat="44.88601" lon="3.83135">
        <ele>1132.487</ele>
        <time>2016-06-07T20:24:53Z</time>
      </trkpt>
      <trkpt lat="44.88592" lon="3.83149">
        <ele>1132.722</ele>
        <time>2016-06-07T20:24:33Z</time>
      </trkpt>
      <trkpt lat="44.88585" lon="3.83225">
        <ele>1133.883</ele>
        <time>2016-06-07T20:24:13Z</time>
      </trkpt>
      <trkpt lat="44.88583" lon="3.83282">
        <ele>1131.608</ele>
        <time>2016-06-07T20:23:53Z</time>
      </trkpt>
      <trkpt lat="44.88571" lon="3.83348">
        <ele>1126.821</ele>
        <time>2016-06-07T20:23:33Z</time>
      </trkpt>
      <trkpt lat="44.88567" lon="3.83393">
        <ele>1122.956</ele>
        <time>2016-06-07T20:23:13Z</time>
      </trkpt>
      <trkpt lat="44.88523" lon="3.83561">
        <ele>1119.574</ele>
        <time>2019-03-25T16:50:51Z</time>
      </trkpt>
      <trkpt lat="44.88503" lon="3.83736">
        <ele>1115.353</ele>
        <time>2019-03-25T16:50:31Z</time>
      </trkpt>
      <trkpt lat="44.88457" lon="3.83969">
        <ele>1126.591</ele>
        <time>2019-03-25T16:50:11Z</time>
      </trkpt>
      <trkpt lat="44.88453" lon="3.84053">
        <ele>1128.39</ele>
        <time>2016-06-07T20:21:33Z</time>
      </trkpt>
      <trkpt lat="44.88434" lon="3.84099">
        <ele>1127.771</ele>
        <time>2016-06-07T20:21:13Z</time>
      </trkpt>
      <trkpt lat="44.88362" lon="3.84201">
        <ele>1115.445</ele>
        <time>2016-06-07T20:20:53Z</time>
      </trkpt>
      <trkpt lat="44.88324" lon="3.84241">
        <ele>1111.534</ele>
        <time>2016-06-07T20:20:33Z</time>
      </trkpt>
      <trkpt lat="44.88295" lon="3.84279">
        <ele>1110.239</ele>
        <time>2016-06-07T20:20:13Z</time>
      </trkpt>
      <trkpt lat="44.88263" lon="3.84345">
        <ele>1110.03</ele>
        <time>2016-06-07T20:19:53Z</time>
      </trkpt>
      <trkpt lat="44.88261" lon="3.84346">
        <ele>1109.908</ele>
        <time>2016-06-07T20:19:33Z</time>
      </trkpt>
      <trkpt lat="44.88207" lon="3.84419">
        <ele>1103.909</ele>
        <time>2016-06-07T20:19:13Z</time>
      </trkpt>
      <trkpt lat="44.88181" lon="3.84472">
        <ele>1100.581</ele>
        <time>2016-06-07T20:18:53Z</time>
      </trkpt>
      <trkpt lat="44.88163" lon="3.84524">
        <ele>1094.441</ele>
        <time>2016-06-07T20:18:33Z</time>
      </trkpt>
      <trkpt lat="44.88153" lon="3.84556">
        <ele>1093.084</ele>
        <time>2016-06-07T20:18:13Z</time>
      </trkpt>
      <trkpt lat="44.88101" lon="3.84607">
        <ele>1089.252</ele>
        <time>2016-06-07T20:17:53Z</time>
      </trkpt>
      <trkpt lat="44.88054" lon="3.84618">
        <ele>1088.861</ele>
        <time>2016-06-07T20:17:33Z</time>
      </trkpt>
      <trkpt lat="44.88039" lon="3.84632">
        <ele>1088.782</ele>
        <time>2016-06-07T20:17:13Z</time>
      </trkpt>
      <trkpt lat="44.88042" lon="3.84729">
        <ele>1086.416</ele>
        <time>2016-06-07T20:16:53Z</time>
      </trkpt>
      <trkpt lat="44.88036" lon="3.84743">
        <ele>1086.535</ele>
        <time>2016-06-07T20:16:33Z</time>
      </trkpt>
      <trkpt lat="44.8798" lon="3.84766">
        <ele>1090.67</ele>
        <time>2019-03-25T16:44:31Z</time>
      </trkpt>
      <trkpt lat="44.87995" lon="3.84849">
        <ele>1092.991</ele>
        <time>2019-03-25T16:44:11Z</time>
      </trkpt>
      <trkpt lat="44.88026" lon="3.8491">
        <ele>1092.908</ele>
        <time>2019-03-25T16:43:51Z</time>
      </trkpt>
      <trkpt lat="44.88013" lon="3.84978">
        <ele>1095.723</ele>
        <time>2019-03-25T16:43:31Z</time>
      </trkpt>
      <trkpt lat="44.88044" lon="3.85072">
        <ele>1090.303</ele>
        <time>2019-03-25T16:43:11Z</time>
      </trkpt>
      <trkpt lat="44.88069" lon="3.85236">
        <ele>1081.859</ele>
        <time>2016-06-07T20:14:13Z</time>
      </trkpt>
      <trkpt lat="44.88074" lon="3.85373">
        <ele>1083.88</ele>
        <time>2016-06-07T20:13:53Z</time>
      </trkpt>
      <trkpt lat="44.88153" lon="3.85655">
        <ele>1087.728</ele>
        <time>2019-03-25T16:42:11Z</time>
      </trkpt>
      <trkpt lat="44.88198" lon="3.85942">
        <ele>1076.987</ele>
        <time>2019-03-25T16:41:51Z</time>
      </trkpt>
      <trkpt lat="44.88252" lon="3.86141">
        <ele>1071.818</ele>
        <time>2019-03-25T16:41:31Z</time>
      </trkpt>
      <trkpt lat="44.88346" lon="3.8633">
        <ele>1063.562</ele>
        <time>2016-06-07T20:12:33Z</time>
      </trkpt>
      <trkpt lat="44.88413" lon="3.86693">
        <ele>1053.031</ele>
        <time>2016-06-07T20:12:13Z</time>
      </trkpt>
      <trkpt lat="44.88431" lon="3.86946">
        <ele>1047.046</ele>
        <time>2016-06-07T20:11:53Z</time>
      </trkpt>
      <trkpt lat="44.8846" lon="3.87114">
        <ele>1044.587</ele>
        <time>2016-06-07T20:11:33Z</time>
      </trkpt>
      <trkpt lat="44.88428" lon="3.87242">
        <ele>1046.908</ele>
        <time>2016-06-07T20:11:13Z</time>
      </trkpt>
      <trkpt lat="44.8841" lon="3.87403">
        <ele>1045.417</ele>
        <time>2016-06-07T20:10:53Z</time>
      </trkpt>
      <trkpt lat="44.88431" lon="3.87463">
        <ele>1045.598</ele>
        <time>2016-06-07T20:10:33Z</time>
      </trkpt>
      <trkpt lat="44.88445" lon="3.87571">
        <ele>1042.018</ele>
        <time>2016-06-07T20:10:13Z</time>
      </trkpt>
      <trkpt lat="44.885" lon="3.8757">
        <ele>1042.515</ele>
        <time>2019-03-25T16:38:31Z</time>
      </trkpt>
      <trkpt lat="44.88563" lon="3.87671">
        <ele>1039.253</ele>
        <time>2019-03-25T16:38:11Z</time>
      </trkpt>
      <trkpt lat="44.88559" lon="3.87702">
        <ele>1037.232</ele>
        <time>2016-06-07T20:09:13Z</time>
      </trkpt>
      <trkpt lat="44.88572" lon="3.88002">
        <ele>1028.273</ele>
        <time>2016-06-07T20:08:53Z</time>
      </trkpt>
      <trkpt lat="44.88631" lon="3.88044">
        <ele>1027.757</ele>
        <time>2019-03-25T16:37:11Z</time>
      </trkpt>
      <trkpt lat="44.88716" lon="3.88072">
        <ele>1029.156</ele>
        <time>2019-03-25T16:36:51Z</time>
      </trkpt>
      <trkpt lat="44.88746" lon="3.8812">
        <ele>1027.961</ele>
        <time>2016-06-07T20:07:53Z</time>
      </trkpt>
      <trkpt lat="44.88749" lon="3.88242">
        <ele>1020.532</ele>
        <time>2016-06-07T20:07:33Z</time>
      </trkpt>
      <trkpt lat="44.88676" lon="3.88241">
        <ele>1018.708</ele>
        <time>2019-03-25T16:35:51Z</time>
      </trkpt>
      <trkpt lat="44.88663" lon="3.88286">
        <ele>1015.419</ele>
        <time>2019-03-25T16:35:31Z</time>
      </trkpt>
      <trkpt lat="44.88671" lon="3.88361">
        <ele>1013.081</ele>
        <time>2019-03-25T16:35:11Z</time>
      </trkpt>
      <trkpt lat="44.88566" lon="3.88394">
        <ele>1014.367</ele>
        <time>2019-03-25T16:34:51Z</time>
      </trkpt>
      <trkpt lat="44.88565" lon="3.88431">
        <ele>1014.052</ele>
        <time>2019-03-25T16:34:31Z</time>
      </trkpt>
      <trkpt lat="44.88538" lon="3.88558">
        <ele>1008.92</ele>
        <time>2019-03-25T16:34:11Z</time>
      </trkpt>
      <trkpt lat="44.88503" lon="3.88586">
        <ele>1008.099</ele>
        <time>2019-03-25T16:33:51Z</time>
      </trkpt>
      <trkpt lat="44.88507" lon="3.88637">
        <ele>1007.74</ele>
        <time>2019-03-25T16:33:31Z</time>
      </trkpt>
      <trkpt lat="44.88453" lon="3.8876">
        <ele>1002.084</ele>
        <time>2019-03-25T16:33:11Z</time>
      </trkpt>
      <trkpt lat="44.88394" lon="3.88849">
        <ele>994.033</ele>
        <time>2019-03-25T16:32:51Z</time>
      </trkpt>
      <trkpt lat="44.88391" lon="3.88907">
        <ele>989.128</ele>
        <time>2019-03-25T16:32:31Z</time>
      </trkpt>
      <trkpt lat="44.88359" lon="3.88945">
        <ele>978.489</ele>
        <time>2019-03-25T16:32:11Z</time>
      </trkpt>
      <trkpt lat="44.88364" lon="3.88973">
        <ele>975.508</ele>
        <time>2019-03-25T16:31:51Z</time>
      </trkpt>
      <trkpt lat="44.88389" lon="3.88999">
        <ele>976.115</ele>
        <time>2019-03-25T16:31:31Z</time>
      </trkpt>
      <trkpt lat="44.88376" lon="3.89">
        <ele>974.623</ele>
        <time>2021-01-04T21:27:54Z</time>
      </trkpt>
      <trkpt lat="44.88368" lon="3.89011">
        <ele>972.533</ele>
        <time>2021-01-04T21:27:34Z</time>
      </trkpt>
      <trkpt lat="44.88296" lon="3.88999">
        <ele>974.136</ele>
        <time>2021-01-04T21:27:14Z</time>
      </trkpt>
      <trkpt lat="44.88275" lon="3.89012">
        <ele>976.834</ele>
        <time>2021-01-04T21:26:54Z</time>
      </trkpt>
      <trkpt lat="44.88268" lon="3.89041">
        <ele>978.033</ele>
        <time>2021-01-04T21:26:34Z</time>
      </trkpt>
      <trkpt lat="44.88275" lon="3.89081">
        <ele>976.954</ele>
        <time>2021-01-04T21:26:14Z</time>
      </trkpt>
      <trkpt lat="44.88295" lon="3.89112">
        <ele>976.628</ele>
        <time>2021-01-04T21:25:54Z</time>
      </trkpt>
      <trkpt lat="44.88564" lon="3.89217">
        <ele>967.127</ele>
        <time>2021-01-04T21:25:34Z</time>
      </trkpt>
      <trkpt lat="44.88602" lon="3.893">
        <ele>968.162</ele>
        <time>2021-01-04T21:25:14Z</time>
      </trkpt>
      <trkpt lat="44.88643" lon="3.89329">
        <ele>960.243</ele>
        <time>2021-01-04T21:24:54Z</time>
      </trkpt>
      <trkpt lat="44.88675" lon="3.89349">
        <ele>956.408</ele>
        <time>2021-01-04T21:24:34Z</time>
      </trkpt>
      <trkpt lat="44.8871" lon="3.89395">
        <ele>957.427</ele>
        <time>2021-01-04T21:24:14Z</time>
      </trkpt>
      <trkpt lat="44.88779" lon="3.89452">
        <ele>948.061</ele>
        <time>2021-01-04T21:23:54Z</time>
      </trkpt>
      <trkpt lat="44.88797" lon="3.89484">
        <ele>945.477</ele>
        <time>2021-01-04T21:23:34Z</time>
      </trkpt>
      <trkpt lat="44.88807" lon="3.8954">
        <ele>945.893</ele>
        <time>2021-01-04T21:23:14Z</time>
      </trkpt>
      <trkpt lat="44.88832" lon="3.89636">
        <ele>945.231</ele>
        <time>2021-01-04T21:22:54Z</time>
      </trkpt>
      <trkpt lat="44.8885" lon="3.89723">
        <ele>944.24</ele>
        <time>2021-01-04T21:22:34Z</time>
      </trkpt>
      <trkpt lat="44.8885" lon="3.89755">
        <ele>944.921</ele>
        <time>2021-01-04T21:22:14Z</time>
      </trkpt>
      <trkpt lat="44.88838" lon="3.89804">
        <ele>947.025</ele>
        <time>2021-01-04T21:21:54Z</time>
      </trkpt>
      <trkpt lat="44.88822" lon="3.89834">
        <ele>951.194</ele>
        <time>2021-01-04T21:21:34Z</time>
      </trkpt>
      <trkpt lat="44.88813" lon="3.89878">
        <ele>954.539</ele>
        <time>2021-01-04T21:21:14Z</time>
      </trkpt>
      <trkpt lat="44.88812" lon="3.89904">
        <ele>954.81</ele>
        <time>2021-01-04T21:20:54Z</time>
      </trkpt>
      <trkpt lat="44.88831" lon="3.8999">
        <ele>956.508</ele>
        <time>2021-01-04T21:20:34Z</time>
      </trkpt>
      <trkpt lat="44.88838" lon="3.90048">
        <ele>960.721</ele>
        <time>2021-01-04T21:20:14Z</time>
      </trkpt>
      <trkpt lat="44.88851" lon="3.90117">
        <ele>961.729</ele>
        <time>2021-01-04T21:19:54Z</time>
      </trkpt>
      <trkpt lat="44.88846" lon="3.90152">
        <ele>966.447</ele>
        <time>2021-01-04T21:19:34Z</time>
      </trkpt>
      <trkpt lat="44.88855" lon="3.90202">
        <ele>967.341</ele>
        <time>2021-01-04T21:19:14Z</time>
      </trkpt>
      <trkpt lat="44.88898" lon="3.90287">
        <ele>965.139</ele>
        <time>2021-01-04T21:18:54Z</time>
      </trkpt>
      <trkpt lat="44.889" lon="3.90305">
        <ele>965.338</ele>
        <time>2021-01-04T21:18:34Z</time>
      </trkpt>
      <trkpt lat="44.88885" lon="3.90376">
        <ele>959.529</ele>
        <time>2021-01-04T21:18:14Z</time>
      </trkpt>
      <trkpt lat="44.88874" lon="3.90401">
        <ele>957.213</ele>
        <time>2021-01-04T21:17:54Z</time>
      </trkpt>
      <trkpt lat="44.88851" lon="3.90425">
        <ele>959.062</ele>
        <time>2021-01-04T21:17:34Z</time>
      </trkpt>
      <trkpt lat="44.88798" lon="3.90435">
        <ele>960.427</ele>
        <time>2021-01-04T21:17:14Z</time>
      </trkpt>
      <trkpt lat="44.88739" lon="3.90461">
        <ele>955.838</ele>
        <time>2021-01-04T21:16:54Z</time>
      </trkpt>
      <trkpt lat="44.88696" lon="3.90493">
        <ele>951.608</ele>
        <time>2021-01-04T21:16:34Z</time>
      </trkpt>
      <trkpt lat="44.88614" lon="3.90534">
        <ele>948.605</ele>
        <time>2021-01-04T21:16:14Z</time>
      </trkpt>
      <trkpt lat="44.88589" lon="3.90526">
        <ele>949.341</ele>
        <time>2021-01-04T21:15:54Z</time>
      </trkpt>
      <trkpt lat="44.88582" lon="3.90572">
        <ele>946.421</ele>
        <time>2016-06-07T19:55:53Z</time>
      </trkpt>
      <trkpt lat="44.88592" lon="3.90618">
        <ele>949.566</ele>
        <time>2016-06-07T19:55:33Z</time>
      </trkpt>
      <trkpt lat="44.88616" lon="3.90661">
        <ele>954.674</ele>
        <time>2016-06-07T19:55:13Z</time>
      </trkpt>
      <trkpt lat="44.88622" lon="3.90715">
        <ele>953.883</ele>
        <time>2016-06-07T19:54:53Z</time>
      </trkpt>
      <trkpt lat="44.88619" lon="3.90792">
        <ele>955.224</ele>
        <time>2016-06-07T19:54:33Z</time>
      </trkpt>
      <trkpt lat="44.88613" lon="3.90815">
        <ele>955.478</ele>
        <time>2016-06-07T19:54:13Z</time>
      </trkpt>
      <trkpt lat="44.88622" lon="3.90862">
        <ele>956.057</ele>
        <time>2016-06-07T19:53:53Z</time>
      </trkpt>
      <trkpt lat="44.88617" lon="3.90905">
        <ele>955.252</ele>
        <time>2016-06-07T19:53:33Z</time>
      </trkpt>
      <trkpt lat="44.88615" lon="3.91031">
        <ele>948.493</ele>
        <time>2016-06-07T19:53:13Z</time>
      </trkpt>
      <trkpt lat="44.8862" lon="3.91127">
        <ele>939.208</ele>
        <time>2016-06-07T19:52:53Z</time>
      </trkpt>
      <trkpt lat="44.88612" lon="3.91146">
        <ele>937.015</ele>
        <time>2016-06-07T19:52:33Z</time>
      </trkpt>
      <trkpt lat="44.88574" lon="3.91154">
        <ele>931.441</ele>
        <time>2016-06-07T19:52:13Z</time>
      </trkpt>
      <trkpt lat="44.88545" lon="3.91153">
        <ele>931.271</ele>
        <time>2016-06-07T19:51:53Z</time>
      </trkpt>
      <trkpt lat="44.88574" lon="3.91179">
        <ele>923.25</ele>
        <time>2016-06-07T19:51:33Z</time>
      </trkpt>
      <trkpt lat="44.88583" lon="3.91204">
        <ele>917.078</ele>
        <time>2016-06-07T19:51:13Z</time>
      </trkpt>
      <trkpt lat="44.88576" lon="3.9125">
        <ele>908.227</ele>
        <time>2016-06-07T19:50:53Z</time>
      </trkpt>
      <trkpt lat="44.88574" lon="3.91297">
        <ele>902.498</ele>
        <time>2016-06-07T19:50:33Z</time>
      </trkpt>
      <trkpt lat="44.88564" lon="3.91334">
        <ele>894.032</ele>
        <time>2016-06-07T19:50:13Z</time>
      </trkpt>
      <trkpt lat="44.88566" lon="3.91365">
        <ele>890.321</ele>
        <time>2016-06-07T19:49:53Z</time>
      </trkpt>
      <trkpt lat="44.88572" lon="3.91383">
        <ele>890.196</ele>
        <time>2016-06-07T19:49:33Z</time>
      </trkpt>
      <trkpt lat="44.88587" lon="3.91397">
        <ele>890.717</ele>
        <time>2016-06-07T19:49:13Z</time>
      </trkpt>
      <trkpt lat="44.88638" lon="3.91392">
        <ele>891.208</ele>
        <time>2016-06-07T19:48:53Z</time>
      </trkpt>
      <trkpt lat="44.88672" lon="3.91374">
        <ele>887.811</ele>
        <time>2016-06-07T19:48:33Z</time>
      </trkpt>
      <trkpt lat="44.88705" lon="3.91336">
        <ele>887.665</ele>
        <time>2016-06-07T19:48:13Z</time>
      </trkpt>
      <trkpt lat="44.88721" lon="3.91327">
        <ele>886.315</ele>
        <time>2016-06-07T19:47:53Z</time>
      </trkpt>
      <trkpt lat="44.88836" lon="3.91348">
        <ele>856.857</ele>
        <time>2016-06-07T19:47:33Z</time>
      </trkpt>
      <trkpt lat="44.88898" lon="3.91366">
        <ele>845.745</ele>
        <time>2016-06-07T19:47:13Z</time>
      </trkpt>
      <trkpt lat="44.88921" lon="3.9137">
        <ele>842.084</ele>
        <time>2016-06-07T19:46:53Z</time>
      </trkpt>
      <trkpt lat="44.88934" lon="3.91386">
        <ele>836.315</ele>
        <time>2016-06-07T19:46:33Z</time>
      </trkpt>
      <trkpt lat="44.88968" lon="3.91382">
        <ele>830.149</ele>
        <time>2016-06-07T19:46:13Z</time>
      </trkpt>
      <trkpt lat="44.88973" lon="3.91408">
        <ele>817.938</ele>
        <time>2016-06-07T19:45:53Z</time>
      </trkpt>
      <trkpt lat="44.89004" lon="3.91417">
        <ele>804.443</ele>
        <time>2016-06-07T19:45:33Z</time>
      </trkpt>
      <trkpt lat="44.8902" lon="3.91408">
        <ele>803.494</ele>
        <time>2016-06-07T19:45:13Z</time>
      </trkpt>
      <trkpt lat="44.89027" lon="3.91433">
        <ele>798.708</ele>
        <time>2016-06-07T19:44:53Z</time>
      </trkpt>
      <trkpt lat="44.89023" lon="3.91459">
        <ele>796.926</ele>
        <time>2016-06-07T19:44:33Z</time>
      </trkpt>
      <trkpt lat="44.89022" lon="3.91583">
        <ele>795.424</ele>
        <time>2016-06-07T19:44:13Z</time>
      </trkpt>
      <trkpt lat="44.89034" lon="3.91636">
        <ele>795.788</ele>
        <time>2016-06-07T19:43:53Z</time>
      </trkpt>
      <trkpt lat="44.89048" lon="3.91643">
        <ele>795.128</ele>
        <time>2016-06-07T19:43:33Z</time>
      </trkpt>
      <trkpt lat="44.89019" lon="3.91904">
        <ele>792.226</ele>
        <time>2016-06-07T19:43:13Z</time>
      </trkpt>
      <trkpt lat="44.88983" lon="3.92062">
        <ele>780.385</ele>
        <time>2016-06-07T19:42:53Z</time>
      </trkpt>
      <trkpt lat="44.88982" lon="3.92109">
        <ele>773.366</ele>
        <time>2016-06-07T19:42:33Z</time>
      </trkpt>
      <trkpt lat="44.88966" lon="3.92184">
        <ele>766.09</ele>
        <time>2016-06-07T19:42:13Z</time>
      </trkpt>
      <trkpt lat="44.88935" lon="3.92196">
        <ele>763.099</ele>
        <time>2016-06-07T19:41:53Z</time>
      </trkpt>
      <trkpt lat="44.88892" lon="3.92229">
        <ele>768.454</ele>
        <time>2016-06-07T19:41:33Z</time>
      </trkpt>
      <trkpt lat="44.88888" lon="3.92248">
        <ele>770.935</ele>
        <time>2016-06-07T19:41:13Z</time>
      </trkpt>
      <trkpt lat="44.88931" lon="3.92307">
        <ele>766.308</ele>
        <time>2016-06-07T19:40:53Z</time>
      </trkpt>
      <trkpt lat="44.8892" lon="3.92351">
        <ele>769.324</ele>
        <time>2016-06-07T19:40:33Z</time>
      </trkpt>
      <trkpt lat="44.88926" lon="3.92405">
        <ele>768.931</ele>
        <time>2016-06-07T19:40:13Z</time>
      </trkpt>
      <trkpt lat="44.88915" lon="3.92459">
        <ele>771.596</ele>
        <time>2016-06-07T19:39:53Z</time>
      </trkpt>
      <trkpt lat="44.8898" lon="3.92473">
        <ele>776.294</ele>
        <time>2016-06-07T19:39:33Z</time>
      </trkpt>
      <trkpt lat="44.89006" lon="3.92447">
        <ele>776.262</ele>
        <time>2016-06-07T19:39:13Z</time>
      </trkpt>
      <trkpt lat="44.89074" lon="3.92477">
        <ele>790.971</ele>
        <time>2016-06-07T19:38:53Z</time>
      </trkpt>
      <trkpt lat="44.89091" lon="3.92494">
        <ele>796.562</ele>
        <time>2016-06-07T19:38:33Z</time>
      </trkpt>
      <trkpt lat="44.891" lon="3.92507">
        <ele>799.946</ele>
        <time>2016-06-07T19:38:13Z</time>
      </trkpt>
      <trkpt lat="44.89113" lon="3.92499">
        <ele>802.465</ele>
        <time>2016-06-07T19:37:53Z</time>
      </trkpt>
      <trkpt lat="44.89197" lon="3.92372">
        <ele>814.02</ele>
        <time>2016-06-07T19:37:33Z</time>
      </trkpt>
      <trkpt lat="44.8929" lon="3.92267">
        <ele>828.731</ele>
        <time>2016-06-07T19:37:13Z</time>
      </trkpt>
      <trkpt lat="44.89321" lon="3.92242">
        <ele>833.008</ele>
        <time>2016-06-07T19:36:53Z</time>
      </trkpt>
      <trkpt lat="44.89341" lon="3.92243">
        <ele>837.811</ele>
        <time>2016-06-07T19:36:33Z</time>
      </trkpt>
      <trkpt lat="44.89341" lon="3.92255">
        <ele>840.056</ele>
        <time>2016-06-07T19:36:13Z</time>
      </trkpt>
      <trkpt lat="44.89328" lon="3.92268">
        <ele>840.654</ele>
        <time>2016-06-07T19:35:53Z</time>
      </trkpt>
      <trkpt lat="44.89345" lon="3.92273">
        <ele>844.41</ele>
        <time>2016-06-07T19:35:33Z</time>
      </trkpt>
      <trkpt lat="44.89356" lon="3.92291">
        <ele>850.348</ele>
        <time>2016-06-07T19:35:13Z</time>
      </trkpt>
      <trkpt lat="44.89372" lon="3.92305">
        <ele>854.197</ele>
        <time>2016-06-07T19:34:53Z</time>
      </trkpt>
      <trkpt lat="44.89349" lon="3.92314">
        <ele>853.168</ele>
        <time>2021-01-04T20:54:14Z</time>
      </trkpt>
      <trkpt lat="44.89347" lon="3.9241">
        <ele>876.942</ele>
        <time>2016-06-07T19:32:53Z</time>
      </trkpt>
      <trkpt lat="44.8933" lon="3.92514">
        <ele>894.141</ele>
        <time>2016-06-07T19:32:33Z</time>
      </trkpt>
      <trkpt lat="44.89351" lon="3.92587">
        <ele>908.056</ele>
        <time>2021-01-04T20:53:14Z</time>
      </trkpt>
      <trkpt lat="44.8934" lon="3.92609">
        <ele>912.497</ele>
        <time>2021-01-04T20:52:54Z</time>
      </trkpt>
      <trkpt lat="44.89353" lon="3.9266">
        <ele>926.908</ele>
        <time>2016-06-07T19:31:13Z</time>
      </trkpt>
      <trkpt lat="44.89364" lon="3.92719">
        <ele>930.909</ele>
        <time>2021-01-04T20:52:14Z</time>
      </trkpt>
      <trkpt lat="44.89341" lon="3.9278">
        <ele>944.754</ele>
        <time>2016-06-07T19:30:13Z</time>
      </trkpt>
      <trkpt lat="44.8934" lon="3.92798">
        <ele>946.914</ele>
        <time>2016-06-07T19:29:53Z</time>
      </trkpt>
      <trkpt lat="44.89351" lon="3.92891">
        <ele>960.454</ele>
        <time>2016-06-07T19:29:33Z</time>
      </trkpt>
      <trkpt lat="44.8938" lon="3.92911">
        <ele>962.242</ele>
        <time>2016-06-07T19:29:13Z</time>
      </trkpt>
      <trkpt lat="44.89427" lon="3.92969">
        <ele>972.321</ele>
        <time>2016-06-07T19:28:53Z</time>
      </trkpt>
      <trkpt lat="44.89409" lon="3.93016">
        <ele>974.052</ele>
        <time>2016-06-07T19:28:33Z</time>
      </trkpt>
      <trkpt lat="44.89411" lon="3.93043">
        <ele>975.116</ele>
        <time>2016-06-07T19:28:13Z</time>
      </trkpt>
      <trkpt lat="44.89427" lon="3.9307">
        <ele>978.325</ele>
        <time>2016-06-07T19:27:53Z</time>
      </trkpt>
      <trkpt lat="44.89471" lon="3.93104">
        <ele>982.41</ele>
        <time>2016-06-07T19:27:33Z</time>
      </trkpt>
      <trkpt lat="44.89512" lon="3.93146">
        <ele>982.241</ele>
        <time>2016-06-07T19:27:13Z</time>
      </trkpt>
      <trkpt lat="44.89563" lon="3.93155">
        <ele>985.508</ele>
        <time>2016-06-07T19:26:53Z</time>
      </trkpt>
      <trkpt lat="44.89653" lon="3.93142">
        <ele>987.208</ele>
        <time>2016-06-07T19:26:33Z</time>
      </trkpt>
      <trkpt lat="44.89786" lon="3.93113">
        <ele>997.353</ele>
        <time>2016-06-07T19:26:13Z</time>
      </trkpt>
      <trkpt lat="44.89866" lon="3.9311">
        <ele>1002.952</ele>
        <time>2016-06-07T19:25:53Z</time>
      </trkpt>
      <trkpt lat="44.89904" lon="3.9312">
        <ele>1003.354</ele>
        <time>2016-06-07T19:25:33Z</time>
      </trkpt>
      <trkpt lat="44.89983" lon="3.93097">
        <ele>1005.912</ele>
        <time>2016-06-07T19:25:13Z</time>
      </trkpt>
      <trkpt lat="44.90051" lon="3.93086">
        <ele>1002.661</ele>
        <time>2016-06-07T19:24:53Z</time>
      </trkpt>
      <trkpt lat="44.901" lon="3.93099">
        <ele>1002.262</ele>
        <time>2016-06-07T19:24:33Z</time>
      </trkpt>
      <trkpt lat="44.90161" lon="3.93138">
        <ele>1003.256</ele>
        <time>2016-06-07T19:24:13Z</time>
      </trkpt>
      <trkpt lat="44.90208" lon="3.93152">
        <ele>1004.245</ele>
        <time>2016-06-07T19:23:53Z</time>
      </trkpt>
      <trkpt lat="44.90264" lon="3.93142">
        <ele>999.33</ele>
        <time>2016-06-07T19:23:33Z</time>
      </trkpt>
      <trkpt lat="44.90337" lon="3.93212">
        <ele>999.141</ele>
        <time>2016-06-07T19:23:13Z</time>
      </trkpt>
      <trkpt lat="44.90377" lon="3.93273">
        <ele>1000.608</ele>
        <time>2016-06-07T19:22:53Z</time>
      </trkpt>
      <trkpt lat="44.90407" lon="3.93301">
        <ele>998.308</ele>
        <time>2016-06-07T19:22:33Z</time>
      </trkpt>
      <trkpt lat="44.90457" lon="3.93329">
        <ele>991.753</ele>
        <time>2016-06-07T19:22:13Z</time>
      </trkpt>
      <trkpt lat="44.90482" lon="3.93404">
        <ele>997.752</ele>
        <time>2016-06-07T19:21:53Z</time>
      </trkpt>
      <trkpt lat="44.90496" lon="3.93418">
        <ele>998.233</ele>
        <time>2016-06-07T19:21:33Z</time>
      </trkpt>
      <trkpt lat="44.90501" lon="3.93432">
        <ele>999.241</ele>
        <time>2016-06-07T19:21:13Z</time>
      </trkpt>
      <trkpt lat="44.90527" lon="3.93453">
        <ele>1001.69</ele>
        <time>2019-03-25T15:48:11Z</time>
      </trkpt>
      <trkpt lat="44.90555" lon="3.9346">
        <ele>1003.121</ele>
        <time>2019-03-25T15:47:51Z</time>
      </trkpt>
      <trkpt lat="44.90548" lon="3.935">
        <ele>1006.065</ele>
        <time>2016-06-07T19:20:13Z</time>
      </trkpt>
      <trkpt lat="44.90561" lon="3.93518">
        <ele>1007.534</ele>
        <time>2016-06-07T19:19:53Z</time>
      </trkpt>
      <trkpt lat="44.9057" lon="3.93519">
        <ele>1007.959</ele>
        <time>2016-06-07T19:19:33Z</time>
      </trkpt>
      <trkpt lat="44.90583" lon="3.93578">
        <ele>1010.87</ele>
        <time>2016-06-07T19:19:13Z</time>
      </trkpt>
      <trkpt lat="44.9069" lon="3.93586">
        <ele>1012.608</ele>
        <time>2016-06-07T19:18:53Z</time>
      </trkpt>
      <trkpt lat="44.9075" lon="3.93569">
        <ele>1005.414</ele>
        <time>2016-06-07T19:18:33Z</time>
      </trkpt>
      <trkpt lat="44.90798" lon="3.93563">
        <ele>1002.022</ele>
        <time>2016-06-07T19:17:53Z</time>
      </trkpt>
      <trkpt lat="44.90867" lon="3.93601">
        <ele>998.942</ele>
        <time>2016-06-07T19:17:33Z</time>
      </trkpt>
      <trkpt lat="44.90904" lon="3.93591">
        <ele>993.325</ele>
        <time>2016-06-07T19:17:13Z</time>
      </trkpt>
      <trkpt lat="44.90975" lon="3.93625">
        <ele>982.113</ele>
        <time>2016-06-07T19:16:53Z</time>
      </trkpt>
      <trkpt lat="44.91064" lon="3.93683">
        <ele>978.022</ele>
        <time>2016-06-07T19:16:33Z</time>
      </trkpt>
      <trkpt lat="44.91114" lon="3.93693">
        <ele>973.513</ele>
        <time>2016-06-07T19:16:13Z</time>
      </trkpt>
      <trkpt lat="44.91173" lon="3.93756">
        <ele>969.637</ele>
        <time>2016-06-07T19:15:53Z</time>
      </trkpt>
      <trkpt lat="44.9129" lon="3.93764">
        <ele>958.136</ele>
        <time>2016-06-07T19:15:33Z</time>
      </trkpt>
      <trkpt lat="44.9129" lon="3.93764">
        <ele>958.131</ele>
        <time>2016-06-07T19:15:13Z</time>
      </trkpt>
      <trkpt lat="44.91316" lon="3.93785">
        <ele>957.132</ele>
        <time>2016-06-07T19:14:53Z</time>
      </trkpt>
      <trkpt lat="44.91411" lon="3.93813">
        <ele>951.008</ele>
        <time>2016-06-07T19:14:33Z</time>
      </trkpt>
      <trkpt lat="44.91479" lon="3.93855">
        <ele>948.118</ele>
        <time>2016-06-07T19:14:13Z</time>
      </trkpt>
      <trkpt lat="44.91539" lon="3.93873">
        <ele>946.644</ele>
        <time>2016-06-07T19:13:53Z</time>
      </trkpt>
      <trkpt lat="44.91587" lon="3.93878">
        <ele>944.163</ele>
        <time>2016-06-07T19:13:33Z</time>
      </trkpt>
      <trkpt lat="44.91623" lon="3.93869">
        <ele>944.676</ele>
        <time>2016-06-07T19:13:13Z</time>
      </trkpt>
      <trkpt lat="44.9166" lon="3.93867">
        <ele>942.724</ele>
        <time>2016-06-07T19:12:53Z</time>
      </trkpt>
      <trkpt lat="44.91727" lon="3.93851">
        <ele>941.273</ele>
        <time>2016-06-07T19:12:33Z</time>
      </trkpt>
      <trkpt lat="44.91756" lon="3.93889">
        <ele>942.214</ele>
        <time>2016-06-07T19:12:13Z</time>
      </trkpt>
      <trkpt lat="44.91779" lon="3.93938">
        <ele>942.198</ele>
        <time>2016-06-07T19:11:53Z</time>
      </trkpt>
      <trkpt lat="44.9179" lon="3.93954">
        <ele>940.977</ele>
        <time>2016-06-07T19:11:33Z</time>
      </trkpt>
      <trkpt lat="44.91846" lon="3.93963">
        <ele>939.252</ele>
        <time>2016-06-07T19:11:13Z</time>
      </trkpt>
      <trkpt lat="44.91857" lon="3.93985">
        <ele>939.143</ele>
        <time>2016-06-07T19:10:53Z</time>
      </trkpt>
      <trkpt lat="44.91853" lon="3.94016">
        <ele>939.308</ele>
        <time>2016-06-07T19:10:33Z</time>
      </trkpt>
      <trkpt lat="44.91819" lon="3.94086">
        <ele>939.42</ele>
        <time>2016-06-07T19:10:13Z</time>
      </trkpt>
      <trkpt lat="44.91842" lon="3.94108">
        <ele>938.128</ele>
        <time>2016-06-07T19:09:53Z</time>
      </trkpt>
      <trkpt lat="44.91851" lon="3.94136">
        <ele>937.475</ele>
        <time>2016-06-07T19:09:33Z</time>
      </trkpt>
      <trkpt lat="44.9185" lon="3.94161">
        <ele>937.213</ele>
        <time>2016-06-07T19:09:13Z</time>
      </trkpt>
      <trkpt lat="44.91856" lon="3.94182">
        <ele>937.151</ele>
        <time>2016-06-07T19:08:53Z</time>
      </trkpt>
      <trkpt lat="44.9186" lon="3.94218">
        <ele>938.89</ele>
        <time>2016-06-07T19:08:33Z</time>
      </trkpt>
      <trkpt lat="44.91869" lon="3.94242">
        <ele>939.441</ele>
        <time>2016-06-07T19:08:13Z</time>
      </trkpt>
      <trkpt lat="44.91891" lon="3.94245">
        <ele>938.675</ele>
        <time>2016-06-07T19:07:53Z</time>
      </trkpt>
      <trkpt lat="44.91938" lon="3.94309">
        <ele>936.464</ele>
        <time>2016-06-07T19:07:33Z</time>
      </trkpt>
      <trkpt lat="44.91966" lon="3.94355">
        <ele>934.339</ele>
        <time>2016-06-07T19:07:13Z</time>
      </trkpt>
      <trkpt lat="44.92012" lon="3.94508">
        <ele>925.14</ele>
        <time>2016-06-07T19:06:53Z</time>
      </trkpt>
      <trkpt lat="44.92006" lon="3.94664">
        <ele>923.508</ele>
        <time>2016-06-07T19:06:33Z</time>
      </trkpt>
      <trkpt lat="44.9201" lon="3.94688">
        <ele>924.115</ele>
        <time>2016-06-07T19:06:13Z</time>
      </trkpt>
      <trkpt lat="44.9202" lon="3.94705">
        <ele>924.705</ele>
        <time>2016-06-07T19:05:53Z</time>
      </trkpt>
      <trkpt lat="44.92043" lon="3.94706">
        <ele>927.344</ele>
        <time>2016-06-07T19:05:33Z</time>
      </trkpt>
      <trkpt lat="44.92062" lon="3.94689">
        <ele>929.144</ele>
        <time>2016-06-07T19:05:13Z</time>
      </trkpt>
      <trkpt lat="44.92084" lon="3.94664">
        <ele>931.912</ele>
        <time>2016-06-07T19:04:53Z</time>
      </trkpt>
      <trkpt lat="44.92102" lon="3.94664">
        <ele>935.391</ele>
        <time>2016-06-07T19:04:33Z</time>
      </trkpt>
      <trkpt lat="44.9223" lon="3.94752">
        <ele>955.242</ele>
        <time>2016-06-07T19:04:13Z</time>
      </trkpt>
      <trkpt lat="44.92283" lon="3.94802">
        <ele>956.196</ele>
        <time>2016-06-07T19:03:53Z</time>
      </trkpt>
      <trkpt lat="44.92326" lon="3.94876">
        <ele>958.135</ele>
        <time>2016-06-07T19:03:33Z</time>
      </trkpt>
      <trkpt lat="44.92361" lon="3.94953">
        <ele>956.61</ele>
        <time>2016-06-07T19:03:13Z</time>
      </trkpt>
      <trkpt lat="44.92373" lon="3.95002">
        <ele>959.021</ele>
        <time>2016-06-07T19:02:53Z</time>
      </trkpt>
      <trkpt lat="44.92428" lon="3.95392">
        <ele>964.208</ele>
        <time>2019-03-25T15:30:11Z</time>
      </trkpt>
      <trkpt lat="44.92398" lon="3.9543">
        <ele>969.511</ele>
        <time>2019-03-25T15:29:51Z</time>
      </trkpt>
      <trkpt lat="44.92391" lon="3.95498">
        <ele>974.556</ele>
        <time>2016-06-07T19:00:53Z</time>
      </trkpt>
      <trkpt lat="44.92396" lon="3.95564">
        <ele>973.054</ele>
        <time>2016-06-07T19:00:33Z</time>
      </trkpt>
      <trkpt lat="44.9239" lon="3.95598">
        <ele>973.891</ele>
        <time>2016-06-07T19:00:13Z</time>
      </trkpt>
      <trkpt lat="44.92396" lon="3.95617">
        <ele>973.189</ele>
        <time>2016-06-07T18:59:53Z</time>
      </trkpt>
      <trkpt lat="44.92427" lon="3.95634">
        <ele>969.958</ele>
        <time>2016-06-07T18:59:33Z</time>
      </trkpt>
      <trkpt lat="44.92453" lon="3.95657">
        <ele>966.939</ele>
        <time>2016-06-07T18:59:13Z</time>
      </trkpt>
      <trkpt lat="44.92453" lon="3.95657">
        <ele>966.963</ele>
        <time>2016-06-07T18:58:53Z</time>
      </trkpt>
      <trkpt lat="44.92474" lon="3.95725">
        <ele>963.922</ele>
        <time>2016-06-07T18:58:33Z</time>
      </trkpt>
      <trkpt lat="44.92492" lon="3.95763">
        <ele>961.977</ele>
        <time>2016-06-07T18:58:13Z</time>
      </trkpt>
      <trkpt lat="44.92527" lon="3.95849">
        <ele>954.928</ele>
        <time>2016-06-07T18:57:53Z</time>
      </trkpt>
      <trkpt lat="44.92532" lon="3.95874">
        <ele>953.108</ele>
        <time>2016-06-07T18:57:33Z</time>
      </trkpt>
      <trkpt lat="44.92523" lon="3.95915">
        <ele>951.911</ele>
        <time>2016-06-07T18:57:13Z</time>
      </trkpt>
      <trkpt lat="44.92526" lon="3.95933">
        <ele>953.183</ele>
        <time>2016-06-07T18:56:53Z</time>
      </trkpt>
      <trkpt lat="44.92553" lon="3.95953">
        <ele>956.723</ele>
        <time>2016-06-07T18:56:33Z</time>
      </trkpt>
      <trkpt lat="44.92543" lon="3.95971">
        <ele>957.984</ele>
        <time>2016-06-07T18:56:13Z</time>
      </trkpt>
      <trkpt lat="44.92545" lon="3.95992">
        <ele>959.912</ele>
        <time>2016-06-07T18:55:53Z</time>
      </trkpt>
      <trkpt lat="44.92585" lon="3.96059">
        <ele>963.841</ele>
        <time>2016-06-07T18:55:33Z</time>
      </trkpt>
      <trkpt lat="44.92608" lon="3.96116">
        <ele>959.282</ele>
        <time>2016-06-07T18:55:13Z</time>
      </trkpt>
      <trkpt lat="44.92611" lon="3.96187">
        <ele>951.956</ele>
        <time>2016-06-07T18:54:53Z</time>
      </trkpt>
      <trkpt lat="44.92622" lon="3.96203">
        <ele>949.835</ele>
        <time>2016-06-07T18:54:33Z</time>
      </trkpt>
      <trkpt lat="44.92646" lon="3.9621">
        <ele>946.88</ele>
        <time>2016-06-07T18:54:13Z</time>
      </trkpt>
      <trkpt lat="44.92662" lon="3.9622">
        <ele>943.891</ele>
        <time>2016-06-07T18:53:53Z</time>
      </trkpt>
      <trkpt lat="44.9269" lon="3.96277">
        <ele>938.408</ele>
        <time>2016-06-07T18:53:33Z</time>
      </trkpt>
      <trkpt lat="44.92712" lon="3.96285">
        <ele>936.523</ele>
        <time>2016-06-07T18:53:13Z</time>
      </trkpt>
      <trkpt lat="44.92741" lon="3.96308">
        <ele>932.803</ele>
        <time>2016-06-07T18:52:53Z</time>
      </trkpt>
      <trkpt lat="44.92761" lon="3.96345">
        <ele>930.559</ele>
        <time>2016-06-07T18:52:33Z</time>
      </trkpt>
      <trkpt lat="44.92809" lon="3.96392">
        <ele>936.643</ele>
        <time>2016-06-07T18:52:13Z</time>
      </trkpt>
      <trkpt lat="44.92864" lon="3.96518">
        <ele>944.351</ele>
        <time>2016-06-07T18:51:53Z</time>
      </trkpt>
      <trkpt lat="44.92891" lon="3.96535">
        <ele>945.41</ele>
        <time>2016-06-07T18:51:33Z</time>
      </trkpt>
      <trkpt lat="44.92916" lon="3.96537">
        <ele>946.381</ele>
        <time>2016-06-07T18:51:13Z</time>
      </trkpt>
      <trkpt lat="44.92935" lon="3.96529">
        <ele>947.585</ele>
        <time>2016-06-07T18:50:53Z</time>
      </trkpt>
      <trkpt lat="44.92962" lon="3.96543">
        <ele>953.544</ele>
        <time>2016-06-07T18:50:33Z</time>
      </trkpt>
      <trkpt lat="44.93004" lon="3.96583">
        <ele>959.099</ele>
        <time>2016-06-07T18:50:13Z</time>
      </trkpt>
      <trkpt lat="44.93029" lon="3.96574">
        <ele>958.67</ele>
        <time>2016-06-07T18:49:53Z</time>
      </trkpt>
      <trkpt lat="44.93064" lon="3.96591">
        <ele>957.008</ele>
        <time>2016-06-07T18:49:33Z</time>
      </trkpt>
      <trkpt lat="44.93112" lon="3.96631">
        <ele>953.716</ele>
        <time>2016-06-07T18:49:13Z</time>
      </trkpt>
      <trkpt lat="44.93143" lon="3.96643">
        <ele>952.788</ele>
        <time>2016-06-07T18:48:53Z</time>
      </trkpt>
      <trkpt lat="44.93208" lon="3.96734">
        <ele>947.446</ele>
        <time>2016-06-07T18:48:33Z</time>
      </trkpt>
      <trkpt lat="44.93236" lon="3.96799">
        <ele>946.081</ele>
        <time>2016-06-07T18:48:13Z</time>
      </trkpt>
      <trkpt lat="44.93258" lon="3.9685">
        <ele>943.299</ele>
        <time>2016-06-07T18:47:53Z</time>
      </trkpt>
      <trkpt lat="44.93264" lon="3.96885">
        <ele>940.778</ele>
        <time>2016-06-07T18:47:33Z</time>
      </trkpt>
      <trkpt lat="44.93251" lon="3.97012">
        <ele>937.549</ele>
        <time>2016-06-07T18:47:13Z</time>
      </trkpt>
      <trkpt lat="44.93264" lon="3.97074">
        <ele>936.233</ele>
        <time>2016-06-07T18:46:53Z</time>
      </trkpt>
      <trkpt lat="44.93287" lon="3.97096">
        <ele>933.962</ele>
        <time>2016-06-07T18:46:33Z</time>
      </trkpt>
      <trkpt lat="44.93314" lon="3.97106">
        <ele>928.727</ele>
        <time>2016-06-07T18:46:13Z</time>
      </trkpt>
      <trkpt lat="44.93348" lon="3.97112">
        <ele>921.458</ele>
        <time>2016-06-07T18:45:53Z</time>
      </trkpt>
      <trkpt lat="44.93359" lon="3.97131">
        <ele>920.008</ele>
        <time>2016-06-07T18:45:33Z</time>
      </trkpt>
      <trkpt lat="44.93354" lon="3.9722">
        <ele>918.105</ele>
        <time>2016-06-07T18:45:13Z</time>
      </trkpt>
      <trkpt lat="44.93351" lon="3.97288">
        <ele>909.641</ele>
        <time>2016-06-07T18:44:53Z</time>
      </trkpt>
      <trkpt lat="44.93358" lon="3.97347">
        <ele>899.921</ele>
        <time>2016-06-07T18:44:33Z</time>
      </trkpt>
      <trkpt lat="44.93373" lon="3.9741">
        <ele>893.067</ele>
        <time>2016-06-07T18:44:13Z</time>
      </trkpt>
      <trkpt lat="44.93371" lon="3.9745">
        <ele>893.215</ele>
        <time>2016-06-07T18:43:53Z</time>
      </trkpt>
      <trkpt lat="44.9336" lon="3.97504">
        <ele>889.834</ele>
        <time>2016-06-07T18:43:33Z</time>
      </trkpt>
      <trkpt lat="44.93317" lon="3.97622">
        <ele>883.475</ele>
        <time>2016-06-07T18:43:13Z</time>
      </trkpt>
      <trkpt lat="44.93316" lon="3.9766">
        <ele>877.269</ele>
        <time>2016-06-07T18:42:53Z</time>
      </trkpt>
      <trkpt lat="44.93352" lon="3.97718">
        <ele>867.458</ele>
        <time>2016-06-07T18:42:33Z</time>
      </trkpt>
      <trkpt lat="44.93374" lon="3.97788">
        <ele>866.053</ele>
        <time>2016-06-07T18:42:13Z</time>
      </trkpt>
      <trkpt lat="44.93373" lon="3.97813">
        <ele>867.154</ele>
        <time>2016-06-07T18:41:53Z</time>
      </trkpt>
      <trkpt lat="44.9335" lon="3.97856">
        <ele>871.508</ele>
        <time>2016-06-07T18:41:33Z</time>
      </trkpt>
      <trkpt lat="44.93346" lon="3.97921">
        <ele>870.117</ele>
        <time>2019-03-25T15:09:51Z</time>
      </trkpt>
      <trkpt lat="44.93333" lon="3.97968">
        <ele>870.189</ele>
        <time>2019-03-25T15:09:31Z</time>
      </trkpt>
      <trkpt lat="44.93345" lon="3.98035">
        <ele>866.985</ele>
        <time>2019-03-25T15:09:11Z</time>
      </trkpt>
      <trkpt lat="44.93391" lon="3.98061">
        <ele>858.195</ele>
        <time>2019-03-25T15:08:51Z</time>
      </trkpt>
      <trkpt lat="44.93414" lon="3.98141">
        <ele>849.363</ele>
        <time>2016-06-07T18:39:53Z</time>
      </trkpt>
      <trkpt lat="44.93422" lon="3.98167">
        <ele>846.032</ele>
        <time>2016-06-07T18:39:33Z</time>
      </trkpt>
      <trkpt lat="44.9342" lon="3.98194">
        <ele>843.683</ele>
        <time>2016-06-07T18:39:13Z</time>
      </trkpt>
      <trkpt lat="44.93427" lon="3.98236">
        <ele>837.977</ele>
        <time>2016-06-07T18:38:53Z</time>
      </trkpt>
      <trkpt lat="44.93405" lon="3.98299">
        <ele>834.276</ele>
        <time>2016-06-07T18:38:33Z</time>
      </trkpt>
      <trkpt lat="44.93446" lon="3.98322">
        <ele>829.751</ele>
        <time>2016-06-07T18:38:13Z</time>
      </trkpt>
      <trkpt lat="44.93469" lon="3.98321">
        <ele>824.692</ele>
        <time>2016-06-07T18:37:53Z</time>
      </trkpt>
      <trkpt lat="44.93504" lon="3.98357">
        <ele>817.808</ele>
        <time>2016-06-07T18:37:33Z</time>
      </trkpt>
      <trkpt lat="44.93567" lon="3.98369">
        <ele>817.213</ele>
        <time>2016-06-07T18:37:13Z</time>
      </trkpt>
      <trkpt lat="44.93625" lon="3.9841">
        <ele>816.921</ele>
        <time>2016-06-07T18:36:53Z</time>
      </trkpt>
      <trkpt lat="44.93625" lon="3.9841">
        <ele>816.961</ele>
        <time>2016-06-07T18:36:33Z</time>
      </trkpt>
      <trkpt lat="44.93659" lon="3.98448">
        <ele>819.294</ele>
        <time>2016-06-07T18:36:13Z</time>
      </trkpt>
      <trkpt lat="44.9372" lon="3.98707">
        <ele>839.752</ele>
        <time>2016-06-07T18:35:53Z</time>
      </trkpt>
      <trkpt lat="44.93718" lon="3.98742">
        <ele>842.981</ele>
        <time>2016-06-07T18:35:33Z</time>
      </trkpt>
      <trkpt lat="44.93689" lon="3.9881">
        <ele>849.622</ele>
        <time>2016-06-07T18:35:13Z</time>
      </trkpt>
      <trkpt lat="44.93685" lon="3.98903">
        <ele>856.676</ele>
        <time>2016-06-07T18:34:53Z</time>
      </trkpt>
      <trkpt lat="44.93662" lon="3.98951">
        <ele>860.745</ele>
        <time>2016-06-07T18:34:33Z</time>
      </trkpt>
      <trkpt lat="44.93648" lon="3.99015">
        <ele>867.69</ele>
        <time>2016-06-07T18:34:13Z</time>
      </trkpt>
      <trkpt lat="44.93636" lon="3.99115">
        <ele>877.291</ele>
        <time>2016-06-07T18:33:53Z</time>
      </trkpt>
      <trkpt lat="44.93638" lon="3.99178">
        <ele>880.808</ele>
        <time>2016-06-07T18:33:33Z</time>
      </trkpt>
      <trkpt lat="44.93633" lon="3.99246">
        <ele>884.917</ele>
        <time>2016-06-07T18:33:13Z</time>
      </trkpt>
      <trkpt lat="44.93621" lon="3.99304">
        <ele>888.852</ele>
        <time>2016-06-07T18:32:53Z</time>
      </trkpt>
      <trkpt lat="44.93607" lon="3.99338">
        <ele>892.658</ele>
        <time>2016-06-07T18:32:33Z</time>
      </trkpt>
      <trkpt lat="44.93598" lon="3.9938">
        <ele>898.686</ele>
        <time>2016-06-07T18:32:13Z</time>
      </trkpt>
      <trkpt lat="44.93566" lon="3.99476">
        <ele>917.414</ele>
        <time>2016-06-07T18:31:53Z</time>
      </trkpt>
      <trkpt lat="44.9353" lon="3.99545">
        <ele>924.533</ele>
        <time>2016-06-07T18:31:33Z</time>
      </trkpt>
      <trkpt lat="44.93525" lon="3.99573">
        <ele>928.094</ele>
        <time>2016-06-07T18:31:13Z</time>
      </trkpt>
      <trkpt lat="44.9353" lon="3.99614">
        <ele>933.448</ele>
        <time>2016-06-07T18:30:53Z</time>
      </trkpt>
      <trkpt lat="44.9354" lon="3.99639">
        <ele>936.597</ele>
        <time>2016-06-07T18:30:33Z</time>
      </trkpt>
      <trkpt lat="44.93568" lon="3.99633">
        <ele>937.532</ele>
        <time>2016-06-07T18:30:13Z</time>
      </trkpt>
      <trkpt lat="44.93631" lon="3.99609">
        <ele>940.333</ele>
        <time>2016-06-07T18:29:53Z</time>
      </trkpt>
      <trkpt lat="44.93681" lon="3.99578">
        <ele>941.108</ele>
        <time>2016-06-07T18:29:33Z</time>
      </trkpt>
      <trkpt lat="44.93738" lon="3.99569">
        <ele>945.319</ele>
        <time>2016-06-07T18:29:13Z</time>
      </trkpt>
      <trkpt lat="44.93768" lon="3.99553">
        <ele>945.49</ele>
        <time>2016-06-07T18:28:53Z</time>
      </trkpt>
      <trkpt lat="44.93833" lon="3.99548">
        <ele>942.976</ele>
        <time>2016-06-07T18:28:33Z</time>
      </trkpt>
      <trkpt lat="44.93887" lon="3.99527">
        <ele>941.913</ele>
        <time>2016-06-07T18:28:13Z</time>
      </trkpt>
      <trkpt lat="44.93899" lon="3.99485">
        <ele>938.071</ele>
        <time>2016-06-07T18:27:53Z</time>
      </trkpt>
      <trkpt lat="44.93924" lon="3.99446">
        <ele>934.76</ele>
        <time>2016-06-07T18:27:33Z</time>
      </trkpt>
    </trkseg>
  </trk>
</gpx>